<?xml version="1.0" encoding="UTF-8" standalone="no" ?>
<gpx xmlns="http://www.topografix.com/GPX/1/1" xmlns:xsi="http://www.w3.org/2001/XMLSchema-instance" xsi:schemaLocation="http://www.topografix.com/GPX/1/1 http://www.topografix.com/GPX/1/1/gpx.xsd" version="1.1" creator="VisuGPX - https://www.visugpx.com">
  <metadata>
    <name>Puylaurens 2020-03-11</name>
    <desc><![CDATA[
]]></desc>
  </metadata>
  <trk>
    <name><![CDATA[Puylaurens 2020-03-11]]></name>
    <extensions>
      <line xmlns="http://www.topografix.com/GPX/gpx_style/0/2">
        <width>4</width>
      </line>
    </extensions>
    <trkseg>
      <trkpt lat="43.57064" lon="2.01596">
        <ele>166.8</ele>
        <time>2020-03-11T09:00:26.094Z</time>
      </trkpt>
      <trkpt lat="43.57067" lon="2.01599">
        <ele>181</ele>
        <time>2020-03-11T09:00:28.000Z</time>
      </trkpt>
      <trkpt lat="43.57066" lon="2.01587">
        <ele>290</ele>
        <time>2020-03-11T09:00:44.000Z</time>
      </trkpt>
      <trkpt lat="43.57059" lon="2.01576">
        <ele>303</ele>
        <time>2020-03-11T09:00:48.000Z</time>
      </trkpt>
      <trkpt lat="43.5705" lon="2.01568">
        <ele>349.1</ele>
        <time>2020-03-11T09:05:45.000Z</time>
      </trkpt>
      <trkpt lat="43.57054" lon="2.01581">
        <ele>349.1</ele>
        <time>2020-03-11T09:06:12.000Z</time>
      </trkpt>
      <trkpt lat="43.57049" lon="2.0157">
        <ele>348.6</ele>
        <time>2020-03-11T09:12:05.000Z</time>
      </trkpt>
      <trkpt lat="43.57051" lon="2.01557">
        <ele>348.5</ele>
        <time>2020-03-11T09:12:16.000Z</time>
      </trkpt>
      <trkpt lat="43.57053" lon="2.01544">
        <ele>348.4</ele>
        <time>2020-03-11T09:12:28.000Z</time>
      </trkpt>
      <trkpt lat="43.57055" lon="2.01531">
        <ele>348.3</ele>
        <time>2020-03-11T09:12:37.000Z</time>
      </trkpt>
      <trkpt lat="43.5706" lon="2.01519">
        <ele>348.5</ele>
        <time>2020-03-11T09:12:46.000Z</time>
      </trkpt>
      <trkpt lat="43.57066" lon="2.01508">
        <ele>348.7</ele>
        <time>2020-03-11T09:12:55.000Z</time>
      </trkpt>
      <trkpt lat="43.57073" lon="2.01501">
        <ele>348.4</ele>
        <time>2020-03-11T09:13:04.000Z</time>
      </trkpt>
      <trkpt lat="43.57081" lon="2.01491">
        <ele>348.8</ele>
        <time>2020-03-11T09:13:14.000Z</time>
      </trkpt>
      <trkpt lat="43.57084" lon="2.01477">
        <ele>349.2</ele>
        <time>2020-03-11T09:13:21.000Z</time>
      </trkpt>
      <trkpt lat="43.57086" lon="2.01464">
        <ele>348.4</ele>
        <time>2020-03-11T09:13:33.000Z</time>
      </trkpt>
      <trkpt lat="43.57092" lon="2.01453">
        <ele>348.6</ele>
        <time>2020-03-11T09:13:39.000Z</time>
      </trkpt>
      <trkpt lat="43.57099" lon="2.01442">
        <ele>349.5</ele>
        <time>2020-03-11T09:13:46.000Z</time>
      </trkpt>
      <trkpt lat="43.57105" lon="2.0143">
        <ele>349.4</ele>
        <time>2020-03-11T09:13:53.000Z</time>
      </trkpt>
      <trkpt lat="43.5711" lon="2.01419">
        <ele>350.3</ele>
        <time>2020-03-11T09:14:00.000Z</time>
      </trkpt>
      <trkpt lat="43.57115" lon="2.01408">
        <ele>350.5</ele>
        <time>2020-03-11T09:14:07.000Z</time>
      </trkpt>
      <trkpt lat="43.57119" lon="2.01397">
        <ele>350.8</ele>
        <time>2020-03-11T09:14:15.000Z</time>
      </trkpt>
      <trkpt lat="43.57125" lon="2.01387">
        <ele>351.5</ele>
        <time>2020-03-11T09:14:22.000Z</time>
      </trkpt>
      <trkpt lat="43.5713" lon="2.01376">
        <ele>351.7</ele>
        <time>2020-03-11T09:14:30.000Z</time>
      </trkpt>
      <trkpt lat="43.57136" lon="2.01367">
        <ele>351.8</ele>
        <time>2020-03-11T09:14:43.000Z</time>
      </trkpt>
      <trkpt lat="43.57143" lon="2.01358">
        <ele>352.2</ele>
        <time>2020-03-11T09:14:57.000Z</time>
      </trkpt>
      <trkpt lat="43.57151" lon="2.01351">
        <ele>352.7</ele>
        <time>2020-03-11T09:15:10.000Z</time>
      </trkpt>
      <trkpt lat="43.57159" lon="2.01358">
        <ele>353.1</ele>
        <time>2020-03-11T09:15:21.000Z</time>
      </trkpt>
      <trkpt lat="43.57167" lon="2.01365">
        <ele>353.8</ele>
        <time>2020-03-11T09:15:29.000Z</time>
      </trkpt>
      <trkpt lat="43.57176" lon="2.0137">
        <ele>354.9</ele>
        <time>2020-03-11T09:15:37.000Z</time>
      </trkpt>
      <trkpt lat="43.57185" lon="2.01376">
        <ele>355.5</ele>
        <time>2020-03-11T09:15:44.000Z</time>
      </trkpt>
      <trkpt lat="43.57193" lon="2.01367">
        <ele>357</ele>
        <time>2020-03-11T09:15:55.000Z</time>
      </trkpt>
      <trkpt lat="43.57199" lon="2.01357">
        <ele>357.6</ele>
        <time>2020-03-11T09:16:04.000Z</time>
      </trkpt>
      <trkpt lat="43.57205" lon="2.01345">
        <ele>358.3</ele>
        <time>2020-03-11T09:16:12.000Z</time>
      </trkpt>
      <trkpt lat="43.57211" lon="2.01334">
        <ele>359</ele>
        <time>2020-03-11T09:16:24.000Z</time>
      </trkpt>
      <trkpt lat="43.57217" lon="2.01324">
        <ele>359.4</ele>
        <time>2020-03-11T09:16:31.000Z</time>
      </trkpt>
      <trkpt lat="43.57221" lon="2.01312">
        <ele>358.7</ele>
        <time>2020-03-11T09:16:41.000Z</time>
      </trkpt>
      <trkpt lat="43.57228" lon="2.01304">
        <ele>358.7</ele>
        <time>2020-03-11T09:16:45.000Z</time>
      </trkpt>
      <trkpt lat="43.57235" lon="2.01296">
        <ele>358.6</ele>
        <time>2020-03-11T09:16:51.000Z</time>
      </trkpt>
      <trkpt lat="43.57242" lon="2.01289">
        <ele>358.3</ele>
        <time>2020-03-11T09:17:00.000Z</time>
      </trkpt>
      <trkpt lat="43.57249" lon="2.0128">
        <ele>358.2</ele>
        <time>2020-03-11T09:17:12.000Z</time>
      </trkpt>
      <trkpt lat="43.57252" lon="2.01268">
        <ele>358.2</ele>
        <time>2020-03-11T09:17:16.000Z</time>
      </trkpt>
      <trkpt lat="43.57256" lon="2.01256">
        <ele>358.9</ele>
        <time>2020-03-11T09:17:27.000Z</time>
      </trkpt>
      <trkpt lat="43.57263" lon="2.01247">
        <ele>359.3</ele>
        <time>2020-03-11T09:17:34.000Z</time>
      </trkpt>
      <trkpt lat="43.57269" lon="2.01236">
        <ele>359</ele>
        <time>2020-03-11T09:17:40.000Z</time>
      </trkpt>
      <trkpt lat="43.57275" lon="2.01224">
        <ele>358.2</ele>
        <time>2020-03-11T09:17:47.000Z</time>
      </trkpt>
      <trkpt lat="43.57282" lon="2.01215">
        <ele>357.7</ele>
        <time>2020-03-11T09:17:55.000Z</time>
      </trkpt>
      <trkpt lat="43.57291" lon="2.01215">
        <ele>358</ele>
        <time>2020-03-11T09:18:01.000Z</time>
      </trkpt>
      <trkpt lat="43.57295" lon="2.01205">
        <ele>357.5</ele>
        <time>2020-03-11T09:18:10.000Z</time>
      </trkpt>
      <trkpt lat="43.573" lon="2.01194">
        <ele>357.1</ele>
        <time>2020-03-11T09:18:16.000Z</time>
      </trkpt>
      <trkpt lat="43.57305" lon="2.01183">
        <ele>356.9</ele>
        <time>2020-03-11T09:18:26.000Z</time>
      </trkpt>
      <trkpt lat="43.57299" lon="2.01173">
        <ele>356.3</ele>
        <time>2020-03-11T09:18:33.000Z</time>
      </trkpt>
      <trkpt lat="43.57301" lon="2.01156">
        <ele>356.1</ele>
        <time>2020-03-11T09:18:44.000Z</time>
      </trkpt>
      <trkpt lat="43.57307" lon="2.01144">
        <ele>356.1</ele>
        <time>2020-03-11T09:18:52.000Z</time>
      </trkpt>
      <trkpt lat="43.57316" lon="2.01135">
        <ele>355.7</ele>
        <time>2020-03-11T09:18:56.000Z</time>
      </trkpt>
      <trkpt lat="43.57325" lon="2.0113">
        <ele>355.5</ele>
        <time>2020-03-11T09:19:01.000Z</time>
      </trkpt>
      <trkpt lat="43.57333" lon="2.01124">
        <ele>355.3</ele>
        <time>2020-03-11T09:19:07.000Z</time>
      </trkpt>
      <trkpt lat="43.5734" lon="2.01114">
        <ele>355.3</ele>
        <time>2020-03-11T09:19:14.000Z</time>
      </trkpt>
      <trkpt lat="43.57349" lon="2.01109">
        <ele>355.1</ele>
        <time>2020-03-11T09:19:20.000Z</time>
      </trkpt>
      <trkpt lat="43.57342" lon="2.01096">
        <ele>354.3</ele>
        <time>2020-03-11T09:19:27.000Z</time>
      </trkpt>
      <trkpt lat="43.57337" lon="2.01084">
        <ele>354.7</ele>
        <time>2020-03-11T09:19:31.000Z</time>
      </trkpt>
      <trkpt lat="43.57345" lon="2.01077">
        <ele>353.7</ele>
        <time>2020-03-11T09:19:38.000Z</time>
      </trkpt>
      <trkpt lat="43.57353" lon="2.0107">
        <ele>352.7</ele>
        <time>2020-03-11T09:19:47.000Z</time>
      </trkpt>
      <trkpt lat="43.57362" lon="2.01066">
        <ele>352.9</ele>
        <time>2020-03-11T09:19:53.000Z</time>
      </trkpt>
      <trkpt lat="43.57371" lon="2.01063">
        <ele>352.8</ele>
        <time>2020-03-11T09:20:02.000Z</time>
      </trkpt>
      <trkpt lat="43.57366" lon="2.01053">
        <ele>349.2</ele>
        <time>2020-03-11T09:22:59.000Z</time>
      </trkpt>
      <trkpt lat="43.5737" lon="2.0104">
        <ele>348.5</ele>
        <time>2020-03-11T09:23:11.000Z</time>
      </trkpt>
      <trkpt lat="43.57371" lon="2.01027">
        <ele>347.4</ele>
        <time>2020-03-11T09:23:21.000Z</time>
      </trkpt>
      <trkpt lat="43.57374" lon="2.01014">
        <ele>346.6</ele>
        <time>2020-03-11T09:23:28.000Z</time>
      </trkpt>
      <trkpt lat="43.57377" lon="2.01001">
        <ele>345.4</ele>
        <time>2020-03-11T09:23:37.000Z</time>
      </trkpt>
      <trkpt lat="43.5737" lon="2.00991">
        <ele>343.9</ele>
        <time>2020-03-11T09:23:47.000Z</time>
      </trkpt>
      <trkpt lat="43.57378" lon="2.00983">
        <ele>341.4</ele>
        <time>2020-03-11T09:24:03.000Z</time>
      </trkpt>
      <trkpt lat="43.57387" lon="2.00981">
        <ele>340.8</ele>
        <time>2020-03-11T09:24:11.000Z</time>
      </trkpt>
      <trkpt lat="43.57395" lon="2.00989">
        <ele>339.5</ele>
        <time>2020-03-11T09:24:21.000Z</time>
      </trkpt>
      <trkpt lat="43.574" lon="2.01001">
        <ele>338.6</ele>
        <time>2020-03-11T09:24:31.000Z</time>
      </trkpt>
      <trkpt lat="43.57401" lon="2.01014">
        <ele>338.5</ele>
        <time>2020-03-11T09:24:38.000Z</time>
      </trkpt>
      <trkpt lat="43.57403" lon="2.01026">
        <ele>338.3</ele>
        <time>2020-03-11T09:24:45.000Z</time>
      </trkpt>
      <trkpt lat="43.57404" lon="2.01039">
        <ele>337.8</ele>
        <time>2020-03-11T09:24:54.000Z</time>
      </trkpt>
      <trkpt lat="43.57405" lon="2.01052">
        <ele>337.1</ele>
        <time>2020-03-11T09:25:02.000Z</time>
      </trkpt>
      <trkpt lat="43.57407" lon="2.01064">
        <ele>336.5</ele>
        <time>2020-03-11T09:25:11.000Z</time>
      </trkpt>
      <trkpt lat="43.57411" lon="2.01075">
        <ele>336.1</ele>
        <time>2020-03-11T09:25:19.000Z</time>
      </trkpt>
      <trkpt lat="43.57412" lon="2.01088">
        <ele>335.3</ele>
        <time>2020-03-11T09:25:29.000Z</time>
      </trkpt>
      <trkpt lat="43.57416" lon="2.01099">
        <ele>335.1</ele>
        <time>2020-03-11T09:25:35.000Z</time>
      </trkpt>
      <trkpt lat="43.57414" lon="2.01112">
        <ele>334.4</ele>
        <time>2020-03-11T09:25:43.000Z</time>
      </trkpt>
      <trkpt lat="43.57412" lon="2.01125">
        <ele>333.6</ele>
        <time>2020-03-11T09:25:55.000Z</time>
      </trkpt>
      <trkpt lat="43.57415" lon="2.01138">
        <ele>333.1</ele>
        <time>2020-03-11T09:26:05.000Z</time>
      </trkpt>
      <trkpt lat="43.57423" lon="2.01145">
        <ele>332.9</ele>
        <time>2020-03-11T09:26:12.000Z</time>
      </trkpt>
      <trkpt lat="43.57432" lon="2.0115">
        <ele>332.2</ele>
        <time>2020-03-11T09:26:22.000Z</time>
      </trkpt>
      <trkpt lat="43.5744" lon="2.01157">
        <ele>330.7</ele>
        <time>2020-03-11T09:26:31.000Z</time>
      </trkpt>
      <trkpt lat="43.57449" lon="2.0116">
        <ele>329.3</ele>
        <time>2020-03-11T09:26:40.000Z</time>
      </trkpt>
      <trkpt lat="43.57457" lon="2.01156">
        <ele>326.9</ele>
        <time>2020-03-11T09:26:55.000Z</time>
      </trkpt>
      <trkpt lat="43.57466" lon="2.01156">
        <ele>324.3</ele>
        <time>2020-03-11T09:27:24.000Z</time>
      </trkpt>
      <trkpt lat="43.57476" lon="2.01157">
        <ele>322.3</ele>
        <time>2020-03-11T09:27:45.000Z</time>
      </trkpt>
      <trkpt lat="43.57485" lon="2.01157">
        <ele>320.8</ele>
        <time>2020-03-11T09:27:57.000Z</time>
      </trkpt>
      <trkpt lat="43.57494" lon="2.01159">
        <ele>318.7</ele>
        <time>2020-03-11T09:28:13.000Z</time>
      </trkpt>
      <trkpt lat="43.57505" lon="2.01163">
        <ele>316.5</ele>
        <time>2020-03-11T09:28:30.000Z</time>
      </trkpt>
      <trkpt lat="43.57514" lon="2.01165">
        <ele>315.2</ele>
        <time>2020-03-11T09:28:41.000Z</time>
      </trkpt>
      <trkpt lat="43.57521" lon="2.01172">
        <ele>313.7</ele>
        <time>2020-03-11T09:28:51.000Z</time>
      </trkpt>
      <trkpt lat="43.5753" lon="2.01175">
        <ele>312.4</ele>
        <time>2020-03-11T09:29:00.000Z</time>
      </trkpt>
      <trkpt lat="43.5754" lon="2.01177">
        <ele>310.6</ele>
        <time>2020-03-11T09:29:10.000Z</time>
      </trkpt>
      <trkpt lat="43.57549" lon="2.01179">
        <ele>308.4</ele>
        <time>2020-03-11T09:29:23.000Z</time>
      </trkpt>
      <trkpt lat="43.57559" lon="2.01181">
        <ele>306.8</ele>
        <time>2020-03-11T09:29:36.000Z</time>
      </trkpt>
      <trkpt lat="43.57567" lon="2.01185">
        <ele>305.4</ele>
        <time>2020-03-11T09:29:47.000Z</time>
      </trkpt>
      <trkpt lat="43.57577" lon="2.01189">
        <ele>304</ele>
        <time>2020-03-11T09:29:57.000Z</time>
      </trkpt>
      <trkpt lat="43.57586" lon="2.0119">
        <ele>303</ele>
        <time>2020-03-11T09:30:04.000Z</time>
      </trkpt>
      <trkpt lat="43.57595" lon="2.01193">
        <ele>301.6</ele>
        <time>2020-03-11T09:30:13.000Z</time>
      </trkpt>
      <trkpt lat="43.57604" lon="2.01196">
        <ele>300</ele>
        <time>2020-03-11T09:30:22.000Z</time>
      </trkpt>
      <trkpt lat="43.57613" lon="2.01196">
        <ele>298.4</ele>
        <time>2020-03-11T09:30:31.000Z</time>
      </trkpt>
      <trkpt lat="43.57622" lon="2.01192">
        <ele>297.1</ele>
        <time>2020-03-11T09:30:39.000Z</time>
      </trkpt>
      <trkpt lat="43.5763" lon="2.01188">
        <ele>296</ele>
        <time>2020-03-11T09:30:45.000Z</time>
      </trkpt>
      <trkpt lat="43.57639" lon="2.01182">
        <ele>294.8</ele>
        <time>2020-03-11T09:30:53.000Z</time>
      </trkpt>
      <trkpt lat="43.57648" lon="2.01179">
        <ele>293.8</ele>
        <time>2020-03-11T09:31:00.000Z</time>
      </trkpt>
      <trkpt lat="43.57659" lon="2.01177">
        <ele>292.7</ele>
        <time>2020-03-11T09:31:07.000Z</time>
      </trkpt>
      <trkpt lat="43.57668" lon="2.01177">
        <ele>291.6</ele>
        <time>2020-03-11T09:31:15.000Z</time>
      </trkpt>
      <trkpt lat="43.57678" lon="2.01175">
        <ele>290.5</ele>
        <time>2020-03-11T09:31:23.000Z</time>
      </trkpt>
      <trkpt lat="43.57688" lon="2.01172">
        <ele>289.6</ele>
        <time>2020-03-11T09:31:31.000Z</time>
      </trkpt>
      <trkpt lat="43.57697" lon="2.01171">
        <ele>288.7</ele>
        <time>2020-03-11T09:31:39.000Z</time>
      </trkpt>
      <trkpt lat="43.57707" lon="2.01173">
        <ele>287.3</ele>
        <time>2020-03-11T09:31:51.000Z</time>
      </trkpt>
      <trkpt lat="43.57716" lon="2.01172">
        <ele>286.3</ele>
        <time>2020-03-11T09:32:01.000Z</time>
      </trkpt>
      <trkpt lat="43.57725" lon="2.01172">
        <ele>285.4</ele>
        <time>2020-03-11T09:32:11.000Z</time>
      </trkpt>
      <trkpt lat="43.57734" lon="2.0117">
        <ele>284.4</ele>
        <time>2020-03-11T09:32:23.000Z</time>
      </trkpt>
      <trkpt lat="43.57744" lon="2.01169">
        <ele>283</ele>
        <time>2020-03-11T09:32:33.000Z</time>
      </trkpt>
      <trkpt lat="43.57753" lon="2.01169">
        <ele>282.2</ele>
        <time>2020-03-11T09:32:48.000Z</time>
      </trkpt>
      <trkpt lat="43.57762" lon="2.01169">
        <ele>281.5</ele>
        <time>2020-03-11T09:33:00.000Z</time>
      </trkpt>
      <trkpt lat="43.57771" lon="2.01167">
        <ele>280.8</ele>
        <time>2020-03-11T09:33:12.000Z</time>
      </trkpt>
      <trkpt lat="43.5778" lon="2.01168">
        <ele>280.2</ele>
        <time>2020-03-11T09:33:24.000Z</time>
      </trkpt>
      <trkpt lat="43.57789" lon="2.01169">
        <ele>279.7</ele>
        <time>2020-03-11T09:33:34.000Z</time>
      </trkpt>
      <trkpt lat="43.57799" lon="2.01168">
        <ele>279.1</ele>
        <time>2020-03-11T09:34:01.000Z</time>
      </trkpt>
      <trkpt lat="43.57805" lon="2.01158">
        <ele>279</ele>
        <time>2020-03-11T09:34:10.000Z</time>
      </trkpt>
      <trkpt lat="43.5781" lon="2.01146">
        <ele>278.7</ele>
        <time>2020-03-11T09:34:20.000Z</time>
      </trkpt>
      <trkpt lat="43.57814" lon="2.01134">
        <ele>278.5</ele>
        <time>2020-03-11T09:34:29.000Z</time>
      </trkpt>
      <trkpt lat="43.57818" lon="2.01122">
        <ele>278.3</ele>
        <time>2020-03-11T09:34:38.000Z</time>
      </trkpt>
      <trkpt lat="43.57821" lon="2.01109">
        <ele>277.9</ele>
        <time>2020-03-11T09:34:46.000Z</time>
      </trkpt>
      <trkpt lat="43.57824" lon="2.01097">
        <ele>277.6</ele>
        <time>2020-03-11T09:34:54.000Z</time>
      </trkpt>
      <trkpt lat="43.57828" lon="2.01085">
        <ele>277</ele>
        <time>2020-03-11T09:35:02.000Z</time>
      </trkpt>
      <trkpt lat="43.57832" lon="2.01072">
        <ele>276.4</ele>
        <time>2020-03-11T09:35:10.000Z</time>
      </trkpt>
      <trkpt lat="43.57838" lon="2.01062">
        <ele>275.8</ele>
        <time>2020-03-11T09:35:18.000Z</time>
      </trkpt>
      <trkpt lat="43.57843" lon="2.01052">
        <ele>275</ele>
        <time>2020-03-11T09:35:27.000Z</time>
      </trkpt>
      <trkpt lat="43.5785" lon="2.01042">
        <ele>274</ele>
        <time>2020-03-11T09:35:36.000Z</time>
      </trkpt>
      <trkpt lat="43.57857" lon="2.01033">
        <ele>273.2</ele>
        <time>2020-03-11T09:35:44.000Z</time>
      </trkpt>
      <trkpt lat="43.57865" lon="2.01025">
        <ele>272</ele>
        <time>2020-03-11T09:35:54.000Z</time>
      </trkpt>
      <trkpt lat="43.57872" lon="2.01016">
        <ele>271</ele>
        <time>2020-03-11T09:36:02.000Z</time>
      </trkpt>
      <trkpt lat="43.57879" lon="2.01008">
        <ele>270.1</ele>
        <time>2020-03-11T09:36:10.000Z</time>
      </trkpt>
      <trkpt lat="43.57887" lon="2.00999">
        <ele>269.2</ele>
        <time>2020-03-11T09:36:18.000Z</time>
      </trkpt>
      <trkpt lat="43.57894" lon="2.0099">
        <ele>268.4</ele>
        <time>2020-03-11T09:36:26.000Z</time>
      </trkpt>
      <trkpt lat="43.57901" lon="2.00981">
        <ele>267.6</ele>
        <time>2020-03-11T09:36:34.000Z</time>
      </trkpt>
      <trkpt lat="43.57908" lon="2.00972">
        <ele>266.9</ele>
        <time>2020-03-11T09:36:42.000Z</time>
      </trkpt>
      <trkpt lat="43.57916" lon="2.00963">
        <ele>266.3</ele>
        <time>2020-03-11T09:36:50.000Z</time>
      </trkpt>
      <trkpt lat="43.57922" lon="2.00955">
        <ele>265.9</ele>
        <time>2020-03-11T09:36:58.000Z</time>
      </trkpt>
      <trkpt lat="43.5793" lon="2.00946">
        <ele>265.3</ele>
        <time>2020-03-11T09:37:06.000Z</time>
      </trkpt>
      <trkpt lat="43.57938" lon="2.00939">
        <ele>265</ele>
        <time>2020-03-11T09:37:14.000Z</time>
      </trkpt>
      <trkpt lat="43.57946" lon="2.00931">
        <ele>264.5</ele>
        <time>2020-03-11T09:37:22.000Z</time>
      </trkpt>
      <trkpt lat="43.57953" lon="2.00924">
        <ele>263.9</ele>
        <time>2020-03-11T09:37:31.000Z</time>
      </trkpt>
      <trkpt lat="43.5796" lon="2.00914">
        <ele>263.1</ele>
        <time>2020-03-11T09:37:40.000Z</time>
      </trkpt>
      <trkpt lat="43.57967" lon="2.00905">
        <ele>262.3</ele>
        <time>2020-03-11T09:37:50.000Z</time>
      </trkpt>
      <trkpt lat="43.57972" lon="2.00896">
        <ele>261.6</ele>
        <time>2020-03-11T09:37:56.000Z</time>
      </trkpt>
      <trkpt lat="43.57979" lon="2.00886">
        <ele>260.6</ele>
        <time>2020-03-11T09:38:05.000Z</time>
      </trkpt>
      <trkpt lat="43.57987" lon="2.00877">
        <ele>259.8</ele>
        <time>2020-03-11T09:38:13.000Z</time>
      </trkpt>
      <trkpt lat="43.57995" lon="2.00869">
        <ele>259.2</ele>
        <time>2020-03-11T09:38:22.000Z</time>
      </trkpt>
      <trkpt lat="43.58004" lon="2.00864">
        <ele>258.6</ele>
        <time>2020-03-11T09:38:30.000Z</time>
      </trkpt>
      <trkpt lat="43.58014" lon="2.00862">
        <ele>258.2</ele>
        <time>2020-03-11T09:38:40.000Z</time>
      </trkpt>
      <trkpt lat="43.58024" lon="2.00864">
        <ele>258.1</ele>
        <time>2020-03-11T09:38:47.000Z</time>
      </trkpt>
      <trkpt lat="43.58033" lon="2.00864">
        <ele>258</ele>
        <time>2020-03-11T09:38:54.000Z</time>
      </trkpt>
      <trkpt lat="43.58044" lon="2.00865">
        <ele>257.9</ele>
        <time>2020-03-11T09:39:01.000Z</time>
      </trkpt>
      <trkpt lat="43.58054" lon="2.00865">
        <ele>257.8</ele>
        <time>2020-03-11T09:39:09.000Z</time>
      </trkpt>
      <trkpt lat="43.58063" lon="2.00867">
        <ele>257.8</ele>
        <time>2020-03-11T09:39:17.000Z</time>
      </trkpt>
      <trkpt lat="43.58072" lon="2.0087">
        <ele>257.7</ele>
        <time>2020-03-11T09:39:25.000Z</time>
      </trkpt>
      <trkpt lat="43.58081" lon="2.00873">
        <ele>257.6</ele>
        <time>2020-03-11T09:39:33.000Z</time>
      </trkpt>
      <trkpt lat="43.58089" lon="2.00878">
        <ele>257.5</ele>
        <time>2020-03-11T09:39:41.000Z</time>
      </trkpt>
      <trkpt lat="43.58099" lon="2.00881">
        <ele>257.2</ele>
        <time>2020-03-11T09:39:49.000Z</time>
      </trkpt>
      <trkpt lat="43.58108" lon="2.00883">
        <ele>257</ele>
        <time>2020-03-11T09:39:56.000Z</time>
      </trkpt>
      <trkpt lat="43.58118" lon="2.00882">
        <ele>256.9</ele>
        <time>2020-03-11T09:40:03.000Z</time>
      </trkpt>
      <trkpt lat="43.58127" lon="2.0088">
        <ele>256.9</ele>
        <time>2020-03-11T09:40:11.000Z</time>
      </trkpt>
      <trkpt lat="43.58137" lon="2.00876">
        <ele>257</ele>
        <time>2020-03-11T09:40:19.000Z</time>
      </trkpt>
      <trkpt lat="43.58147" lon="2.00872">
        <ele>257.1</ele>
        <time>2020-03-11T09:40:26.000Z</time>
      </trkpt>
      <trkpt lat="43.58156" lon="2.00868">
        <ele>257.2</ele>
        <time>2020-03-11T09:40:32.000Z</time>
      </trkpt>
      <trkpt lat="43.58165" lon="2.00863">
        <ele>257.4</ele>
        <time>2020-03-11T09:40:40.000Z</time>
      </trkpt>
      <trkpt lat="43.58174" lon="2.00859">
        <ele>257.6</ele>
        <time>2020-03-11T09:40:47.000Z</time>
      </trkpt>
      <trkpt lat="43.58183" lon="2.00854">
        <ele>257.7</ele>
        <time>2020-03-11T09:40:55.000Z</time>
      </trkpt>
      <trkpt lat="43.58192" lon="2.00849">
        <ele>257.8</ele>
        <time>2020-03-11T09:41:02.000Z</time>
      </trkpt>
      <trkpt lat="43.58202" lon="2.00843">
        <ele>258</ele>
        <time>2020-03-11T09:41:08.000Z</time>
      </trkpt>
      <trkpt lat="43.58211" lon="2.00838">
        <ele>258.2</ele>
        <time>2020-03-11T09:41:13.000Z</time>
      </trkpt>
      <trkpt lat="43.5822" lon="2.00833">
        <ele>258.3</ele>
        <time>2020-03-11T09:41:21.000Z</time>
      </trkpt>
      <trkpt lat="43.5823" lon="2.00827">
        <ele>258.4</ele>
        <time>2020-03-11T09:41:29.000Z</time>
      </trkpt>
      <trkpt lat="43.58238" lon="2.00821">
        <ele>258.5</ele>
        <time>2020-03-11T09:41:37.000Z</time>
      </trkpt>
      <trkpt lat="43.58247" lon="2.00813">
        <ele>258.6</ele>
        <time>2020-03-11T09:41:45.000Z</time>
      </trkpt>
      <trkpt lat="43.58256" lon="2.00806">
        <ele>258.7</ele>
        <time>2020-03-11T09:41:52.000Z</time>
      </trkpt>
      <trkpt lat="43.58265" lon="2.008">
        <ele>258.9</ele>
        <time>2020-03-11T09:42:00.000Z</time>
      </trkpt>
      <trkpt lat="43.58273" lon="2.00794">
        <ele>259</ele>
        <time>2020-03-11T09:42:07.000Z</time>
      </trkpt>
      <trkpt lat="43.58282" lon="2.00788">
        <ele>259.2</ele>
        <time>2020-03-11T09:42:16.000Z</time>
      </trkpt>
      <trkpt lat="43.58291" lon="2.00782">
        <ele>259.3</ele>
        <time>2020-03-11T09:42:23.000Z</time>
      </trkpt>
      <trkpt lat="43.583" lon="2.00776">
        <ele>259.4</ele>
        <time>2020-03-11T09:42:31.000Z</time>
      </trkpt>
      <trkpt lat="43.58309" lon="2.00773">
        <ele>259.5</ele>
        <time>2020-03-11T09:42:39.000Z</time>
      </trkpt>
      <trkpt lat="43.58319" lon="2.0077">
        <ele>259.5</ele>
        <time>2020-03-11T09:42:47.000Z</time>
      </trkpt>
      <trkpt lat="43.58328" lon="2.00767">
        <ele>259.6</ele>
        <time>2020-03-11T09:42:55.000Z</time>
      </trkpt>
      <trkpt lat="43.58338" lon="2.00764">
        <ele>259.7</ele>
        <time>2020-03-11T09:43:03.000Z</time>
      </trkpt>
      <trkpt lat="43.58347" lon="2.00762">
        <ele>259.7</ele>
        <time>2020-03-11T09:43:11.000Z</time>
      </trkpt>
      <trkpt lat="43.58356" lon="2.00761">
        <ele>259.7</ele>
        <time>2020-03-11T09:43:19.000Z</time>
      </trkpt>
      <trkpt lat="43.58366" lon="2.00757">
        <ele>259.8</ele>
        <time>2020-03-11T09:43:26.000Z</time>
      </trkpt>
      <trkpt lat="43.58375" lon="2.00752">
        <ele>259.8</ele>
        <time>2020-03-11T09:43:33.000Z</time>
      </trkpt>
      <trkpt lat="43.58383" lon="2.00748">
        <ele>259.8</ele>
        <time>2020-03-11T09:43:41.000Z</time>
      </trkpt>
      <trkpt lat="43.58392" lon="2.00742">
        <ele>259.8</ele>
        <time>2020-03-11T09:43:50.000Z</time>
      </trkpt>
      <trkpt lat="43.58401" lon="2.00738">
        <ele>259.8</ele>
        <time>2020-03-11T09:43:57.000Z</time>
      </trkpt>
      <trkpt lat="43.58409" lon="2.00731">
        <ele>259.8</ele>
        <time>2020-03-11T09:44:04.000Z</time>
      </trkpt>
      <trkpt lat="43.58417" lon="2.00724">
        <ele>259.6</ele>
        <time>2020-03-11T09:44:12.000Z</time>
      </trkpt>
      <trkpt lat="43.58425" lon="2.00717">
        <ele>259.4</ele>
        <time>2020-03-11T09:44:19.000Z</time>
      </trkpt>
      <trkpt lat="43.58433" lon="2.00711">
        <ele>259.1</ele>
        <time>2020-03-11T09:44:26.000Z</time>
      </trkpt>
      <trkpt lat="43.58442" lon="2.00705">
        <ele>258.6</ele>
        <time>2020-03-11T09:44:33.000Z</time>
      </trkpt>
      <trkpt lat="43.5845" lon="2.00698">
        <ele>258</ele>
        <time>2020-03-11T09:44:40.000Z</time>
      </trkpt>
      <trkpt lat="43.58459" lon="2.00692">
        <ele>257.2</ele>
        <time>2020-03-11T09:44:48.000Z</time>
      </trkpt>
      <trkpt lat="43.58467" lon="2.00686">
        <ele>256.5</ele>
        <time>2020-03-11T09:44:56.000Z</time>
      </trkpt>
      <trkpt lat="43.58476" lon="2.00681">
        <ele>255.6</ele>
        <time>2020-03-11T09:45:03.000Z</time>
      </trkpt>
      <trkpt lat="43.58485" lon="2.00676">
        <ele>254.7</ele>
        <time>2020-03-11T09:45:11.000Z</time>
      </trkpt>
      <trkpt lat="43.58494" lon="2.00672">
        <ele>254</ele>
        <time>2020-03-11T09:45:18.000Z</time>
      </trkpt>
      <trkpt lat="43.58502" lon="2.00666">
        <ele>253.3</ele>
        <time>2020-03-11T09:45:25.000Z</time>
      </trkpt>
      <trkpt lat="43.58512" lon="2.0066">
        <ele>252.6</ele>
        <time>2020-03-11T09:45:32.000Z</time>
      </trkpt>
      <trkpt lat="43.5852" lon="2.00652">
        <ele>251.8</ele>
        <time>2020-03-11T09:45:39.000Z</time>
      </trkpt>
      <trkpt lat="43.58529" lon="2.00649">
        <ele>250.9</ele>
        <time>2020-03-11T09:45:47.000Z</time>
      </trkpt>
      <trkpt lat="43.58537" lon="2.00643">
        <ele>249.8</ele>
        <time>2020-03-11T09:45:55.000Z</time>
      </trkpt>
      <trkpt lat="43.58546" lon="2.00638">
        <ele>248.9</ele>
        <time>2020-03-11T09:46:02.000Z</time>
      </trkpt>
      <trkpt lat="43.58554" lon="2.00632">
        <ele>248.1</ele>
        <time>2020-03-11T09:46:10.000Z</time>
      </trkpt>
      <trkpt lat="43.58564" lon="2.00627">
        <ele>247</ele>
        <time>2020-03-11T09:46:18.000Z</time>
      </trkpt>
      <trkpt lat="43.58573" lon="2.00624">
        <ele>246.1</ele>
        <time>2020-03-11T09:46:25.000Z</time>
      </trkpt>
      <trkpt lat="43.58583" lon="2.00621">
        <ele>245</ele>
        <time>2020-03-11T09:46:33.000Z</time>
      </trkpt>
      <trkpt lat="43.58591" lon="2.00615">
        <ele>244.3</ele>
        <time>2020-03-11T09:46:39.000Z</time>
      </trkpt>
      <trkpt lat="43.586" lon="2.0061">
        <ele>243.5</ele>
        <time>2020-03-11T09:46:47.000Z</time>
      </trkpt>
      <trkpt lat="43.58608" lon="2.00602">
        <ele>242.7</ele>
        <time>2020-03-11T09:46:54.000Z</time>
      </trkpt>
      <trkpt lat="43.58615" lon="2.00595">
        <ele>241.7</ele>
        <time>2020-03-11T09:47:02.000Z</time>
      </trkpt>
      <trkpt lat="43.58622" lon="2.00586">
        <ele>240.7</ele>
        <time>2020-03-11T09:47:12.000Z</time>
      </trkpt>
      <trkpt lat="43.5863" lon="2.00579">
        <ele>239.8</ele>
        <time>2020-03-11T09:47:20.000Z</time>
      </trkpt>
      <trkpt lat="43.58638" lon="2.00572">
        <ele>239</ele>
        <time>2020-03-11T09:47:28.000Z</time>
      </trkpt>
      <trkpt lat="43.58645" lon="2.00564">
        <ele>238.2</ele>
        <time>2020-03-11T09:47:37.000Z</time>
      </trkpt>
      <trkpt lat="43.58653" lon="2.00557">
        <ele>237.3</ele>
        <time>2020-03-11T09:47:46.000Z</time>
      </trkpt>
      <trkpt lat="43.58661" lon="2.00549">
        <ele>236.2</ele>
        <time>2020-03-11T09:47:53.000Z</time>
      </trkpt>
      <trkpt lat="43.58668" lon="2.00542">
        <ele>235.5</ele>
        <time>2020-03-11T09:48:01.000Z</time>
      </trkpt>
      <trkpt lat="43.58675" lon="2.00535">
        <ele>234.6</ele>
        <time>2020-03-11T09:48:10.000Z</time>
      </trkpt>
      <trkpt lat="43.58685" lon="2.00529">
        <ele>233.9</ele>
        <time>2020-03-11T09:48:17.000Z</time>
      </trkpt>
      <trkpt lat="43.58693" lon="2.00523">
        <ele>233.1</ele>
        <time>2020-03-11T09:48:25.000Z</time>
      </trkpt>
      <trkpt lat="43.587" lon="2.00516">
        <ele>232.3</ele>
        <time>2020-03-11T09:48:32.000Z</time>
      </trkpt>
      <trkpt lat="43.58706" lon="2.00506">
        <ele>231.5</ele>
        <time>2020-03-11T09:48:39.000Z</time>
      </trkpt>
      <trkpt lat="43.58715" lon="2.00499">
        <ele>230.6</ele>
        <time>2020-03-11T09:48:46.000Z</time>
      </trkpt>
      <trkpt lat="43.58722" lon="2.0049">
        <ele>229.6</ele>
        <time>2020-03-11T09:48:54.000Z</time>
      </trkpt>
      <trkpt lat="43.5873" lon="2.00482">
        <ele>228.8</ele>
        <time>2020-03-11T09:49:01.000Z</time>
      </trkpt>
      <trkpt lat="43.58737" lon="2.00474">
        <ele>227.9</ele>
        <time>2020-03-11T09:49:09.000Z</time>
      </trkpt>
      <trkpt lat="43.58745" lon="2.00468">
        <ele>227.1</ele>
        <time>2020-03-11T09:49:17.000Z</time>
      </trkpt>
      <trkpt lat="43.58754" lon="2.0046">
        <ele>226.2</ele>
        <time>2020-03-11T09:49:26.000Z</time>
      </trkpt>
      <trkpt lat="43.58762" lon="2.00454">
        <ele>225.7</ele>
        <time>2020-03-11T09:49:34.000Z</time>
      </trkpt>
      <trkpt lat="43.5877" lon="2.00448">
        <ele>225.3</ele>
        <time>2020-03-11T09:49:42.000Z</time>
      </trkpt>
      <trkpt lat="43.58779" lon="2.0044">
        <ele>224.9</ele>
        <time>2020-03-11T09:49:50.000Z</time>
      </trkpt>
      <trkpt lat="43.58787" lon="2.00435">
        <ele>224.5</ele>
        <time>2020-03-11T09:49:58.000Z</time>
      </trkpt>
      <trkpt lat="43.58796" lon="2.0043">
        <ele>224.2</ele>
        <time>2020-03-11T09:50:08.000Z</time>
      </trkpt>
      <trkpt lat="43.58805" lon="2.00427">
        <ele>224</ele>
        <time>2020-03-11T09:50:17.000Z</time>
      </trkpt>
      <trkpt lat="43.58814" lon="2.00424">
        <ele>223.9</ele>
        <time>2020-03-11T09:50:24.000Z</time>
      </trkpt>
      <trkpt lat="43.58822" lon="2.00418">
        <ele>223.8</ele>
        <time>2020-03-11T09:50:31.000Z</time>
      </trkpt>
      <trkpt lat="43.58831" lon="2.00412">
        <ele>223.8</ele>
        <time>2020-03-11T09:50:39.000Z</time>
      </trkpt>
      <trkpt lat="43.58839" lon="2.00407">
        <ele>223.8</ele>
        <time>2020-03-11T09:50:47.000Z</time>
      </trkpt>
      <trkpt lat="43.58847" lon="2.00401">
        <ele>223.7</ele>
        <time>2020-03-11T09:50:58.000Z</time>
      </trkpt>
      <trkpt lat="43.58855" lon="2.00395">
        <ele>223.8</ele>
        <time>2020-03-11T09:51:05.000Z</time>
      </trkpt>
      <trkpt lat="43.58864" lon="2.0039">
        <ele>223.9</ele>
        <time>2020-03-11T09:51:14.000Z</time>
      </trkpt>
      <trkpt lat="43.58874" lon="2.00391">
        <ele>224.1</ele>
        <time>2020-03-11T09:51:23.000Z</time>
      </trkpt>
      <trkpt lat="43.58884" lon="2.00391">
        <ele>224.2</ele>
        <time>2020-03-11T09:51:31.000Z</time>
      </trkpt>
      <trkpt lat="43.58893" lon="2.00394">
        <ele>224.2</ele>
        <time>2020-03-11T09:51:39.000Z</time>
      </trkpt>
      <trkpt lat="43.58902" lon="2.00395">
        <ele>224.2</ele>
        <time>2020-03-11T09:51:47.000Z</time>
      </trkpt>
      <trkpt lat="43.58913" lon="2.00396">
        <ele>224.2</ele>
        <time>2020-03-11T09:51:54.000Z</time>
      </trkpt>
      <trkpt lat="43.58922" lon="2.00396">
        <ele>224.2</ele>
        <time>2020-03-11T09:52:01.000Z</time>
      </trkpt>
      <trkpt lat="43.58932" lon="2.00396">
        <ele>224.2</ele>
        <time>2020-03-11T09:52:11.000Z</time>
      </trkpt>
      <trkpt lat="43.58942" lon="2.00397">
        <ele>224.2</ele>
        <time>2020-03-11T09:52:20.000Z</time>
      </trkpt>
      <trkpt lat="43.58951" lon="2.00398">
        <ele>224.2</ele>
        <time>2020-03-11T09:52:28.000Z</time>
      </trkpt>
      <trkpt lat="43.5896" lon="2.004">
        <ele>224.1</ele>
        <time>2020-03-11T09:52:35.000Z</time>
      </trkpt>
      <trkpt lat="43.58969" lon="2.004">
        <ele>224</ele>
        <time>2020-03-11T09:52:42.000Z</time>
      </trkpt>
      <trkpt lat="43.58979" lon="2.00399">
        <ele>223.9</ele>
        <time>2020-03-11T09:52:49.000Z</time>
      </trkpt>
      <trkpt lat="43.58988" lon="2.00399">
        <ele>223.8</ele>
        <time>2020-03-11T09:52:56.000Z</time>
      </trkpt>
      <trkpt lat="43.58997" lon="2.00394">
        <ele>223.3</ele>
        <time>2020-03-11T09:53:03.000Z</time>
      </trkpt>
      <trkpt lat="43.59006" lon="2.00389">
        <ele>222.9</ele>
        <time>2020-03-11T09:53:11.000Z</time>
      </trkpt>
      <trkpt lat="43.59016" lon="2.00385">
        <ele>222.6</ele>
        <time>2020-03-11T09:53:18.000Z</time>
      </trkpt>
      <trkpt lat="43.59025" lon="2.00384">
        <ele>222.3</ele>
        <time>2020-03-11T09:53:25.000Z</time>
      </trkpt>
      <trkpt lat="43.59035" lon="2.00384">
        <ele>222.1</ele>
        <time>2020-03-11T09:53:33.000Z</time>
      </trkpt>
      <trkpt lat="43.59044" lon="2.00384">
        <ele>222</ele>
        <time>2020-03-11T09:53:41.000Z</time>
      </trkpt>
      <trkpt lat="43.59053" lon="2.0038">
        <ele>221.9</ele>
        <time>2020-03-11T09:53:49.000Z</time>
      </trkpt>
      <trkpt lat="43.59062" lon="2.00375">
        <ele>221.8</ele>
        <time>2020-03-11T09:53:57.000Z</time>
      </trkpt>
      <trkpt lat="43.59071" lon="2.00375">
        <ele>221.8</ele>
        <time>2020-03-11T09:54:06.000Z</time>
      </trkpt>
      <trkpt lat="43.59081" lon="2.00375">
        <ele>221.7</ele>
        <time>2020-03-11T09:54:15.000Z</time>
      </trkpt>
      <trkpt lat="43.5909" lon="2.00378">
        <ele>221.6</ele>
        <time>2020-03-11T09:54:25.000Z</time>
      </trkpt>
      <trkpt lat="43.59101" lon="2.00379">
        <ele>221.1</ele>
        <time>2020-03-11T09:54:33.000Z</time>
      </trkpt>
      <trkpt lat="43.5911" lon="2.00382">
        <ele>220.6</ele>
        <time>2020-03-11T09:54:40.000Z</time>
      </trkpt>
      <trkpt lat="43.59119" lon="2.00386">
        <ele>220.1</ele>
        <time>2020-03-11T09:54:48.000Z</time>
      </trkpt>
      <trkpt lat="43.59128" lon="2.00388">
        <ele>219.4</ele>
        <time>2020-03-11T09:54:56.000Z</time>
      </trkpt>
      <trkpt lat="43.59138" lon="2.0039">
        <ele>218.8</ele>
        <time>2020-03-11T09:55:04.000Z</time>
      </trkpt>
      <trkpt lat="43.59147" lon="2.00392">
        <ele>218.3</ele>
        <time>2020-03-11T09:55:10.000Z</time>
      </trkpt>
      <trkpt lat="43.59156" lon="2.00395">
        <ele>217.7</ele>
        <time>2020-03-11T09:55:19.000Z</time>
      </trkpt>
      <trkpt lat="43.59166" lon="2.00399">
        <ele>217.1</ele>
        <time>2020-03-11T09:55:26.000Z</time>
      </trkpt>
      <trkpt lat="43.59175" lon="2.00402">
        <ele>216.6</ele>
        <time>2020-03-11T09:55:32.000Z</time>
      </trkpt>
      <trkpt lat="43.59184" lon="2.00407">
        <ele>215.9</ele>
        <time>2020-03-11T09:55:41.000Z</time>
      </trkpt>
      <trkpt lat="43.59192" lon="2.00414">
        <ele>215.4</ele>
        <time>2020-03-11T09:55:49.000Z</time>
      </trkpt>
      <trkpt lat="43.59202" lon="2.00415">
        <ele>215</ele>
        <time>2020-03-11T09:55:56.000Z</time>
      </trkpt>
      <trkpt lat="43.59211" lon="2.00418">
        <ele>214.7</ele>
        <time>2020-03-11T09:56:03.000Z</time>
      </trkpt>
      <trkpt lat="43.59219" lon="2.00424">
        <ele>214.3</ele>
        <time>2020-03-11T09:56:13.000Z</time>
      </trkpt>
      <trkpt lat="43.59229" lon="2.00427">
        <ele>213.9</ele>
        <time>2020-03-11T09:56:23.000Z</time>
      </trkpt>
      <trkpt lat="43.59238" lon="2.00428">
        <ele>213.4</ele>
        <time>2020-03-11T09:56:31.000Z</time>
      </trkpt>
      <trkpt lat="43.59247" lon="2.00431">
        <ele>213.1</ele>
        <time>2020-03-11T09:56:37.000Z</time>
      </trkpt>
      <trkpt lat="43.59258" lon="2.00432">
        <ele>212.8</ele>
        <time>2020-03-11T09:56:46.000Z</time>
      </trkpt>
      <trkpt lat="43.59267" lon="2.00432">
        <ele>212.6</ele>
        <time>2020-03-11T09:56:54.000Z</time>
      </trkpt>
      <trkpt lat="43.59277" lon="2.00431">
        <ele>212.5</ele>
        <time>2020-03-11T09:57:00.000Z</time>
      </trkpt>
      <trkpt lat="43.59287" lon="2.00436">
        <ele>212.4</ele>
        <time>2020-03-11T09:57:04.000Z</time>
      </trkpt>
      <trkpt lat="43.59296" lon="2.00439">
        <ele>212.3</ele>
        <time>2020-03-11T09:57:10.000Z</time>
      </trkpt>
      <trkpt lat="43.59305" lon="2.0044">
        <ele>212.2</ele>
        <time>2020-03-11T09:57:16.000Z</time>
      </trkpt>
      <trkpt lat="43.59314" lon="2.00444">
        <ele>212</ele>
        <time>2020-03-11T09:57:25.000Z</time>
      </trkpt>
      <trkpt lat="43.59322" lon="2.00449">
        <ele>211.8</ele>
        <time>2020-03-11T09:57:33.000Z</time>
      </trkpt>
      <trkpt lat="43.5933" lon="2.00457">
        <ele>211.6</ele>
        <time>2020-03-11T09:57:40.000Z</time>
      </trkpt>
      <trkpt lat="43.59339" lon="2.00463">
        <ele>211.5</ele>
        <time>2020-03-11T09:57:46.000Z</time>
      </trkpt>
      <trkpt lat="43.59347" lon="2.00468">
        <ele>211.4</ele>
        <time>2020-03-11T09:57:52.000Z</time>
      </trkpt>
      <trkpt lat="43.59356" lon="2.00473">
        <ele>211.1</ele>
        <time>2020-03-11T09:58:00.000Z</time>
      </trkpt>
      <trkpt lat="43.59365" lon="2.00478">
        <ele>210.9</ele>
        <time>2020-03-11T09:58:06.000Z</time>
      </trkpt>
      <trkpt lat="43.59375" lon="2.00482">
        <ele>210.6</ele>
        <time>2020-03-11T09:58:14.000Z</time>
      </trkpt>
      <trkpt lat="43.59383" lon="2.00488">
        <ele>210.4</ele>
        <time>2020-03-11T09:58:22.000Z</time>
      </trkpt>
      <trkpt lat="43.59392" lon="2.00491">
        <ele>210.2</ele>
        <time>2020-03-11T09:58:30.000Z</time>
      </trkpt>
      <trkpt lat="43.59402" lon="2.00493">
        <ele>210.1</ele>
        <time>2020-03-11T09:58:38.000Z</time>
      </trkpt>
      <trkpt lat="43.59411" lon="2.00494">
        <ele>210</ele>
        <time>2020-03-11T09:58:45.000Z</time>
      </trkpt>
      <trkpt lat="43.59421" lon="2.00497">
        <ele>209.9</ele>
        <time>2020-03-11T09:58:53.000Z</time>
      </trkpt>
      <trkpt lat="43.5943" lon="2.005">
        <ele>209.8</ele>
        <time>2020-03-11T09:59:01.000Z</time>
      </trkpt>
      <trkpt lat="43.5944" lon="2.00504">
        <ele>209.8</ele>
        <time>2020-03-11T09:59:10.000Z</time>
      </trkpt>
      <trkpt lat="43.59449" lon="2.00509">
        <ele>209.7</ele>
        <time>2020-03-11T09:59:18.000Z</time>
      </trkpt>
      <trkpt lat="43.59459" lon="2.0051">
        <ele>209.6</ele>
        <time>2020-03-11T09:59:25.000Z</time>
      </trkpt>
      <trkpt lat="43.59469" lon="2.00508">
        <ele>209.6</ele>
        <time>2020-03-11T09:59:32.000Z</time>
      </trkpt>
      <trkpt lat="43.59479" lon="2.00511">
        <ele>209.6</ele>
        <time>2020-03-11T09:59:40.000Z</time>
      </trkpt>
      <trkpt lat="43.59488" lon="2.00512">
        <ele>209.5</ele>
        <time>2020-03-11T09:59:47.000Z</time>
      </trkpt>
      <trkpt lat="43.59497" lon="2.00516">
        <ele>209.5</ele>
        <time>2020-03-11T09:59:55.000Z</time>
      </trkpt>
      <trkpt lat="43.59506" lon="2.0052">
        <ele>209.4</ele>
        <time>2020-03-11T10:00:03.000Z</time>
      </trkpt>
      <trkpt lat="43.59515" lon="2.00525">
        <ele>209.2</ele>
        <time>2020-03-11T10:00:11.000Z</time>
      </trkpt>
      <trkpt lat="43.59523" lon="2.0053">
        <ele>209</ele>
        <time>2020-03-11T10:00:18.000Z</time>
      </trkpt>
      <trkpt lat="43.59532" lon="2.00536">
        <ele>208.8</ele>
        <time>2020-03-11T10:00:26.000Z</time>
      </trkpt>
      <trkpt lat="43.59541" lon="2.00543">
        <ele>208.5</ele>
        <time>2020-03-11T10:00:34.000Z</time>
      </trkpt>
      <trkpt lat="43.59551" lon="2.00551">
        <ele>207.6</ele>
        <time>2020-03-11T10:00:41.000Z</time>
      </trkpt>
      <trkpt lat="43.59558" lon="2.00559">
        <ele>207.1</ele>
        <time>2020-03-11T10:00:48.000Z</time>
      </trkpt>
      <trkpt lat="43.59566" lon="2.00566">
        <ele>206.8</ele>
        <time>2020-03-11T10:00:56.000Z</time>
      </trkpt>
      <trkpt lat="43.59573" lon="2.00575">
        <ele>206.6</ele>
        <time>2020-03-11T10:01:05.000Z</time>
      </trkpt>
      <trkpt lat="43.59579" lon="2.00584">
        <ele>206.5</ele>
        <time>2020-03-11T10:01:13.000Z</time>
      </trkpt>
      <trkpt lat="43.59586" lon="2.00594">
        <ele>206.4</ele>
        <time>2020-03-11T10:01:20.000Z</time>
      </trkpt>
      <trkpt lat="43.59594" lon="2.00602">
        <ele>206.3</ele>
        <time>2020-03-11T10:01:29.000Z</time>
      </trkpt>
      <trkpt lat="43.59599" lon="2.00618">
        <ele>202.9</ele>
        <time>2020-03-11T10:06:41.000Z</time>
      </trkpt>
      <trkpt lat="43.59606" lon="2.00627">
        <ele>201.8</ele>
        <time>2020-03-11T10:10:03.000Z</time>
      </trkpt>
      <trkpt lat="43.5961" lon="2.00639">
        <ele>201.7</ele>
        <time>2020-03-11T10:10:13.000Z</time>
      </trkpt>
      <trkpt lat="43.59615" lon="2.0065">
        <ele>201.6</ele>
        <time>2020-03-11T10:10:23.000Z</time>
      </trkpt>
      <trkpt lat="43.59621" lon="2.00661">
        <ele>201.6</ele>
        <time>2020-03-11T10:10:32.000Z</time>
      </trkpt>
      <trkpt lat="43.59626" lon="2.00671">
        <ele>201.5</ele>
        <time>2020-03-11T10:10:41.000Z</time>
      </trkpt>
      <trkpt lat="43.59633" lon="2.00681">
        <ele>201.2</ele>
        <time>2020-03-11T10:10:56.000Z</time>
      </trkpt>
      <trkpt lat="43.59641" lon="2.00687">
        <ele>201</ele>
        <time>2020-03-11T10:11:05.000Z</time>
      </trkpt>
      <trkpt lat="43.59651" lon="2.00686">
        <ele>200.8</ele>
        <time>2020-03-11T10:11:13.000Z</time>
      </trkpt>
      <trkpt lat="43.59661" lon="2.00685">
        <ele>200.6</ele>
        <time>2020-03-11T10:11:20.000Z</time>
      </trkpt>
      <trkpt lat="43.59671" lon="2.00683">
        <ele>200.3</ele>
        <time>2020-03-11T10:11:28.000Z</time>
      </trkpt>
      <trkpt lat="43.5968" lon="2.00685">
        <ele>200.1</ele>
        <time>2020-03-11T10:11:36.000Z</time>
      </trkpt>
      <trkpt lat="43.59689" lon="2.00685">
        <ele>199.8</ele>
        <time>2020-03-11T10:11:45.000Z</time>
      </trkpt>
      <trkpt lat="43.59699" lon="2.00689">
        <ele>199.2</ele>
        <time>2020-03-11T10:11:59.000Z</time>
      </trkpt>
      <trkpt lat="43.59708" lon="2.00692">
        <ele>198.9</ele>
        <time>2020-03-11T10:12:06.000Z</time>
      </trkpt>
      <trkpt lat="43.59717" lon="2.00694">
        <ele>198.6</ele>
        <time>2020-03-11T10:12:15.000Z</time>
      </trkpt>
      <trkpt lat="43.59727" lon="2.00696">
        <ele>198.2</ele>
        <time>2020-03-11T10:12:23.000Z</time>
      </trkpt>
      <trkpt lat="43.59736" lon="2.00699">
        <ele>198</ele>
        <time>2020-03-11T10:12:32.000Z</time>
      </trkpt>
      <trkpt lat="43.59745" lon="2.00704">
        <ele>197.6</ele>
        <time>2020-03-11T10:12:43.000Z</time>
      </trkpt>
      <trkpt lat="43.59754" lon="2.00708">
        <ele>197.5</ele>
        <time>2020-03-11T10:12:51.000Z</time>
      </trkpt>
      <trkpt lat="43.59763" lon="2.00713">
        <ele>197.2</ele>
        <time>2020-03-11T10:12:58.000Z</time>
      </trkpt>
      <trkpt lat="43.59771" lon="2.00718">
        <ele>196.9</ele>
        <time>2020-03-11T10:13:07.000Z</time>
      </trkpt>
      <trkpt lat="43.5978" lon="2.00721">
        <ele>196.8</ele>
        <time>2020-03-11T10:13:14.000Z</time>
      </trkpt>
      <trkpt lat="43.59789" lon="2.00726">
        <ele>196.6</ele>
        <time>2020-03-11T10:13:22.000Z</time>
      </trkpt>
      <trkpt lat="43.59798" lon="2.0073">
        <ele>196.6</ele>
        <time>2020-03-11T10:13:29.000Z</time>
      </trkpt>
      <trkpt lat="43.59807" lon="2.00734">
        <ele>196.5</ele>
        <time>2020-03-11T10:13:37.000Z</time>
      </trkpt>
      <trkpt lat="43.59815" lon="2.0074">
        <ele>196.5</ele>
        <time>2020-03-11T10:13:44.000Z</time>
      </trkpt>
      <trkpt lat="43.59824" lon="2.00746">
        <ele>196.6</ele>
        <time>2020-03-11T10:13:52.000Z</time>
      </trkpt>
      <trkpt lat="43.59833" lon="2.00752">
        <ele>196.9</ele>
        <time>2020-03-11T10:14:01.000Z</time>
      </trkpt>
      <trkpt lat="43.59841" lon="2.00758">
        <ele>197.3</ele>
        <time>2020-03-11T10:14:09.000Z</time>
      </trkpt>
      <trkpt lat="43.5985" lon="2.00762">
        <ele>197.9</ele>
        <time>2020-03-11T10:14:17.000Z</time>
      </trkpt>
      <trkpt lat="43.59859" lon="2.00767">
        <ele>198.5</ele>
        <time>2020-03-11T10:14:25.000Z</time>
      </trkpt>
      <trkpt lat="43.59867" lon="2.00773">
        <ele>199.3</ele>
        <time>2020-03-11T10:14:33.000Z</time>
      </trkpt>
      <trkpt lat="43.59876" lon="2.00779">
        <ele>200.3</ele>
        <time>2020-03-11T10:14:42.000Z</time>
      </trkpt>
      <trkpt lat="43.59884" lon="2.00785">
        <ele>201.2</ele>
        <time>2020-03-11T10:14:51.000Z</time>
      </trkpt>
      <trkpt lat="43.59892" lon="2.00792">
        <ele>202.4</ele>
        <time>2020-03-11T10:15:01.000Z</time>
      </trkpt>
      <trkpt lat="43.599" lon="2.00799">
        <ele>203.6</ele>
        <time>2020-03-11T10:15:10.000Z</time>
      </trkpt>
      <trkpt lat="43.59908" lon="2.00805">
        <ele>204.5</ele>
        <time>2020-03-11T10:15:18.000Z</time>
      </trkpt>
      <trkpt lat="43.59916" lon="2.00813">
        <ele>205.3</ele>
        <time>2020-03-11T10:15:27.000Z</time>
      </trkpt>
      <trkpt lat="43.59924" lon="2.0082">
        <ele>206.2</ele>
        <time>2020-03-11T10:15:37.000Z</time>
      </trkpt>
      <trkpt lat="43.59932" lon="2.00827">
        <ele>207.1</ele>
        <time>2020-03-11T10:15:46.000Z</time>
      </trkpt>
      <trkpt lat="43.59941" lon="2.00833">
        <ele>208.3</ele>
        <time>2020-03-11T10:15:57.000Z</time>
      </trkpt>
      <trkpt lat="43.59949" lon="2.00842">
        <ele>209.5</ele>
        <time>2020-03-11T10:16:07.000Z</time>
      </trkpt>
      <trkpt lat="43.59957" lon="2.0085">
        <ele>211.1</ele>
        <time>2020-03-11T10:16:19.000Z</time>
      </trkpt>
      <trkpt lat="43.59965" lon="2.00857">
        <ele>212.6</ele>
        <time>2020-03-11T10:16:30.000Z</time>
      </trkpt>
      <trkpt lat="43.59974" lon="2.00861">
        <ele>214</ele>
        <time>2020-03-11T10:16:40.000Z</time>
      </trkpt>
      <trkpt lat="43.59984" lon="2.00865">
        <ele>214.8</ele>
        <time>2020-03-11T10:16:47.000Z</time>
      </trkpt>
      <trkpt lat="43.59992" lon="2.00869">
        <ele>215.8</ele>
        <time>2020-03-11T10:16:57.000Z</time>
      </trkpt>
      <trkpt lat="43.60002" lon="2.00871">
        <ele>217</ele>
        <time>2020-03-11T10:17:08.000Z</time>
      </trkpt>
      <trkpt lat="43.60011" lon="2.00871">
        <ele>218.2</ele>
        <time>2020-03-11T10:17:19.000Z</time>
      </trkpt>
      <trkpt lat="43.60021" lon="2.0087">
        <ele>219.1</ele>
        <time>2020-03-11T10:17:28.000Z</time>
      </trkpt>
      <trkpt lat="43.6003" lon="2.0087">
        <ele>220.1</ele>
        <time>2020-03-11T10:17:39.000Z</time>
      </trkpt>
      <trkpt lat="43.6004" lon="2.0087">
        <ele>221.4</ele>
        <time>2020-03-11T10:17:51.000Z</time>
      </trkpt>
      <trkpt lat="43.60049" lon="2.00869">
        <ele>222.5</ele>
        <time>2020-03-11T10:18:01.000Z</time>
      </trkpt>
      <trkpt lat="43.60059" lon="2.0087">
        <ele>223.4</ele>
        <time>2020-03-11T10:18:10.000Z</time>
      </trkpt>
      <trkpt lat="43.60068" lon="2.00872">
        <ele>224.4</ele>
        <time>2020-03-11T10:18:20.000Z</time>
      </trkpt>
      <trkpt lat="43.60078" lon="2.00873">
        <ele>225.8</ele>
        <time>2020-03-11T10:18:39.000Z</time>
      </trkpt>
      <trkpt lat="43.60087" lon="2.00877">
        <ele>226.3</ele>
        <time>2020-03-11T10:18:47.000Z</time>
      </trkpt>
      <trkpt lat="43.60096" lon="2.00879">
        <ele>226.8</ele>
        <time>2020-03-11T10:18:56.000Z</time>
      </trkpt>
      <trkpt lat="43.60106" lon="2.00883">
        <ele>227.8</ele>
        <time>2020-03-11T10:19:05.000Z</time>
      </trkpt>
      <trkpt lat="43.60114" lon="2.00889">
        <ele>229</ele>
        <time>2020-03-11T10:19:16.000Z</time>
      </trkpt>
      <trkpt lat="43.60122" lon="2.00895">
        <ele>230.3</ele>
        <time>2020-03-11T10:21:30.000Z</time>
      </trkpt>
      <trkpt lat="43.60132" lon="2.00899">
        <ele>231.2</ele>
        <time>2020-03-11T10:21:37.000Z</time>
      </trkpt>
      <trkpt lat="43.6014" lon="2.00905">
        <ele>231.4</ele>
        <time>2020-03-11T10:21:44.000Z</time>
      </trkpt>
      <trkpt lat="43.60149" lon="2.00911">
        <ele>231.1</ele>
        <time>2020-03-11T10:21:52.000Z</time>
      </trkpt>
      <trkpt lat="43.60157" lon="2.00914">
        <ele>230.5</ele>
        <time>2020-03-11T10:22:01.000Z</time>
      </trkpt>
      <trkpt lat="43.60167" lon="2.00919">
        <ele>229.8</ele>
        <time>2020-03-11T10:22:11.000Z</time>
      </trkpt>
      <trkpt lat="43.60176" lon="2.00923">
        <ele>229.2</ele>
        <time>2020-03-11T10:22:21.000Z</time>
      </trkpt>
      <trkpt lat="43.60187" lon="2.00927">
        <ele>228.6</ele>
        <time>2020-03-11T10:22:29.000Z</time>
      </trkpt>
      <trkpt lat="43.60196" lon="2.00929">
        <ele>228.3</ele>
        <time>2020-03-11T10:22:37.000Z</time>
      </trkpt>
      <trkpt lat="43.60207" lon="2.0093">
        <ele>227.9</ele>
        <time>2020-03-11T10:22:45.000Z</time>
      </trkpt>
      <trkpt lat="43.60216" lon="2.0093">
        <ele>227.6</ele>
        <time>2020-03-11T10:22:52.000Z</time>
      </trkpt>
      <trkpt lat="43.60227" lon="2.00927">
        <ele>227.4</ele>
        <time>2020-03-11T10:23:00.000Z</time>
      </trkpt>
      <trkpt lat="43.60236" lon="2.00925">
        <ele>227.1</ele>
        <time>2020-03-11T10:23:08.000Z</time>
      </trkpt>
      <trkpt lat="43.60246" lon="2.00924">
        <ele>226.8</ele>
        <time>2020-03-11T10:23:15.000Z</time>
      </trkpt>
      <trkpt lat="43.60256" lon="2.00926">
        <ele>226.4</ele>
        <time>2020-03-11T10:23:24.000Z</time>
      </trkpt>
      <trkpt lat="43.60265" lon="2.00926">
        <ele>226.2</ele>
        <time>2020-03-11T10:23:33.000Z</time>
      </trkpt>
      <trkpt lat="43.60274" lon="2.00923">
        <ele>226</ele>
        <time>2020-03-11T10:23:40.000Z</time>
      </trkpt>
      <trkpt lat="43.60283" lon="2.00917">
        <ele>225.9</ele>
        <time>2020-03-11T10:23:47.000Z</time>
      </trkpt>
      <trkpt lat="43.60292" lon="2.0091">
        <ele>225.9</ele>
        <time>2020-03-11T10:23:54.000Z</time>
      </trkpt>
      <trkpt lat="43.60299" lon="2.00902">
        <ele>225.8</ele>
        <time>2020-03-11T10:24:01.000Z</time>
      </trkpt>
      <trkpt lat="43.60306" lon="2.00893">
        <ele>226.1</ele>
        <time>2020-03-11T10:24:07.000Z</time>
      </trkpt>
      <trkpt lat="43.60313" lon="2.00883">
        <ele>226.9</ele>
        <time>2020-03-11T10:24:15.000Z</time>
      </trkpt>
      <trkpt lat="43.60318" lon="2.0087">
        <ele>228</ele>
        <time>2020-03-11T10:24:25.000Z</time>
      </trkpt>
      <trkpt lat="43.60322" lon="2.00857">
        <ele>228.7</ele>
        <time>2020-03-11T10:24:33.000Z</time>
      </trkpt>
      <trkpt lat="43.60326" lon="2.00845">
        <ele>229.3</ele>
        <time>2020-03-11T10:24:41.000Z</time>
      </trkpt>
      <trkpt lat="43.6033" lon="2.00833">
        <ele>229.6</ele>
        <time>2020-03-11T10:24:49.000Z</time>
      </trkpt>
      <trkpt lat="43.60335" lon="2.00823">
        <ele>229.9</ele>
        <time>2020-03-11T10:24:58.000Z</time>
      </trkpt>
      <trkpt lat="43.60338" lon="2.0081">
        <ele>230</ele>
        <time>2020-03-11T10:25:05.000Z</time>
      </trkpt>
      <trkpt lat="43.60339" lon="2.00798">
        <ele>230.1</ele>
        <time>2020-03-11T10:25:14.000Z</time>
      </trkpt>
      <trkpt lat="43.60341" lon="2.00784">
        <ele>230.2</ele>
        <time>2020-03-11T10:25:23.000Z</time>
      </trkpt>
      <trkpt lat="43.60344" lon="2.00773">
        <ele>230.2</ele>
        <time>2020-03-11T10:25:30.000Z</time>
      </trkpt>
      <trkpt lat="43.60345" lon="2.00758">
        <ele>230.3</ele>
        <time>2020-03-11T10:25:37.000Z</time>
      </trkpt>
      <trkpt lat="43.60348" lon="2.00745">
        <ele>230.5</ele>
        <time>2020-03-11T10:25:46.000Z</time>
      </trkpt>
      <trkpt lat="43.60352" lon="2.00734">
        <ele>230.9</ele>
        <time>2020-03-11T10:25:55.000Z</time>
      </trkpt>
      <trkpt lat="43.60355" lon="2.00722">
        <ele>231.4</ele>
        <time>2020-03-11T10:26:03.000Z</time>
      </trkpt>
      <trkpt lat="43.60358" lon="2.00708">
        <ele>231.6</ele>
        <time>2020-03-11T10:26:09.000Z</time>
      </trkpt>
      <trkpt lat="43.60364" lon="2.00697">
        <ele>231.9</ele>
        <time>2020-03-11T10:26:16.000Z</time>
      </trkpt>
      <trkpt lat="43.60368" lon="2.00686">
        <ele>232.2</ele>
        <time>2020-03-11T10:26:24.000Z</time>
      </trkpt>
      <trkpt lat="43.60372" lon="2.00674">
        <ele>232.3</ele>
        <time>2020-03-11T10:26:31.000Z</time>
      </trkpt>
      <trkpt lat="43.60377" lon="2.00663">
        <ele>232.5</ele>
        <time>2020-03-11T10:26:40.000Z</time>
      </trkpt>
      <trkpt lat="43.60381" lon="2.00651">
        <ele>232.6</ele>
        <time>2020-03-11T10:26:49.000Z</time>
      </trkpt>
      <trkpt lat="43.60385" lon="2.00638">
        <ele>232.6</ele>
        <time>2020-03-11T10:26:59.000Z</time>
      </trkpt>
      <trkpt lat="43.60388" lon="2.00626">
        <ele>232.6</ele>
        <time>2020-03-11T10:27:10.000Z</time>
      </trkpt>
      <trkpt lat="43.60395" lon="2.00616">
        <ele>232.7</ele>
        <time>2020-03-11T10:27:20.000Z</time>
      </trkpt>
      <trkpt lat="43.60401" lon="2.00606">
        <ele>232.9</ele>
        <time>2020-03-11T10:27:27.000Z</time>
      </trkpt>
      <trkpt lat="43.60406" lon="2.00596">
        <ele>233.5</ele>
        <time>2020-03-11T10:27:37.000Z</time>
      </trkpt>
      <trkpt lat="43.60414" lon="2.00588">
        <ele>234.2</ele>
        <time>2020-03-11T10:27:47.000Z</time>
      </trkpt>
      <trkpt lat="43.60422" lon="2.00582">
        <ele>234.8</ele>
        <time>2020-03-11T10:27:56.000Z</time>
      </trkpt>
      <trkpt lat="43.6043" lon="2.00576">
        <ele>235.3</ele>
        <time>2020-03-11T10:28:04.000Z</time>
      </trkpt>
      <trkpt lat="43.6044" lon="2.00572">
        <ele>235.9</ele>
        <time>2020-03-11T10:28:12.000Z</time>
      </trkpt>
      <trkpt lat="43.60449" lon="2.00567">
        <ele>236.4</ele>
        <time>2020-03-11T10:28:20.000Z</time>
      </trkpt>
      <trkpt lat="43.60459" lon="2.00566">
        <ele>236.8</ele>
        <time>2020-03-11T10:28:28.000Z</time>
      </trkpt>
      <trkpt lat="43.60468" lon="2.00566">
        <ele>237.1</ele>
        <time>2020-03-11T10:28:36.000Z</time>
      </trkpt>
      <trkpt lat="43.60477" lon="2.00566">
        <ele>237.5</ele>
        <time>2020-03-11T10:28:44.000Z</time>
      </trkpt>
      <trkpt lat="43.60487" lon="2.00566">
        <ele>238.2</ele>
        <time>2020-03-11T10:28:56.000Z</time>
      </trkpt>
      <trkpt lat="43.60496" lon="2.0057">
        <ele>238.7</ele>
        <time>2020-03-11T10:29:04.000Z</time>
      </trkpt>
      <trkpt lat="43.60506" lon="2.00573">
        <ele>238.9</ele>
        <time>2020-03-11T10:29:10.000Z</time>
      </trkpt>
      <trkpt lat="43.60515" lon="2.00579">
        <ele>239.1</ele>
        <time>2020-03-11T10:29:17.000Z</time>
      </trkpt>
      <trkpt lat="43.60522" lon="2.00587">
        <ele>239.1</ele>
        <time>2020-03-11T10:29:24.000Z</time>
      </trkpt>
      <trkpt lat="43.60528" lon="2.00599">
        <ele>239.2</ele>
        <time>2020-03-11T10:29:31.000Z</time>
      </trkpt>
      <trkpt lat="43.60532" lon="2.00611">
        <ele>239.2</ele>
        <time>2020-03-11T10:29:39.000Z</time>
      </trkpt>
      <trkpt lat="43.60536" lon="2.00623">
        <ele>239.2</ele>
        <time>2020-03-11T10:29:47.000Z</time>
      </trkpt>
      <trkpt lat="43.60541" lon="2.00634">
        <ele>239.1</ele>
        <time>2020-03-11T10:29:55.000Z</time>
      </trkpt>
      <trkpt lat="43.60547" lon="2.00646">
        <ele>238.9</ele>
        <time>2020-03-11T10:30:04.000Z</time>
      </trkpt>
      <trkpt lat="43.60553" lon="2.00656">
        <ele>238.8</ele>
        <time>2020-03-11T10:30:14.000Z</time>
      </trkpt>
      <trkpt lat="43.6056" lon="2.00665">
        <ele>238.8</ele>
        <time>2020-03-11T10:30:24.000Z</time>
      </trkpt>
      <trkpt lat="43.60567" lon="2.00674">
        <ele>238.5</ele>
        <time>2020-03-11T10:30:34.000Z</time>
      </trkpt>
      <trkpt lat="43.60574" lon="2.00684">
        <ele>238</ele>
        <time>2020-03-11T10:30:43.000Z</time>
      </trkpt>
      <trkpt lat="43.60582" lon="2.0069">
        <ele>237.5</ele>
        <time>2020-03-11T10:30:51.000Z</time>
      </trkpt>
      <trkpt lat="43.60589" lon="2.00698">
        <ele>236.9</ele>
        <time>2020-03-11T10:31:00.000Z</time>
      </trkpt>
      <trkpt lat="43.60597" lon="2.00706">
        <ele>236</ele>
        <time>2020-03-11T10:31:09.000Z</time>
      </trkpt>
      <trkpt lat="43.60605" lon="2.00713">
        <ele>234.9</ele>
        <time>2020-03-11T10:31:18.000Z</time>
      </trkpt>
      <trkpt lat="43.60613" lon="2.00721">
        <ele>233.7</ele>
        <time>2020-03-11T10:31:26.000Z</time>
      </trkpt>
      <trkpt lat="43.60622" lon="2.00725">
        <ele>232.4</ele>
        <time>2020-03-11T10:31:34.000Z</time>
      </trkpt>
      <trkpt lat="43.60631" lon="2.00728">
        <ele>231.3</ele>
        <time>2020-03-11T10:31:41.000Z</time>
      </trkpt>
      <trkpt lat="43.60641" lon="2.00728">
        <ele>229.9</ele>
        <time>2020-03-11T10:31:48.000Z</time>
      </trkpt>
      <trkpt lat="43.60651" lon="2.00729">
        <ele>228.3</ele>
        <time>2020-03-11T10:31:57.000Z</time>
      </trkpt>
      <trkpt lat="43.6066" lon="2.00728">
        <ele>227.1</ele>
        <time>2020-03-11T10:32:06.000Z</time>
      </trkpt>
      <trkpt lat="43.6067" lon="2.00726">
        <ele>224.1</ele>
        <time>2020-03-11T10:33:57.000Z</time>
      </trkpt>
      <trkpt lat="43.60679" lon="2.00725">
        <ele>223.9</ele>
        <time>2020-03-11T10:34:05.000Z</time>
      </trkpt>
      <trkpt lat="43.60688" lon="2.00721">
        <ele>223.4</ele>
        <time>2020-03-11T10:34:13.000Z</time>
      </trkpt>
      <trkpt lat="43.60697" lon="2.00718">
        <ele>222.7</ele>
        <time>2020-03-11T10:34:20.000Z</time>
      </trkpt>
      <trkpt lat="43.60706" lon="2.00714">
        <ele>221.9</ele>
        <time>2020-03-11T10:34:27.000Z</time>
      </trkpt>
      <trkpt lat="43.60716" lon="2.00711">
        <ele>221.4</ele>
        <time>2020-03-11T10:34:34.000Z</time>
      </trkpt>
      <trkpt lat="43.60725" lon="2.00706">
        <ele>220.9</ele>
        <time>2020-03-11T10:34:42.000Z</time>
      </trkpt>
      <trkpt lat="43.60734" lon="2.00703">
        <ele>220.3</ele>
        <time>2020-03-11T10:34:50.000Z</time>
      </trkpt>
      <trkpt lat="43.60744" lon="2.00699">
        <ele>219.7</ele>
        <time>2020-03-11T10:34:58.000Z</time>
      </trkpt>
      <trkpt lat="43.60753" lon="2.00694">
        <ele>219.2</ele>
        <time>2020-03-11T10:35:06.000Z</time>
      </trkpt>
      <trkpt lat="43.60762" lon="2.00688">
        <ele>218.6</ele>
        <time>2020-03-11T10:35:14.000Z</time>
      </trkpt>
      <trkpt lat="43.6077" lon="2.00682">
        <ele>218</ele>
        <time>2020-03-11T10:35:21.000Z</time>
      </trkpt>
      <trkpt lat="43.60779" lon="2.00675">
        <ele>217.6</ele>
        <time>2020-03-11T10:35:28.000Z</time>
      </trkpt>
      <trkpt lat="43.60788" lon="2.00668">
        <ele>217.1</ele>
        <time>2020-03-11T10:35:36.000Z</time>
      </trkpt>
      <trkpt lat="43.60796" lon="2.00659">
        <ele>216.7</ele>
        <time>2020-03-11T10:35:43.000Z</time>
      </trkpt>
      <trkpt lat="43.60804" lon="2.00651">
        <ele>216.2</ele>
        <time>2020-03-11T10:35:51.000Z</time>
      </trkpt>
      <trkpt lat="43.60812" lon="2.00644">
        <ele>215.7</ele>
        <time>2020-03-11T10:35:59.000Z</time>
      </trkpt>
      <trkpt lat="43.6082" lon="2.00637">
        <ele>215.2</ele>
        <time>2020-03-11T10:36:06.000Z</time>
      </trkpt>
      <trkpt lat="43.60829" lon="2.0063">
        <ele>214.6</ele>
        <time>2020-03-11T10:36:13.000Z</time>
      </trkpt>
      <trkpt lat="43.60838" lon="2.00622">
        <ele>214.2</ele>
        <time>2020-03-11T10:36:20.000Z</time>
      </trkpt>
      <trkpt lat="43.60846" lon="2.00615">
        <ele>213.6</ele>
        <time>2020-03-11T10:36:29.000Z</time>
      </trkpt>
      <trkpt lat="43.60854" lon="2.00608">
        <ele>213.2</ele>
        <time>2020-03-11T10:36:37.000Z</time>
      </trkpt>
      <trkpt lat="43.60863" lon="2.00601">
        <ele>213</ele>
        <time>2020-03-11T10:36:46.000Z</time>
      </trkpt>
      <trkpt lat="43.6087" lon="2.00593">
        <ele>212.6</ele>
        <time>2020-03-11T10:36:55.000Z</time>
      </trkpt>
      <trkpt lat="43.6088" lon="2.00588">
        <ele>212</ele>
        <time>2020-03-11T10:37:04.000Z</time>
      </trkpt>
      <trkpt lat="43.60888" lon="2.00582">
        <ele>211.7</ele>
        <time>2020-03-11T10:37:12.000Z</time>
      </trkpt>
      <trkpt lat="43.60896" lon="2.00573">
        <ele>211.4</ele>
        <time>2020-03-11T10:37:23.000Z</time>
      </trkpt>
      <trkpt lat="43.60904" lon="2.00567">
        <ele>210.7</ele>
        <time>2020-03-11T10:37:32.000Z</time>
      </trkpt>
      <trkpt lat="43.60913" lon="2.0056">
        <ele>210.3</ele>
        <time>2020-03-11T10:37:39.000Z</time>
      </trkpt>
      <trkpt lat="43.60922" lon="2.00554">
        <ele>209.4</ele>
        <time>2020-03-11T10:37:46.000Z</time>
      </trkpt>
      <trkpt lat="43.6093" lon="2.00548">
        <ele>208.4</ele>
        <time>2020-03-11T10:37:54.000Z</time>
      </trkpt>
      <trkpt lat="43.60937" lon="2.00539">
        <ele>207.8</ele>
        <time>2020-03-11T10:38:01.000Z</time>
      </trkpt>
      <trkpt lat="43.60945" lon="2.00532">
        <ele>207.1</ele>
        <time>2020-03-11T10:38:08.000Z</time>
      </trkpt>
      <trkpt lat="43.60952" lon="2.00524">
        <ele>206.6</ele>
        <time>2020-03-11T10:38:14.000Z</time>
      </trkpt>
      <trkpt lat="43.60959" lon="2.00515">
        <ele>205.7</ele>
        <time>2020-03-11T10:38:22.000Z</time>
      </trkpt>
      <trkpt lat="43.60966" lon="2.00507">
        <ele>204.7</ele>
        <time>2020-03-11T10:38:29.000Z</time>
      </trkpt>
      <trkpt lat="43.60972" lon="2.00497">
        <ele>203.5</ele>
        <time>2020-03-11T10:38:37.000Z</time>
      </trkpt>
      <trkpt lat="43.6098" lon="2.00488">
        <ele>202.5</ele>
        <time>2020-03-11T10:38:44.000Z</time>
      </trkpt>
      <trkpt lat="43.60987" lon="2.0048">
        <ele>201.5</ele>
        <time>2020-03-11T10:38:51.000Z</time>
      </trkpt>
      <trkpt lat="43.60994" lon="2.0047">
        <ele>200.7</ele>
        <time>2020-03-11T10:38:58.000Z</time>
      </trkpt>
      <trkpt lat="43.61" lon="2.00461">
        <ele>200</ele>
        <time>2020-03-11T10:39:05.000Z</time>
      </trkpt>
      <trkpt lat="43.61008" lon="2.00454">
        <ele>199.5</ele>
        <time>2020-03-11T10:39:12.000Z</time>
      </trkpt>
      <trkpt lat="43.61016" lon="2.00448">
        <ele>199.1</ele>
        <time>2020-03-11T10:39:18.000Z</time>
      </trkpt>
      <trkpt lat="43.61025" lon="2.00442">
        <ele>198.6</ele>
        <time>2020-03-11T10:39:26.000Z</time>
      </trkpt>
      <trkpt lat="43.61033" lon="2.00439">
        <ele>198.2</ele>
        <time>2020-03-11T10:39:36.000Z</time>
      </trkpt>
      <trkpt lat="43.61043" lon="2.00435">
        <ele>198.1</ele>
        <time>2020-03-11T10:39:43.000Z</time>
      </trkpt>
      <trkpt lat="43.61053" lon="2.00431">
        <ele>197.9</ele>
        <time>2020-03-11T10:39:51.000Z</time>
      </trkpt>
      <trkpt lat="43.61063" lon="2.00428">
        <ele>197.7</ele>
        <time>2020-03-11T10:40:00.000Z</time>
      </trkpt>
      <trkpt lat="43.61072" lon="2.00423">
        <ele>197.5</ele>
        <time>2020-03-11T10:40:07.000Z</time>
      </trkpt>
      <trkpt lat="43.61082" lon="2.0042">
        <ele>197.4</ele>
        <time>2020-03-11T10:40:13.000Z</time>
      </trkpt>
      <trkpt lat="43.61091" lon="2.00416">
        <ele>197.2</ele>
        <time>2020-03-11T10:40:20.000Z</time>
      </trkpt>
      <trkpt lat="43.611" lon="2.00412">
        <ele>197</ele>
        <time>2020-03-11T10:40:27.000Z</time>
      </trkpt>
      <trkpt lat="43.61109" lon="2.00409">
        <ele>196.7</ele>
        <time>2020-03-11T10:40:34.000Z</time>
      </trkpt>
      <trkpt lat="43.61118" lon="2.00405">
        <ele>196.4</ele>
        <time>2020-03-11T10:40:41.000Z</time>
      </trkpt>
      <trkpt lat="43.61127" lon="2.00401">
        <ele>196</ele>
        <time>2020-03-11T10:40:48.000Z</time>
      </trkpt>
      <trkpt lat="43.61136" lon="2.00395">
        <ele>195.6</ele>
        <time>2020-03-11T10:40:57.000Z</time>
      </trkpt>
      <trkpt lat="43.61145" lon="2.00393">
        <ele>195.3</ele>
        <time>2020-03-11T10:41:12.000Z</time>
      </trkpt>
      <trkpt lat="43.61155" lon="2.00389">
        <ele>195.2</ele>
        <time>2020-03-11T10:41:21.000Z</time>
      </trkpt>
      <trkpt lat="43.61164" lon="2.00385">
        <ele>195.1</ele>
        <time>2020-03-11T10:41:30.000Z</time>
      </trkpt>
      <trkpt lat="43.61173" lon="2.00381">
        <ele>194.9</ele>
        <time>2020-03-11T10:41:37.000Z</time>
      </trkpt>
      <trkpt lat="43.61183" lon="2.00377">
        <ele>194.7</ele>
        <time>2020-03-11T10:41:45.000Z</time>
      </trkpt>
      <trkpt lat="43.61191" lon="2.00373">
        <ele>194.6</ele>
        <time>2020-03-11T10:41:52.000Z</time>
      </trkpt>
      <trkpt lat="43.612" lon="2.00369">
        <ele>194.6</ele>
        <time>2020-03-11T10:41:59.000Z</time>
      </trkpt>
      <trkpt lat="43.61209" lon="2.00366">
        <ele>194.5</ele>
        <time>2020-03-11T10:42:07.000Z</time>
      </trkpt>
      <trkpt lat="43.61219" lon="2.00362">
        <ele>194.5</ele>
        <time>2020-03-11T10:42:15.000Z</time>
      </trkpt>
      <trkpt lat="43.61228" lon="2.00358">
        <ele>194.5</ele>
        <time>2020-03-11T10:42:23.000Z</time>
      </trkpt>
      <trkpt lat="43.61237" lon="2.00354">
        <ele>194.3</ele>
        <time>2020-03-11T10:42:30.000Z</time>
      </trkpt>
      <trkpt lat="43.61246" lon="2.00349">
        <ele>194.1</ele>
        <time>2020-03-11T10:42:37.000Z</time>
      </trkpt>
      <trkpt lat="43.61255" lon="2.00346">
        <ele>193.9</ele>
        <time>2020-03-11T10:42:45.000Z</time>
      </trkpt>
      <trkpt lat="43.61264" lon="2.00342">
        <ele>193.7</ele>
        <time>2020-03-11T10:42:53.000Z</time>
      </trkpt>
      <trkpt lat="43.61274" lon="2.00339">
        <ele>193.4</ele>
        <time>2020-03-11T10:43:02.000Z</time>
      </trkpt>
      <trkpt lat="43.61284" lon="2.00337">
        <ele>192.9</ele>
        <time>2020-03-11T10:43:10.000Z</time>
      </trkpt>
      <trkpt lat="43.61293" lon="2.00334">
        <ele>192.6</ele>
        <time>2020-03-11T10:43:19.000Z</time>
      </trkpt>
      <trkpt lat="43.61302" lon="2.00329">
        <ele>192</ele>
        <time>2020-03-11T10:43:27.000Z</time>
      </trkpt>
      <trkpt lat="43.61311" lon="2.00327">
        <ele>191.2</ele>
        <time>2020-03-11T10:43:36.000Z</time>
      </trkpt>
      <trkpt lat="43.6132" lon="2.00324">
        <ele>190.8</ele>
        <time>2020-03-11T10:43:43.000Z</time>
      </trkpt>
      <trkpt lat="43.6133" lon="2.00323">
        <ele>190.5</ele>
        <time>2020-03-11T10:43:51.000Z</time>
      </trkpt>
      <trkpt lat="43.61339" lon="2.00317">
        <ele>189.7</ele>
        <time>2020-03-11T10:44:01.000Z</time>
      </trkpt>
      <trkpt lat="43.61349" lon="2.00313">
        <ele>189.4</ele>
        <time>2020-03-11T10:44:08.000Z</time>
      </trkpt>
      <trkpt lat="43.61358" lon="2.00308">
        <ele>189.1</ele>
        <time>2020-03-11T10:44:16.000Z</time>
      </trkpt>
      <trkpt lat="43.61366" lon="2.00301">
        <ele>189</ele>
        <time>2020-03-11T10:44:24.000Z</time>
      </trkpt>
      <trkpt lat="43.61372" lon="2.00291">
        <ele>189</ele>
        <time>2020-03-11T10:44:32.000Z</time>
      </trkpt>
      <trkpt lat="43.61379" lon="2.00282">
        <ele>189</ele>
        <time>2020-03-11T10:44:40.000Z</time>
      </trkpt>
      <trkpt lat="43.61385" lon="2.00272">
        <ele>189</ele>
        <time>2020-03-11T10:44:48.000Z</time>
      </trkpt>
      <trkpt lat="43.61392" lon="2.00263">
        <ele>189</ele>
        <time>2020-03-11T10:44:55.000Z</time>
      </trkpt>
      <trkpt lat="43.61398" lon="2.00253">
        <ele>189.1</ele>
        <time>2020-03-11T10:45:04.000Z</time>
      </trkpt>
      <trkpt lat="43.61403" lon="2.00242">
        <ele>189.2</ele>
        <time>2020-03-11T10:45:27.000Z</time>
      </trkpt>
      <trkpt lat="43.6141" lon="2.00233">
        <ele>189.4</ele>
        <time>2020-03-11T10:45:59.000Z</time>
      </trkpt>
      <trkpt lat="43.6141" lon="2.00246">
        <ele>188.9</ele>
        <time>2020-03-11T10:46:32.000Z</time>
      </trkpt>
      <trkpt lat="43.6141" lon="2.00259">
        <ele>188.2</ele>
        <time>2020-03-11T10:46:43.000Z</time>
      </trkpt>
      <trkpt lat="43.61408" lon="2.00272">
        <ele>187.4</ele>
        <time>2020-03-11T10:46:54.000Z</time>
      </trkpt>
      <trkpt lat="43.61405" lon="2.00285">
        <ele>186.9</ele>
        <time>2020-03-11T10:47:03.000Z</time>
      </trkpt>
      <trkpt lat="43.61403" lon="2.00297">
        <ele>186</ele>
        <time>2020-03-11T10:47:12.000Z</time>
      </trkpt>
      <trkpt lat="43.614" lon="2.0031">
        <ele>185</ele>
        <time>2020-03-11T10:47:22.000Z</time>
      </trkpt>
      <trkpt lat="43.61398" lon="2.00323">
        <ele>184.3</ele>
        <time>2020-03-11T10:47:30.000Z</time>
      </trkpt>
      <trkpt lat="43.61397" lon="2.00336">
        <ele>183.4</ele>
        <time>2020-03-11T10:47:37.000Z</time>
      </trkpt>
      <trkpt lat="43.61399" lon="2.0035">
        <ele>182.6</ele>
        <time>2020-03-11T10:47:45.000Z</time>
      </trkpt>
      <trkpt lat="43.61405" lon="2.0036">
        <ele>182</ele>
        <time>2020-03-11T10:47:52.000Z</time>
      </trkpt>
      <trkpt lat="43.61409" lon="2.00372">
        <ele>181.4</ele>
        <time>2020-03-11T10:47:59.000Z</time>
      </trkpt>
      <trkpt lat="43.61416" lon="2.00381">
        <ele>180.7</ele>
        <time>2020-03-11T10:48:06.000Z</time>
      </trkpt>
      <trkpt lat="43.61422" lon="2.0039">
        <ele>180.2</ele>
        <time>2020-03-11T10:48:13.000Z</time>
      </trkpt>
      <trkpt lat="43.61429" lon="2.00398">
        <ele>179.9</ele>
        <time>2020-03-11T10:48:20.000Z</time>
      </trkpt>
      <trkpt lat="43.61437" lon="2.00407">
        <ele>179.3</ele>
        <time>2020-03-11T10:48:28.000Z</time>
      </trkpt>
      <trkpt lat="43.61444" lon="2.00416">
        <ele>178.9</ele>
        <time>2020-03-11T10:48:36.000Z</time>
      </trkpt>
      <trkpt lat="43.61451" lon="2.00426">
        <ele>178.7</ele>
        <time>2020-03-11T10:48:45.000Z</time>
      </trkpt>
      <trkpt lat="43.61458" lon="2.00436">
        <ele>178.6</ele>
        <time>2020-03-11T10:48:54.000Z</time>
      </trkpt>
      <trkpt lat="43.61464" lon="2.00445">
        <ele>178.7</ele>
        <time>2020-03-11T10:49:03.000Z</time>
      </trkpt>
      <trkpt lat="43.6147" lon="2.00456">
        <ele>178.8</ele>
        <time>2020-03-11T10:49:12.000Z</time>
      </trkpt>
      <trkpt lat="43.61475" lon="2.00467">
        <ele>178.9</ele>
        <time>2020-03-11T10:49:23.000Z</time>
      </trkpt>
      <trkpt lat="43.61481" lon="2.00478">
        <ele>179</ele>
        <time>2020-03-11T10:49:36.000Z</time>
      </trkpt>
      <trkpt lat="43.61489" lon="2.00484">
        <ele>180</ele>
        <time>2020-03-11T10:52:25.000Z</time>
      </trkpt>
      <trkpt lat="43.61498" lon="2.00488">
        <ele>180.1</ele>
        <time>2020-03-11T10:52:32.000Z</time>
      </trkpt>
      <trkpt lat="43.61507" lon="2.00491">
        <ele>180.2</ele>
        <time>2020-03-11T10:52:39.000Z</time>
      </trkpt>
      <trkpt lat="43.61516" lon="2.0049">
        <ele>180.3</ele>
        <time>2020-03-11T10:52:46.000Z</time>
      </trkpt>
      <trkpt lat="43.61525" lon="2.00488">
        <ele>180.4</ele>
        <time>2020-03-11T10:52:54.000Z</time>
      </trkpt>
      <trkpt lat="43.61535" lon="2.00486">
        <ele>180.5</ele>
        <time>2020-03-11T10:53:02.000Z</time>
      </trkpt>
      <trkpt lat="43.61544" lon="2.00485">
        <ele>180.7</ele>
        <time>2020-03-11T10:53:09.000Z</time>
      </trkpt>
      <trkpt lat="43.61554" lon="2.00483">
        <ele>181</ele>
        <time>2020-03-11T10:53:17.000Z</time>
      </trkpt>
      <trkpt lat="43.61563" lon="2.00481">
        <ele>181.2</ele>
        <time>2020-03-11T10:53:24.000Z</time>
      </trkpt>
      <trkpt lat="43.61572" lon="2.00478">
        <ele>181.2</ele>
        <time>2020-03-11T10:53:30.000Z</time>
      </trkpt>
      <trkpt lat="43.61582" lon="2.00474">
        <ele>181.2</ele>
        <time>2020-03-11T10:53:37.000Z</time>
      </trkpt>
      <trkpt lat="43.61592" lon="2.00472">
        <ele>181.2</ele>
        <time>2020-03-11T10:53:45.000Z</time>
      </trkpt>
      <trkpt lat="43.61601" lon="2.00468">
        <ele>181.3</ele>
        <time>2020-03-11T10:53:53.000Z</time>
      </trkpt>
      <trkpt lat="43.61611" lon="2.00468">
        <ele>181.4</ele>
        <time>2020-03-11T10:54:01.000Z</time>
      </trkpt>
      <trkpt lat="43.6162" lon="2.00469">
        <ele>181.5</ele>
        <time>2020-03-11T10:54:10.000Z</time>
      </trkpt>
      <trkpt lat="43.61629" lon="2.00463">
        <ele>181.8</ele>
        <time>2020-03-11T10:54:18.000Z</time>
      </trkpt>
      <trkpt lat="43.61638" lon="2.00458">
        <ele>182.1</ele>
        <time>2020-03-11T10:54:27.000Z</time>
      </trkpt>
      <trkpt lat="43.61647" lon="2.00455">
        <ele>182.6</ele>
        <time>2020-03-11T10:54:43.000Z</time>
      </trkpt>
      <trkpt lat="43.61656" lon="2.00457">
        <ele>182.9</ele>
        <time>2020-03-11T10:54:55.000Z</time>
      </trkpt>
      <trkpt lat="43.61666" lon="2.0046">
        <ele>183.5</ele>
        <time>2020-03-11T10:55:06.000Z</time>
      </trkpt>
      <trkpt lat="43.61675" lon="2.00463">
        <ele>184.1</ele>
        <time>2020-03-11T10:55:16.000Z</time>
      </trkpt>
      <trkpt lat="43.61684" lon="2.00465">
        <ele>184.5</ele>
        <time>2020-03-11T10:55:23.000Z</time>
      </trkpt>
      <trkpt lat="43.61694" lon="2.00465">
        <ele>184.9</ele>
        <time>2020-03-11T10:55:31.000Z</time>
      </trkpt>
      <trkpt lat="43.61704" lon="2.00466">
        <ele>185.4</ele>
        <time>2020-03-11T10:55:39.000Z</time>
      </trkpt>
      <trkpt lat="43.61713" lon="2.00467">
        <ele>185.8</ele>
        <time>2020-03-11T10:55:47.000Z</time>
      </trkpt>
      <trkpt lat="43.61723" lon="2.00469">
        <ele>186.3</ele>
        <time>2020-03-11T10:55:56.000Z</time>
      </trkpt>
      <trkpt lat="43.61732" lon="2.00471">
        <ele>186.7</ele>
        <time>2020-03-11T10:56:04.000Z</time>
      </trkpt>
      <trkpt lat="43.61742" lon="2.00473">
        <ele>187.4</ele>
        <time>2020-03-11T10:56:15.000Z</time>
      </trkpt>
      <trkpt lat="43.61751" lon="2.00476">
        <ele>187.9</ele>
        <time>2020-03-11T10:56:27.000Z</time>
      </trkpt>
      <trkpt lat="43.61761" lon="2.00478">
        <ele>188.4</ele>
        <time>2020-03-11T10:56:36.000Z</time>
      </trkpt>
      <trkpt lat="43.6177" lon="2.0048">
        <ele>188.9</ele>
        <time>2020-03-11T10:56:46.000Z</time>
      </trkpt>
      <trkpt lat="43.61779" lon="2.00482">
        <ele>189.5</ele>
        <time>2020-03-11T10:56:56.000Z</time>
      </trkpt>
      <trkpt lat="43.61789" lon="2.00485">
        <ele>190.1</ele>
        <time>2020-03-11T10:57:04.000Z</time>
      </trkpt>
      <trkpt lat="43.61798" lon="2.00488">
        <ele>190.8</ele>
        <time>2020-03-11T10:57:13.000Z</time>
      </trkpt>
      <trkpt lat="43.61806" lon="2.00494">
        <ele>191.4</ele>
        <time>2020-03-11T10:57:21.000Z</time>
      </trkpt>
      <trkpt lat="43.61814" lon="2.00502">
        <ele>192.1</ele>
        <time>2020-03-11T10:57:30.000Z</time>
      </trkpt>
      <trkpt lat="43.61822" lon="2.0051">
        <ele>193</ele>
        <time>2020-03-11T10:57:42.000Z</time>
      </trkpt>
      <trkpt lat="43.61829" lon="2.00518">
        <ele>193.6</ele>
        <time>2020-03-11T10:57:51.000Z</time>
      </trkpt>
      <trkpt lat="43.61837" lon="2.00527">
        <ele>194.3</ele>
        <time>2020-03-11T10:58:02.000Z</time>
      </trkpt>
      <trkpt lat="43.61845" lon="2.00534">
        <ele>194.9</ele>
        <time>2020-03-11T10:58:11.000Z</time>
      </trkpt>
      <trkpt lat="43.61853" lon="2.00542">
        <ele>195.7</ele>
        <time>2020-03-11T10:58:21.000Z</time>
      </trkpt>
      <trkpt lat="43.6186" lon="2.00551">
        <ele>196.5</ele>
        <time>2020-03-11T10:58:33.000Z</time>
      </trkpt>
      <trkpt lat="43.61864" lon="2.00565">
        <ele>197.8</ele>
        <time>2020-03-11T10:59:06.000Z</time>
      </trkpt>
      <trkpt lat="43.61862" lon="2.00577">
        <ele>198.6</ele>
        <time>2020-03-11T10:59:23.000Z</time>
      </trkpt>
      <trkpt lat="43.61856" lon="2.00587">
        <ele>199.1</ele>
        <time>2020-03-11T10:59:35.000Z</time>
      </trkpt>
      <trkpt lat="43.6185" lon="2.00598">
        <ele>199.7</ele>
        <time>2020-03-11T10:59:47.000Z</time>
      </trkpt>
      <trkpt lat="43.61844" lon="2.00608">
        <ele>200.8</ele>
        <time>2020-03-11T11:00:03.000Z</time>
      </trkpt>
      <trkpt lat="43.61838" lon="2.00618">
        <ele>202</ele>
        <time>2020-03-11T11:00:17.000Z</time>
      </trkpt>
      <trkpt lat="43.61832" lon="2.00627">
        <ele>202.9</ele>
        <time>2020-03-11T11:00:29.000Z</time>
      </trkpt>
      <trkpt lat="43.61826" lon="2.00637">
        <ele>204</ele>
        <time>2020-03-11T11:00:43.000Z</time>
      </trkpt>
      <trkpt lat="43.61819" lon="2.00645">
        <ele>205.3</ele>
        <time>2020-03-11T11:00:57.000Z</time>
      </trkpt>
      <trkpt lat="43.61812" lon="2.00654">
        <ele>206.5</ele>
        <time>2020-03-11T11:01:10.000Z</time>
      </trkpt>
      <trkpt lat="43.61806" lon="2.00663">
        <ele>208.2</ele>
        <time>2020-03-11T11:01:26.000Z</time>
      </trkpt>
      <trkpt lat="43.618" lon="2.00672">
        <ele>209.7</ele>
        <time>2020-03-11T11:01:40.000Z</time>
      </trkpt>
      <trkpt lat="43.61793" lon="2.00681">
        <ele>210.7</ele>
        <time>2020-03-11T11:01:52.000Z</time>
      </trkpt>
      <trkpt lat="43.61787" lon="2.00691">
        <ele>212.1</ele>
        <time>2020-03-11T11:02:05.000Z</time>
      </trkpt>
      <trkpt lat="43.61781" lon="2.007">
        <ele>213.4</ele>
        <time>2020-03-11T11:02:18.000Z</time>
      </trkpt>
      <trkpt lat="43.61775" lon="2.0071">
        <ele>214.8</ele>
        <time>2020-03-11T11:02:32.000Z</time>
      </trkpt>
      <trkpt lat="43.61769" lon="2.0072">
        <ele>216.4</ele>
        <time>2020-03-11T11:02:50.000Z</time>
      </trkpt>
      <trkpt lat="43.61761" lon="2.00728">
        <ele>218.3</ele>
        <time>2020-03-11T11:03:08.000Z</time>
      </trkpt>
      <trkpt lat="43.61757" lon="2.00739">
        <ele>219.4</ele>
        <time>2020-03-11T11:03:23.000Z</time>
      </trkpt>
      <trkpt lat="43.61753" lon="2.00751">
        <ele>220.6</ele>
        <time>2020-03-11T11:03:36.000Z</time>
      </trkpt>
      <trkpt lat="43.61749" lon="2.00763">
        <ele>222.1</ele>
        <time>2020-03-11T11:03:49.000Z</time>
      </trkpt>
      <trkpt lat="43.61747" lon="2.00775">
        <ele>223.5</ele>
        <time>2020-03-11T11:04:01.000Z</time>
      </trkpt>
      <trkpt lat="43.61743" lon="2.00786">
        <ele>224.7</ele>
        <time>2020-03-11T11:04:11.000Z</time>
      </trkpt>
      <trkpt lat="43.61737" lon="2.00796">
        <ele>226</ele>
        <time>2020-03-11T11:04:21.000Z</time>
      </trkpt>
      <trkpt lat="43.61731" lon="2.00806">
        <ele>227.3</ele>
        <time>2020-03-11T11:04:33.000Z</time>
      </trkpt>
      <trkpt lat="43.61725" lon="2.00815">
        <ele>228.6</ele>
        <time>2020-03-11T11:04:47.000Z</time>
      </trkpt>
      <trkpt lat="43.61719" lon="2.00826">
        <ele>229.7</ele>
        <time>2020-03-11T11:05:00.000Z</time>
      </trkpt>
      <trkpt lat="43.61714" lon="2.00836">
        <ele>230.6</ele>
        <time>2020-03-11T11:05:12.000Z</time>
      </trkpt>
      <trkpt lat="43.61709" lon="2.00847">
        <ele>231.7</ele>
        <time>2020-03-11T11:05:24.000Z</time>
      </trkpt>
      <trkpt lat="43.61704" lon="2.00858">
        <ele>232.9</ele>
        <time>2020-03-11T11:05:37.000Z</time>
      </trkpt>
      <trkpt lat="43.61698" lon="2.00868">
        <ele>233.9</ele>
        <time>2020-03-11T11:05:50.000Z</time>
      </trkpt>
      <trkpt lat="43.61692" lon="2.00877">
        <ele>234.8</ele>
        <time>2020-03-11T11:06:03.000Z</time>
      </trkpt>
      <trkpt lat="43.61686" lon="2.00887">
        <ele>236.2</ele>
        <time>2020-03-11T11:06:16.000Z</time>
      </trkpt>
      <trkpt lat="43.61678" lon="2.00896">
        <ele>237.3</ele>
        <time>2020-03-11T11:06:28.000Z</time>
      </trkpt>
      <trkpt lat="43.61669" lon="2.00899">
        <ele>238.6</ele>
        <time>2020-03-11T11:06:40.000Z</time>
      </trkpt>
      <trkpt lat="43.6166" lon="2.00901">
        <ele>239.8</ele>
        <time>2020-03-11T11:06:52.000Z</time>
      </trkpt>
      <trkpt lat="43.61651" lon="2.009">
        <ele>241.5</ele>
        <time>2020-03-11T11:07:05.000Z</time>
      </trkpt>
      <trkpt lat="43.61642" lon="2.00898">
        <ele>243.5</ele>
        <time>2020-03-11T11:07:20.000Z</time>
      </trkpt>
      <trkpt lat="43.61633" lon="2.00904">
        <ele>249.7</ele>
        <time>2020-03-11T11:13:49.000Z</time>
      </trkpt>
      <trkpt lat="43.61627" lon="2.00914">
        <ele>250</ele>
        <time>2020-03-11T11:14:01.000Z</time>
      </trkpt>
      <trkpt lat="43.61621" lon="2.00924">
        <ele>250.1</ele>
        <time>2020-03-11T11:14:11.000Z</time>
      </trkpt>
      <trkpt lat="43.61615" lon="2.00935">
        <ele>250.2</ele>
        <time>2020-03-11T11:14:22.000Z</time>
      </trkpt>
      <trkpt lat="43.61609" lon="2.00946">
        <ele>250.2</ele>
        <time>2020-03-11T11:14:32.000Z</time>
      </trkpt>
      <trkpt lat="43.61603" lon="2.00956">
        <ele>250.4</ele>
        <time>2020-03-11T11:14:41.000Z</time>
      </trkpt>
      <trkpt lat="43.61598" lon="2.00967">
        <ele>250.9</ele>
        <time>2020-03-11T11:14:51.000Z</time>
      </trkpt>
      <trkpt lat="43.61592" lon="2.00978">
        <ele>251.5</ele>
        <time>2020-03-11T11:15:01.000Z</time>
      </trkpt>
      <trkpt lat="43.61587" lon="2.00989">
        <ele>251.8</ele>
        <time>2020-03-11T11:15:11.000Z</time>
      </trkpt>
      <trkpt lat="43.61581" lon="2.00999">
        <ele>252</ele>
        <time>2020-03-11T11:15:20.000Z</time>
      </trkpt>
      <trkpt lat="43.61576" lon="2.0101">
        <ele>252.3</ele>
        <time>2020-03-11T11:15:30.000Z</time>
      </trkpt>
      <trkpt lat="43.6157" lon="2.0102">
        <ele>252.5</ele>
        <time>2020-03-11T11:15:40.000Z</time>
      </trkpt>
      <trkpt lat="43.61566" lon="2.01031">
        <ele>252.7</ele>
        <time>2020-03-11T11:15:49.000Z</time>
      </trkpt>
      <trkpt lat="43.6156" lon="2.01041">
        <ele>253</ele>
        <time>2020-03-11T11:16:03.000Z</time>
      </trkpt>
      <trkpt lat="43.61555" lon="2.01052">
        <ele>253.1</ele>
        <time>2020-03-11T11:16:18.000Z</time>
      </trkpt>
      <trkpt lat="43.6155" lon="2.01063">
        <ele>253.2</ele>
        <time>2020-03-11T11:16:28.000Z</time>
      </trkpt>
      <trkpt lat="43.61545" lon="2.01074">
        <ele>253.9</ele>
        <time>2020-03-11T11:16:38.000Z</time>
      </trkpt>
      <trkpt lat="43.6154" lon="2.01084">
        <ele>254.6</ele>
        <time>2020-03-11T11:16:50.000Z</time>
      </trkpt>
      <trkpt lat="43.61536" lon="2.01096">
        <ele>255.2</ele>
        <time>2020-03-11T11:16:59.000Z</time>
      </trkpt>
      <trkpt lat="43.61531" lon="2.01108">
        <ele>256</ele>
        <time>2020-03-11T11:17:10.000Z</time>
      </trkpt>
      <trkpt lat="43.61527" lon="2.0112">
        <ele>256.6</ele>
        <time>2020-03-11T11:17:21.000Z</time>
      </trkpt>
      <trkpt lat="43.61523" lon="2.01132">
        <ele>257.1</ele>
        <time>2020-03-11T11:17:31.000Z</time>
      </trkpt>
      <trkpt lat="43.61518" lon="2.01143">
        <ele>257.7</ele>
        <time>2020-03-11T11:17:43.000Z</time>
      </trkpt>
      <trkpt lat="43.61514" lon="2.01154">
        <ele>258.2</ele>
        <time>2020-03-11T11:17:53.000Z</time>
      </trkpt>
      <trkpt lat="43.6151" lon="2.01166">
        <ele>258.6</ele>
        <time>2020-03-11T11:18:02.000Z</time>
      </trkpt>
      <trkpt lat="43.61504" lon="2.01177">
        <ele>258.9</ele>
        <time>2020-03-11T11:18:11.000Z</time>
      </trkpt>
      <trkpt lat="43.61499" lon="2.01187">
        <ele>259.3</ele>
        <time>2020-03-11T11:18:19.000Z</time>
      </trkpt>
      <trkpt lat="43.61494" lon="2.01199">
        <ele>259.5</ele>
        <time>2020-03-11T11:18:28.000Z</time>
      </trkpt>
      <trkpt lat="43.61488" lon="2.0121">
        <ele>259.7</ele>
        <time>2020-03-11T11:18:38.000Z</time>
      </trkpt>
      <trkpt lat="43.61483" lon="2.01222">
        <ele>259.8</ele>
        <time>2020-03-11T11:18:48.000Z</time>
      </trkpt>
      <trkpt lat="43.61478" lon="2.01234">
        <ele>259.8</ele>
        <time>2020-03-11T11:18:57.000Z</time>
      </trkpt>
      <trkpt lat="43.61476" lon="2.01247">
        <ele>259.8</ele>
        <time>2020-03-11T11:19:07.000Z</time>
      </trkpt>
      <trkpt lat="43.61473" lon="2.01259">
        <ele>259.9</ele>
        <time>2020-03-11T11:19:16.000Z</time>
      </trkpt>
      <trkpt lat="43.6147" lon="2.01272">
        <ele>259.9</ele>
        <time>2020-03-11T11:19:24.000Z</time>
      </trkpt>
      <trkpt lat="43.61468" lon="2.01285">
        <ele>260.1</ele>
        <time>2020-03-11T11:19:31.000Z</time>
      </trkpt>
      <trkpt lat="43.61466" lon="2.01298">
        <ele>260.3</ele>
        <time>2020-03-11T11:19:41.000Z</time>
      </trkpt>
      <trkpt lat="43.61464" lon="2.01311">
        <ele>260.5</ele>
        <time>2020-03-11T11:19:51.000Z</time>
      </trkpt>
      <trkpt lat="43.61462" lon="2.01324">
        <ele>260.7</ele>
        <time>2020-03-11T11:20:00.000Z</time>
      </trkpt>
      <trkpt lat="43.6146" lon="2.01338">
        <ele>260.8</ele>
        <time>2020-03-11T11:20:11.000Z</time>
      </trkpt>
      <trkpt lat="43.61459" lon="2.01351">
        <ele>261</ele>
        <time>2020-03-11T11:20:19.000Z</time>
      </trkpt>
      <trkpt lat="43.6146" lon="2.01364">
        <ele>261.2</ele>
        <time>2020-03-11T11:20:27.000Z</time>
      </trkpt>
      <trkpt lat="43.61464" lon="2.01377">
        <ele>261.5</ele>
        <time>2020-03-11T11:20:34.000Z</time>
      </trkpt>
      <trkpt lat="43.61465" lon="2.01389">
        <ele>261.9</ele>
        <time>2020-03-11T11:20:43.000Z</time>
      </trkpt>
      <trkpt lat="43.61466" lon="2.01402">
        <ele>262.3</ele>
        <time>2020-03-11T11:20:53.000Z</time>
      </trkpt>
      <trkpt lat="43.61466" lon="2.01415">
        <ele>262.6</ele>
        <time>2020-03-11T11:21:02.000Z</time>
      </trkpt>
      <trkpt lat="43.61465" lon="2.01428">
        <ele>263.2</ele>
        <time>2020-03-11T11:21:13.000Z</time>
      </trkpt>
      <trkpt lat="43.61465" lon="2.01442">
        <ele>263.5</ele>
        <time>2020-03-11T11:21:22.000Z</time>
      </trkpt>
      <trkpt lat="43.61466" lon="2.01454">
        <ele>263.8</ele>
        <time>2020-03-11T11:21:30.000Z</time>
      </trkpt>
      <trkpt lat="43.61465" lon="2.01467">
        <ele>264</ele>
        <time>2020-03-11T11:21:40.000Z</time>
      </trkpt>
      <trkpt lat="43.61465" lon="2.0148">
        <ele>264.2</ele>
        <time>2020-03-11T11:21:50.000Z</time>
      </trkpt>
      <trkpt lat="43.61464" lon="2.01493">
        <ele>264.3</ele>
        <time>2020-03-11T11:21:59.000Z</time>
      </trkpt>
      <trkpt lat="43.61463" lon="2.01507">
        <ele>264.5</ele>
        <time>2020-03-11T11:22:09.000Z</time>
      </trkpt>
      <trkpt lat="43.61462" lon="2.0152">
        <ele>264.6</ele>
        <time>2020-03-11T11:22:18.000Z</time>
      </trkpt>
      <trkpt lat="43.61461" lon="2.01532">
        <ele>265.1</ele>
        <time>2020-03-11T11:22:28.000Z</time>
      </trkpt>
      <trkpt lat="43.6146" lon="2.01545">
        <ele>265.4</ele>
        <time>2020-03-11T11:22:35.000Z</time>
      </trkpt>
      <trkpt lat="43.61459" lon="2.01558">
        <ele>266</ele>
        <time>2020-03-11T11:22:44.000Z</time>
      </trkpt>
      <trkpt lat="43.61459" lon="2.01572">
        <ele>266.5</ele>
        <time>2020-03-11T11:22:54.000Z</time>
      </trkpt>
      <trkpt lat="43.61461" lon="2.01584">
        <ele>266.9</ele>
        <time>2020-03-11T11:23:03.000Z</time>
      </trkpt>
      <trkpt lat="43.61461" lon="2.01597">
        <ele>267</ele>
        <time>2020-03-11T11:23:12.000Z</time>
      </trkpt>
      <trkpt lat="43.61463" lon="2.01611">
        <ele>267.1</ele>
        <time>2020-03-11T11:23:20.000Z</time>
      </trkpt>
      <trkpt lat="43.61466" lon="2.01623">
        <ele>267.2</ele>
        <time>2020-03-11T11:23:28.000Z</time>
      </trkpt>
      <trkpt lat="43.61471" lon="2.01634">
        <ele>267.2</ele>
        <time>2020-03-11T11:23:35.000Z</time>
      </trkpt>
      <trkpt lat="43.61476" lon="2.01646">
        <ele>267.3</ele>
        <time>2020-03-11T11:23:43.000Z</time>
      </trkpt>
      <trkpt lat="43.61484" lon="2.01653">
        <ele>267.5</ele>
        <time>2020-03-11T11:23:53.000Z</time>
      </trkpt>
      <trkpt lat="43.61493" lon="2.01654">
        <ele>267.8</ele>
        <time>2020-03-11T11:24:04.000Z</time>
      </trkpt>
      <trkpt lat="43.61502" lon="2.01658">
        <ele>268</ele>
        <time>2020-03-11T11:24:14.000Z</time>
      </trkpt>
      <trkpt lat="43.61511" lon="2.01663">
        <ele>268.2</ele>
        <time>2020-03-11T11:24:24.000Z</time>
      </trkpt>
      <trkpt lat="43.61519" lon="2.01669">
        <ele>268.6</ele>
        <time>2020-03-11T11:24:34.000Z</time>
      </trkpt>
      <trkpt lat="43.61523" lon="2.0168">
        <ele>269</ele>
        <time>2020-03-11T11:24:45.000Z</time>
      </trkpt>
      <trkpt lat="43.61521" lon="2.01693">
        <ele>269.5</ele>
        <time>2020-03-11T11:25:02.000Z</time>
      </trkpt>
      <trkpt lat="43.61517" lon="2.01705">
        <ele>269.7</ele>
        <time>2020-03-11T11:25:15.000Z</time>
      </trkpt>
      <trkpt lat="43.61513" lon="2.01718">
        <ele>270</ele>
        <time>2020-03-11T11:25:25.000Z</time>
      </trkpt>
      <trkpt lat="43.61508" lon="2.01729">
        <ele>270.2</ele>
        <time>2020-03-11T11:25:35.000Z</time>
      </trkpt>
      <trkpt lat="43.61502" lon="2.0174">
        <ele>270.3</ele>
        <time>2020-03-11T11:25:46.000Z</time>
      </trkpt>
      <trkpt lat="43.61497" lon="2.0175">
        <ele>270.3</ele>
        <time>2020-03-11T11:25:57.000Z</time>
      </trkpt>
      <trkpt lat="43.61489" lon="2.01759">
        <ele>270.3</ele>
        <time>2020-03-11T11:26:07.000Z</time>
      </trkpt>
      <trkpt lat="43.61483" lon="2.01768">
        <ele>270.4</ele>
        <time>2020-03-11T11:26:17.000Z</time>
      </trkpt>
      <trkpt lat="43.61477" lon="2.01778">
        <ele>270.4</ele>
        <time>2020-03-11T11:26:28.000Z</time>
      </trkpt>
      <trkpt lat="43.6147" lon="2.01786">
        <ele>270.5</ele>
        <time>2020-03-11T11:26:39.000Z</time>
      </trkpt>
      <trkpt lat="43.61462" lon="2.01794">
        <ele>270.5</ele>
        <time>2020-03-11T11:26:48.000Z</time>
      </trkpt>
      <trkpt lat="43.61455" lon="2.01802">
        <ele>270.8</ele>
        <time>2020-03-11T11:26:58.000Z</time>
      </trkpt>
      <trkpt lat="43.61448" lon="2.01809">
        <ele>271</ele>
        <time>2020-03-11T11:27:08.000Z</time>
      </trkpt>
      <trkpt lat="43.61441" lon="2.01818">
        <ele>271</ele>
        <time>2020-03-11T11:27:18.000Z</time>
      </trkpt>
      <trkpt lat="43.61433" lon="2.01826">
        <ele>271.1</ele>
        <time>2020-03-11T11:27:28.000Z</time>
      </trkpt>
      <trkpt lat="43.61425" lon="2.01833">
        <ele>271.3</ele>
        <time>2020-03-11T11:27:38.000Z</time>
      </trkpt>
      <trkpt lat="43.61419" lon="2.01842">
        <ele>271.6</ele>
        <time>2020-03-11T11:27:50.000Z</time>
      </trkpt>
      <trkpt lat="43.61411" lon="2.01851">
        <ele>271.7</ele>
        <time>2020-03-11T11:28:02.000Z</time>
      </trkpt>
      <trkpt lat="43.61403" lon="2.01859">
        <ele>271.8</ele>
        <time>2020-03-11T11:28:13.000Z</time>
      </trkpt>
      <trkpt lat="43.61398" lon="2.0187">
        <ele>271.8</ele>
        <time>2020-03-11T11:28:22.000Z</time>
      </trkpt>
      <trkpt lat="43.61392" lon="2.0188">
        <ele>271.8</ele>
        <time>2020-03-11T11:28:30.000Z</time>
      </trkpt>
      <trkpt lat="43.61386" lon="2.01891">
        <ele>271.8</ele>
        <time>2020-03-11T11:28:38.000Z</time>
      </trkpt>
      <trkpt lat="43.6138" lon="2.01901">
        <ele>271.8</ele>
        <time>2020-03-11T11:28:47.000Z</time>
      </trkpt>
      <trkpt lat="43.61374" lon="2.01912">
        <ele>271.8</ele>
        <time>2020-03-11T11:28:56.000Z</time>
      </trkpt>
      <trkpt lat="43.61369" lon="2.01923">
        <ele>271.8</ele>
        <time>2020-03-11T11:29:06.000Z</time>
      </trkpt>
      <trkpt lat="43.61363" lon="2.01933">
        <ele>271.8</ele>
        <time>2020-03-11T11:29:16.000Z</time>
      </trkpt>
      <trkpt lat="43.61357" lon="2.01943">
        <ele>271.8</ele>
        <time>2020-03-11T11:29:26.000Z</time>
      </trkpt>
      <trkpt lat="43.61351" lon="2.01954">
        <ele>271.6</ele>
        <time>2020-03-11T11:29:35.000Z</time>
      </trkpt>
      <trkpt lat="43.61347" lon="2.01966">
        <ele>271.5</ele>
        <time>2020-03-11T11:29:43.000Z</time>
      </trkpt>
      <trkpt lat="43.61341" lon="2.01978">
        <ele>271.7</ele>
        <time>2020-03-11T11:29:52.000Z</time>
      </trkpt>
      <trkpt lat="43.61335" lon="2.01989">
        <ele>271.9</ele>
        <time>2020-03-11T11:30:01.000Z</time>
      </trkpt>
      <trkpt lat="43.61329" lon="2.02">
        <ele>272</ele>
        <time>2020-03-11T11:30:10.000Z</time>
      </trkpt>
      <trkpt lat="43.61324" lon="2.0201">
        <ele>272.1</ele>
        <time>2020-03-11T11:30:18.000Z</time>
      </trkpt>
      <trkpt lat="43.61318" lon="2.02021">
        <ele>272.1</ele>
        <time>2020-03-11T11:30:27.000Z</time>
      </trkpt>
      <trkpt lat="43.61313" lon="2.02032">
        <ele>272.3</ele>
        <time>2020-03-11T11:30:37.000Z</time>
      </trkpt>
      <trkpt lat="43.61308" lon="2.02043">
        <ele>272.5</ele>
        <time>2020-03-11T11:30:46.000Z</time>
      </trkpt>
      <trkpt lat="43.61302" lon="2.02054">
        <ele>272.6</ele>
        <time>2020-03-11T11:30:54.000Z</time>
      </trkpt>
      <trkpt lat="43.61296" lon="2.02064">
        <ele>272.7</ele>
        <time>2020-03-11T11:31:03.000Z</time>
      </trkpt>
      <trkpt lat="43.61292" lon="2.02076">
        <ele>273</ele>
        <time>2020-03-11T11:31:12.000Z</time>
      </trkpt>
      <trkpt lat="43.61289" lon="2.02088">
        <ele>273.3</ele>
        <time>2020-03-11T11:31:20.000Z</time>
      </trkpt>
      <trkpt lat="43.61283" lon="2.02099">
        <ele>273.8</ele>
        <time>2020-03-11T11:31:29.000Z</time>
      </trkpt>
      <trkpt lat="43.61278" lon="2.02109">
        <ele>274.5</ele>
        <time>2020-03-11T11:31:39.000Z</time>
      </trkpt>
      <trkpt lat="43.61272" lon="2.0212">
        <ele>275</ele>
        <time>2020-03-11T11:31:48.000Z</time>
      </trkpt>
      <trkpt lat="43.61267" lon="2.02131">
        <ele>275.4</ele>
        <time>2020-03-11T11:31:57.000Z</time>
      </trkpt>
      <trkpt lat="43.61262" lon="2.02143">
        <ele>276.1</ele>
        <time>2020-03-11T11:32:06.000Z</time>
      </trkpt>
      <trkpt lat="43.61257" lon="2.02154">
        <ele>276.8</ele>
        <time>2020-03-11T11:32:15.000Z</time>
      </trkpt>
      <trkpt lat="43.61252" lon="2.02164">
        <ele>277.4</ele>
        <time>2020-03-11T11:32:24.000Z</time>
      </trkpt>
      <trkpt lat="43.61247" lon="2.02175">
        <ele>277.9</ele>
        <time>2020-03-11T11:32:33.000Z</time>
      </trkpt>
      <trkpt lat="43.61242" lon="2.02186">
        <ele>278.2</ele>
        <time>2020-03-11T11:32:42.000Z</time>
      </trkpt>
      <trkpt lat="43.61235" lon="2.02196">
        <ele>278.4</ele>
        <time>2020-03-11T11:32:50.000Z</time>
      </trkpt>
      <trkpt lat="43.61229" lon="2.02205">
        <ele>278.5</ele>
        <time>2020-03-11T11:32:59.000Z</time>
      </trkpt>
      <trkpt lat="43.61221" lon="2.02214">
        <ele>278.6</ele>
        <time>2020-03-11T11:33:09.000Z</time>
      </trkpt>
      <trkpt lat="43.61214" lon="2.02223">
        <ele>278.6</ele>
        <time>2020-03-11T11:33:19.000Z</time>
      </trkpt>
      <trkpt lat="43.61207" lon="2.02232">
        <ele>278.5</ele>
        <time>2020-03-11T11:33:28.000Z</time>
      </trkpt>
      <trkpt lat="43.61199" lon="2.0224">
        <ele>278.4</ele>
        <time>2020-03-11T11:33:36.000Z</time>
      </trkpt>
      <trkpt lat="43.61192" lon="2.02248">
        <ele>278.4</ele>
        <time>2020-03-11T11:33:44.000Z</time>
      </trkpt>
      <trkpt lat="43.61186" lon="2.02258">
        <ele>278.3</ele>
        <time>2020-03-11T11:33:53.000Z</time>
      </trkpt>
      <trkpt lat="43.61179" lon="2.02269">
        <ele>278.2</ele>
        <time>2020-03-11T11:34:02.000Z</time>
      </trkpt>
      <trkpt lat="43.61174" lon="2.02279">
        <ele>278.1</ele>
        <time>2020-03-11T11:34:11.000Z</time>
      </trkpt>
      <trkpt lat="43.61168" lon="2.02288">
        <ele>278.1</ele>
        <time>2020-03-11T11:34:20.000Z</time>
      </trkpt>
      <trkpt lat="43.61161" lon="2.02297">
        <ele>278.2</ele>
        <time>2020-03-11T11:34:28.000Z</time>
      </trkpt>
      <trkpt lat="43.61154" lon="2.02305">
        <ele>278.3</ele>
        <time>2020-03-11T11:34:37.000Z</time>
      </trkpt>
      <trkpt lat="43.61145" lon="2.02313">
        <ele>278.4</ele>
        <time>2020-03-11T11:34:45.000Z</time>
      </trkpt>
      <trkpt lat="43.61137" lon="2.02321">
        <ele>278.7</ele>
        <time>2020-03-11T11:34:55.000Z</time>
      </trkpt>
      <trkpt lat="43.61129" lon="2.02327">
        <ele>279</ele>
        <time>2020-03-11T11:35:05.000Z</time>
      </trkpt>
      <trkpt lat="43.61121" lon="2.02334">
        <ele>279.2</ele>
        <time>2020-03-11T11:35:15.000Z</time>
      </trkpt>
      <trkpt lat="43.61113" lon="2.0234">
        <ele>279.7</ele>
        <time>2020-03-11T11:35:23.000Z</time>
      </trkpt>
      <trkpt lat="43.61104" lon="2.02346">
        <ele>280.1</ele>
        <time>2020-03-11T11:35:32.000Z</time>
      </trkpt>
      <trkpt lat="43.61096" lon="2.02353">
        <ele>280.2</ele>
        <time>2020-03-11T11:35:40.000Z</time>
      </trkpt>
      <trkpt lat="43.61087" lon="2.0236">
        <ele>280.3</ele>
        <time>2020-03-11T11:35:47.000Z</time>
      </trkpt>
      <trkpt lat="43.61079" lon="2.02366">
        <ele>280.4</ele>
        <time>2020-03-11T11:35:54.000Z</time>
      </trkpt>
      <trkpt lat="43.6107" lon="2.02373">
        <ele>280.4</ele>
        <time>2020-03-11T11:36:02.000Z</time>
      </trkpt>
      <trkpt lat="43.61062" lon="2.0238">
        <ele>280.4</ele>
        <time>2020-03-11T11:36:11.000Z</time>
      </trkpt>
      <trkpt lat="43.61053" lon="2.02386">
        <ele>280.4</ele>
        <time>2020-03-11T11:36:20.000Z</time>
      </trkpt>
      <trkpt lat="43.61044" lon="2.0239">
        <ele>280.3</ele>
        <time>2020-03-11T11:36:30.000Z</time>
      </trkpt>
      <trkpt lat="43.61036" lon="2.02398">
        <ele>280.4</ele>
        <time>2020-03-11T11:36:40.000Z</time>
      </trkpt>
      <trkpt lat="43.61027" lon="2.02405">
        <ele>280.6</ele>
        <time>2020-03-11T11:36:48.000Z</time>
      </trkpt>
      <trkpt lat="43.6102" lon="2.02413">
        <ele>280.7</ele>
        <time>2020-03-11T11:36:56.000Z</time>
      </trkpt>
      <trkpt lat="43.61015" lon="2.02424">
        <ele>280.9</ele>
        <time>2020-03-11T11:37:04.000Z</time>
      </trkpt>
      <trkpt lat="43.61011" lon="2.02436">
        <ele>281</ele>
        <time>2020-03-11T11:37:14.000Z</time>
      </trkpt>
      <trkpt lat="43.61007" lon="2.02448">
        <ele>281.1</ele>
        <time>2020-03-11T11:37:23.000Z</time>
      </trkpt>
      <trkpt lat="43.61004" lon="2.02459">
        <ele>281</ele>
        <time>2020-03-11T11:37:31.000Z</time>
      </trkpt>
      <trkpt lat="43.61" lon="2.02471">
        <ele>280.8</ele>
        <time>2020-03-11T11:37:40.000Z</time>
      </trkpt>
      <trkpt lat="43.60996" lon="2.02483">
        <ele>280.6</ele>
        <time>2020-03-11T11:37:48.000Z</time>
      </trkpt>
      <trkpt lat="43.60991" lon="2.02495">
        <ele>280.4</ele>
        <time>2020-03-11T11:37:56.000Z</time>
      </trkpt>
      <trkpt lat="43.60986" lon="2.02507">
        <ele>280.2</ele>
        <time>2020-03-11T11:38:05.000Z</time>
      </trkpt>
      <trkpt lat="43.60982" lon="2.02519">
        <ele>279.9</ele>
        <time>2020-03-11T11:38:13.000Z</time>
      </trkpt>
      <trkpt lat="43.60978" lon="2.0253">
        <ele>279.7</ele>
        <time>2020-03-11T11:38:21.000Z</time>
      </trkpt>
      <trkpt lat="43.60973" lon="2.02542">
        <ele>279.4</ele>
        <time>2020-03-11T11:38:30.000Z</time>
      </trkpt>
      <trkpt lat="43.60968" lon="2.02553">
        <ele>279.2</ele>
        <time>2020-03-11T11:38:38.000Z</time>
      </trkpt>
      <trkpt lat="43.60964" lon="2.02565">
        <ele>279</ele>
        <time>2020-03-11T11:38:46.000Z</time>
      </trkpt>
      <trkpt lat="43.60958" lon="2.02577">
        <ele>278.8</ele>
        <time>2020-03-11T11:38:55.000Z</time>
      </trkpt>
      <trkpt lat="43.60953" lon="2.02587">
        <ele>278.7</ele>
        <time>2020-03-11T11:39:04.000Z</time>
      </trkpt>
      <trkpt lat="43.60948" lon="2.02598">
        <ele>278.6</ele>
        <time>2020-03-11T11:39:13.000Z</time>
      </trkpt>
      <trkpt lat="43.60943" lon="2.0261">
        <ele>278.5</ele>
        <time>2020-03-11T11:39:21.000Z</time>
      </trkpt>
      <trkpt lat="43.60938" lon="2.02621">
        <ele>278.4</ele>
        <time>2020-03-11T11:39:29.000Z</time>
      </trkpt>
      <trkpt lat="43.60933" lon="2.02631">
        <ele>278.3</ele>
        <time>2020-03-11T11:39:37.000Z</time>
      </trkpt>
      <trkpt lat="43.60928" lon="2.02643">
        <ele>278.2</ele>
        <time>2020-03-11T11:39:45.000Z</time>
      </trkpt>
      <trkpt lat="43.60923" lon="2.02653">
        <ele>278.2</ele>
        <time>2020-03-11T11:39:53.000Z</time>
      </trkpt>
      <trkpt lat="43.60918" lon="2.02665">
        <ele>278.1</ele>
        <time>2020-03-11T11:40:01.000Z</time>
      </trkpt>
      <trkpt lat="43.60913" lon="2.02676">
        <ele>277.9</ele>
        <time>2020-03-11T11:40:09.000Z</time>
      </trkpt>
      <trkpt lat="43.60907" lon="2.02687">
        <ele>277.8</ele>
        <time>2020-03-11T11:40:18.000Z</time>
      </trkpt>
      <trkpt lat="43.60901" lon="2.02699">
        <ele>277.7</ele>
        <time>2020-03-11T11:40:26.000Z</time>
      </trkpt>
      <trkpt lat="43.60894" lon="2.02708">
        <ele>277.6</ele>
        <time>2020-03-11T11:40:35.000Z</time>
      </trkpt>
      <trkpt lat="43.60887" lon="2.02717">
        <ele>277.5</ele>
        <time>2020-03-11T11:40:43.000Z</time>
      </trkpt>
      <trkpt lat="43.6088" lon="2.02726">
        <ele>277.4</ele>
        <time>2020-03-11T11:40:51.000Z</time>
      </trkpt>
      <trkpt lat="43.60873" lon="2.02733">
        <ele>277.3</ele>
        <time>2020-03-11T11:41:01.000Z</time>
      </trkpt>
      <trkpt lat="43.60866" lon="2.02743">
        <ele>277.4</ele>
        <time>2020-03-11T11:41:10.000Z</time>
      </trkpt>
      <trkpt lat="43.60859" lon="2.02752">
        <ele>277.8</ele>
        <time>2020-03-11T11:41:18.000Z</time>
      </trkpt>
      <trkpt lat="43.60852" lon="2.02761">
        <ele>278.1</ele>
        <time>2020-03-11T11:41:26.000Z</time>
      </trkpt>
      <trkpt lat="43.60845" lon="2.02769">
        <ele>278.2</ele>
        <time>2020-03-11T11:41:35.000Z</time>
      </trkpt>
      <trkpt lat="43.60839" lon="2.02779">
        <ele>278.2</ele>
        <time>2020-03-11T11:41:44.000Z</time>
      </trkpt>
      <trkpt lat="43.60833" lon="2.02788">
        <ele>278.1</ele>
        <time>2020-03-11T11:41:54.000Z</time>
      </trkpt>
      <trkpt lat="43.60825" lon="2.02796">
        <ele>278.1</ele>
        <time>2020-03-11T11:42:03.000Z</time>
      </trkpt>
      <trkpt lat="43.60816" lon="2.02801">
        <ele>278</ele>
        <time>2020-03-11T11:42:13.000Z</time>
      </trkpt>
      <trkpt lat="43.60807" lon="2.02802">
        <ele>278.2</ele>
        <time>2020-03-11T11:42:24.000Z</time>
      </trkpt>
      <trkpt lat="43.60798" lon="2.02801">
        <ele>278.6</ele>
        <time>2020-03-11T11:42:34.000Z</time>
      </trkpt>
      <trkpt lat="43.60788" lon="2.02799">
        <ele>278.9</ele>
        <time>2020-03-11T11:42:46.000Z</time>
      </trkpt>
      <trkpt lat="43.60779" lon="2.02793">
        <ele>279</ele>
        <time>2020-03-11T11:42:55.000Z</time>
      </trkpt>
      <trkpt lat="43.6077" lon="2.02786">
        <ele>279.1</ele>
        <time>2020-03-11T11:43:04.000Z</time>
      </trkpt>
      <trkpt lat="43.60763" lon="2.02778">
        <ele>278.9</ele>
        <time>2020-03-11T11:43:12.000Z</time>
      </trkpt>
      <trkpt lat="43.60756" lon="2.0277">
        <ele>278.5</ele>
        <time>2020-03-11T11:43:20.000Z</time>
      </trkpt>
      <trkpt lat="43.60748" lon="2.02763">
        <ele>278.1</ele>
        <time>2020-03-11T11:43:28.000Z</time>
      </trkpt>
      <trkpt lat="43.60741" lon="2.02753">
        <ele>277.9</ele>
        <time>2020-03-11T11:43:37.000Z</time>
      </trkpt>
      <trkpt lat="43.60733" lon="2.02746">
        <ele>277.7</ele>
        <time>2020-03-11T11:43:45.000Z</time>
      </trkpt>
      <trkpt lat="43.60727" lon="2.02736">
        <ele>277.6</ele>
        <time>2020-03-11T11:43:58.000Z</time>
      </trkpt>
      <trkpt lat="43.60721" lon="2.02726">
        <ele>277.3</ele>
        <time>2020-03-11T11:44:21.000Z</time>
      </trkpt>
      <trkpt lat="43.60714" lon="2.02718">
        <ele>277.2</ele>
        <time>2020-03-11T11:44:30.000Z</time>
      </trkpt>
      <trkpt lat="43.60706" lon="2.02711">
        <ele>277.1</ele>
        <time>2020-03-11T11:44:41.000Z</time>
      </trkpt>
      <trkpt lat="43.607" lon="2.02699">
        <ele>277.1</ele>
        <time>2020-03-11T11:44:50.000Z</time>
      </trkpt>
      <trkpt lat="43.60695" lon="2.02688">
        <ele>277</ele>
        <time>2020-03-11T11:44:58.000Z</time>
      </trkpt>
      <trkpt lat="43.60688" lon="2.02681">
        <ele>276.9</ele>
        <time>2020-03-11T11:45:05.000Z</time>
      </trkpt>
      <trkpt lat="43.60681" lon="2.02672">
        <ele>276.8</ele>
        <time>2020-03-11T11:45:13.000Z</time>
      </trkpt>
      <trkpt lat="43.60675" lon="2.02663">
        <ele>276.7</ele>
        <time>2020-03-11T11:45:24.000Z</time>
      </trkpt>
      <trkpt lat="43.60666" lon="2.02661">
        <ele>276.6</ele>
        <time>2020-03-11T11:45:34.000Z</time>
      </trkpt>
      <trkpt lat="43.60657" lon="2.02661">
        <ele>276.6</ele>
        <time>2020-03-11T11:46:02.000Z</time>
      </trkpt>
      <trkpt lat="43.60643" lon="2.02655">
        <ele>272.6</ele>
        <time>2020-03-11T12:19:24.000Z</time>
      </trkpt>
      <trkpt lat="43.60635" lon="2.02661">
        <ele>273.3</ele>
        <time>2020-03-11T12:23:35.000Z</time>
      </trkpt>
      <trkpt lat="43.60627" lon="2.02668">
        <ele>273.3</ele>
        <time>2020-03-11T12:23:54.000Z</time>
      </trkpt>
      <trkpt lat="43.6062" lon="2.02678">
        <ele>273.3</ele>
        <time>2020-03-11T12:24:01.000Z</time>
      </trkpt>
      <trkpt lat="43.60612" lon="2.02687">
        <ele>273.4</ele>
        <time>2020-03-11T12:24:09.000Z</time>
      </trkpt>
      <trkpt lat="43.60604" lon="2.02693">
        <ele>273.4</ele>
        <time>2020-03-11T12:24:17.000Z</time>
      </trkpt>
      <trkpt lat="43.60596" lon="2.02701">
        <ele>273.4</ele>
        <time>2020-03-11T12:24:25.000Z</time>
      </trkpt>
      <trkpt lat="43.6059" lon="2.02711">
        <ele>273.4</ele>
        <time>2020-03-11T12:24:33.000Z</time>
      </trkpt>
      <trkpt lat="43.60585" lon="2.02722">
        <ele>273.4</ele>
        <time>2020-03-11T12:24:41.000Z</time>
      </trkpt>
      <trkpt lat="43.60582" lon="2.02735">
        <ele>273.4</ele>
        <time>2020-03-11T12:24:50.000Z</time>
      </trkpt>
      <trkpt lat="43.60583" lon="2.02748">
        <ele>273.3</ele>
        <time>2020-03-11T12:25:00.000Z</time>
      </trkpt>
      <trkpt lat="43.60582" lon="2.02761">
        <ele>273.2</ele>
        <time>2020-03-11T12:25:08.000Z</time>
      </trkpt>
      <trkpt lat="43.60589" lon="2.02771">
        <ele>273.2</ele>
        <time>2020-03-11T12:25:18.000Z</time>
      </trkpt>
      <trkpt lat="43.60597" lon="2.02776">
        <ele>273.3</ele>
        <time>2020-03-11T12:25:26.000Z</time>
      </trkpt>
      <trkpt lat="43.60608" lon="2.02788">
        <ele>274</ele>
        <time>2020-03-11T12:26:00.000Z</time>
      </trkpt>
      <trkpt lat="43.60617" lon="2.02788">
        <ele>275.7</ele>
        <time>2020-03-11T12:32:47.000Z</time>
      </trkpt>
      <trkpt lat="43.60626" lon="2.02792">
        <ele>275.7</ele>
        <time>2020-03-11T12:33:00.000Z</time>
      </trkpt>
      <trkpt lat="43.60634" lon="2.02797">
        <ele>275.7</ele>
        <time>2020-03-11T12:33:12.000Z</time>
      </trkpt>
      <trkpt lat="43.60643" lon="2.02803">
        <ele>275.7</ele>
        <time>2020-03-11T12:33:22.000Z</time>
      </trkpt>
      <trkpt lat="43.60651" lon="2.02809">
        <ele>275.7</ele>
        <time>2020-03-11T12:33:32.000Z</time>
      </trkpt>
      <trkpt lat="43.60659" lon="2.02817">
        <ele>275.7</ele>
        <time>2020-03-11T12:33:41.000Z</time>
      </trkpt>
      <trkpt lat="43.60667" lon="2.02824">
        <ele>275.8</ele>
        <time>2020-03-11T12:33:49.000Z</time>
      </trkpt>
      <trkpt lat="43.60675" lon="2.02831">
        <ele>275.9</ele>
        <time>2020-03-11T12:33:57.000Z</time>
      </trkpt>
      <trkpt lat="43.60682" lon="2.02839">
        <ele>275.9</ele>
        <time>2020-03-11T12:34:05.000Z</time>
      </trkpt>
      <trkpt lat="43.6069" lon="2.02847">
        <ele>276</ele>
        <time>2020-03-11T12:34:13.000Z</time>
      </trkpt>
      <trkpt lat="43.60697" lon="2.02855">
        <ele>276</ele>
        <time>2020-03-11T12:34:21.000Z</time>
      </trkpt>
      <trkpt lat="43.60706" lon="2.02863">
        <ele>276.1</ele>
        <time>2020-03-11T12:34:30.000Z</time>
      </trkpt>
      <trkpt lat="43.60712" lon="2.02872">
        <ele>276.3</ele>
        <time>2020-03-11T12:34:38.000Z</time>
      </trkpt>
      <trkpt lat="43.60719" lon="2.02881">
        <ele>276.5</ele>
        <time>2020-03-11T12:34:46.000Z</time>
      </trkpt>
      <trkpt lat="43.60726" lon="2.0289">
        <ele>277.1</ele>
        <time>2020-03-11T12:34:54.000Z</time>
      </trkpt>
      <trkpt lat="43.60732" lon="2.029">
        <ele>277.4</ele>
        <time>2020-03-11T12:35:02.000Z</time>
      </trkpt>
      <trkpt lat="43.60738" lon="2.0291">
        <ele>277.6</ele>
        <time>2020-03-11T12:35:10.000Z</time>
      </trkpt>
      <trkpt lat="43.60744" lon="2.0292">
        <ele>277.7</ele>
        <time>2020-03-11T12:35:18.000Z</time>
      </trkpt>
      <trkpt lat="43.6075" lon="2.02929">
        <ele>277.8</ele>
        <time>2020-03-11T12:35:26.000Z</time>
      </trkpt>
      <trkpt lat="43.60757" lon="2.02939">
        <ele>277.8</ele>
        <time>2020-03-11T12:35:34.000Z</time>
      </trkpt>
      <trkpt lat="43.60763" lon="2.0295">
        <ele>277.9</ele>
        <time>2020-03-11T12:35:42.000Z</time>
      </trkpt>
      <trkpt lat="43.60768" lon="2.0296">
        <ele>278.1</ele>
        <time>2020-03-11T12:35:50.000Z</time>
      </trkpt>
      <trkpt lat="43.60773" lon="2.02971">
        <ele>278.2</ele>
        <time>2020-03-11T12:35:58.000Z</time>
      </trkpt>
      <trkpt lat="43.60777" lon="2.02983">
        <ele>278.4</ele>
        <time>2020-03-11T12:36:07.000Z</time>
      </trkpt>
      <trkpt lat="43.60783" lon="2.02994">
        <ele>278.6</ele>
        <time>2020-03-11T12:36:15.000Z</time>
      </trkpt>
      <trkpt lat="43.60788" lon="2.03006">
        <ele>278.7</ele>
        <time>2020-03-11T12:36:23.000Z</time>
      </trkpt>
      <trkpt lat="43.60793" lon="2.03017">
        <ele>278.8</ele>
        <time>2020-03-11T12:36:31.000Z</time>
      </trkpt>
      <trkpt lat="43.60798" lon="2.03029">
        <ele>278.8</ele>
        <time>2020-03-11T12:36:39.000Z</time>
      </trkpt>
      <trkpt lat="43.60803" lon="2.0304">
        <ele>278.9</ele>
        <time>2020-03-11T12:36:46.000Z</time>
      </trkpt>
      <trkpt lat="43.60807" lon="2.03052">
        <ele>279.1</ele>
        <time>2020-03-11T12:36:54.000Z</time>
      </trkpt>
      <trkpt lat="43.60811" lon="2.03065">
        <ele>279.2</ele>
        <time>2020-03-11T12:37:02.000Z</time>
      </trkpt>
      <trkpt lat="43.60815" lon="2.03077">
        <ele>279.2</ele>
        <time>2020-03-11T12:37:09.000Z</time>
      </trkpt>
      <trkpt lat="43.60817" lon="2.0309">
        <ele>279.3</ele>
        <time>2020-03-11T12:37:17.000Z</time>
      </trkpt>
      <trkpt lat="43.60818" lon="2.03104">
        <ele>279.3</ele>
        <time>2020-03-11T12:37:25.000Z</time>
      </trkpt>
      <trkpt lat="43.6082" lon="2.03117">
        <ele>279.4</ele>
        <time>2020-03-11T12:37:33.000Z</time>
      </trkpt>
      <trkpt lat="43.60821" lon="2.0313">
        <ele>279.4</ele>
        <time>2020-03-11T12:37:41.000Z</time>
      </trkpt>
      <trkpt lat="43.60821" lon="2.03143">
        <ele>279.4</ele>
        <time>2020-03-11T12:37:50.000Z</time>
      </trkpt>
      <trkpt lat="43.60822" lon="2.03157">
        <ele>279.6</ele>
        <time>2020-03-11T12:38:00.000Z</time>
      </trkpt>
      <trkpt lat="43.60822" lon="2.0317">
        <ele>279.6</ele>
        <time>2020-03-11T12:38:08.000Z</time>
      </trkpt>
      <trkpt lat="43.60822" lon="2.03183">
        <ele>279.7</ele>
        <time>2020-03-11T12:38:17.000Z</time>
      </trkpt>
      <trkpt lat="43.60824" lon="2.03196">
        <ele>279.8</ele>
        <time>2020-03-11T12:38:25.000Z</time>
      </trkpt>
      <trkpt lat="43.60824" lon="2.03209">
        <ele>279.9</ele>
        <time>2020-03-11T12:38:32.000Z</time>
      </trkpt>
      <trkpt lat="43.60823" lon="2.03222">
        <ele>280</ele>
        <time>2020-03-11T12:38:39.000Z</time>
      </trkpt>
      <trkpt lat="43.60824" lon="2.03234">
        <ele>280.1</ele>
        <time>2020-03-11T12:38:46.000Z</time>
      </trkpt>
      <trkpt lat="43.60824" lon="2.03247">
        <ele>280.2</ele>
        <time>2020-03-11T12:38:54.000Z</time>
      </trkpt>
      <trkpt lat="43.60826" lon="2.03261">
        <ele>280.3</ele>
        <time>2020-03-11T12:39:02.000Z</time>
      </trkpt>
      <trkpt lat="43.60827" lon="2.03275">
        <ele>280.3</ele>
        <time>2020-03-11T12:39:09.000Z</time>
      </trkpt>
      <trkpt lat="43.60828" lon="2.03289">
        <ele>280.2</ele>
        <time>2020-03-11T12:39:17.000Z</time>
      </trkpt>
      <trkpt lat="43.60829" lon="2.03303">
        <ele>280.1</ele>
        <time>2020-03-11T12:39:25.000Z</time>
      </trkpt>
      <trkpt lat="43.60831" lon="2.03317">
        <ele>280</ele>
        <time>2020-03-11T12:39:32.000Z</time>
      </trkpt>
      <trkpt lat="43.60833" lon="2.0333">
        <ele>280</ele>
        <time>2020-03-11T12:39:39.000Z</time>
      </trkpt>
      <trkpt lat="43.60834" lon="2.03344">
        <ele>280</ele>
        <time>2020-03-11T12:39:46.000Z</time>
      </trkpt>
      <trkpt lat="43.60833" lon="2.03357">
        <ele>279.9</ele>
        <time>2020-03-11T12:39:54.000Z</time>
      </trkpt>
      <trkpt lat="43.60833" lon="2.03371">
        <ele>279.8</ele>
        <time>2020-03-11T12:40:02.000Z</time>
      </trkpt>
      <trkpt lat="43.60832" lon="2.03384">
        <ele>279.7</ele>
        <time>2020-03-11T12:40:09.000Z</time>
      </trkpt>
      <trkpt lat="43.60831" lon="2.03399">
        <ele>279.6</ele>
        <time>2020-03-11T12:40:17.000Z</time>
      </trkpt>
      <trkpt lat="43.6083" lon="2.03412">
        <ele>279.5</ele>
        <time>2020-03-11T12:40:24.000Z</time>
      </trkpt>
      <trkpt lat="43.60829" lon="2.03425">
        <ele>279.5</ele>
        <time>2020-03-11T12:40:31.000Z</time>
      </trkpt>
      <trkpt lat="43.60828" lon="2.03438">
        <ele>279.5</ele>
        <time>2020-03-11T12:40:38.000Z</time>
      </trkpt>
      <trkpt lat="43.60826" lon="2.03451">
        <ele>279.4</ele>
        <time>2020-03-11T12:40:45.000Z</time>
      </trkpt>
      <trkpt lat="43.60825" lon="2.03464">
        <ele>279.4</ele>
        <time>2020-03-11T12:40:52.000Z</time>
      </trkpt>
      <trkpt lat="43.60824" lon="2.03477">
        <ele>279.4</ele>
        <time>2020-03-11T12:40:59.000Z</time>
      </trkpt>
      <trkpt lat="43.60822" lon="2.0349">
        <ele>279.4</ele>
        <time>2020-03-11T12:41:08.000Z</time>
      </trkpt>
      <trkpt lat="43.6082" lon="2.03503">
        <ele>279.6</ele>
        <time>2020-03-11T12:41:16.000Z</time>
      </trkpt>
      <trkpt lat="43.60819" lon="2.03516">
        <ele>279.9</ele>
        <time>2020-03-11T12:41:24.000Z</time>
      </trkpt>
      <trkpt lat="43.60817" lon="2.03529">
        <ele>280.1</ele>
        <time>2020-03-11T12:41:32.000Z</time>
      </trkpt>
      <trkpt lat="43.60815" lon="2.03543">
        <ele>280.5</ele>
        <time>2020-03-11T12:41:40.000Z</time>
      </trkpt>
      <trkpt lat="43.60814" lon="2.03556">
        <ele>280.9</ele>
        <time>2020-03-11T12:41:46.000Z</time>
      </trkpt>
      <trkpt lat="43.60813" lon="2.03569">
        <ele>281.3</ele>
        <time>2020-03-11T12:41:54.000Z</time>
      </trkpt>
      <trkpt lat="43.6081" lon="2.03582">
        <ele>282</ele>
        <time>2020-03-11T12:42:03.000Z</time>
      </trkpt>
      <trkpt lat="43.60808" lon="2.03596">
        <ele>283.1</ele>
        <time>2020-03-11T12:42:19.000Z</time>
      </trkpt>
      <trkpt lat="43.60808" lon="2.0361">
        <ele>283.4</ele>
        <time>2020-03-11T12:42:26.000Z</time>
      </trkpt>
      <trkpt lat="43.60807" lon="2.03623">
        <ele>283.8</ele>
        <time>2020-03-11T12:42:34.000Z</time>
      </trkpt>
      <trkpt lat="43.60805" lon="2.03637">
        <ele>284.2</ele>
        <time>2020-03-11T12:42:42.000Z</time>
      </trkpt>
      <trkpt lat="43.60803" lon="2.0365">
        <ele>284.8</ele>
        <time>2020-03-11T12:42:50.000Z</time>
      </trkpt>
      <trkpt lat="43.60802" lon="2.03664">
        <ele>285.5</ele>
        <time>2020-03-11T12:43:00.000Z</time>
      </trkpt>
      <trkpt lat="43.608" lon="2.03676">
        <ele>286.3</ele>
        <time>2020-03-11T12:43:08.000Z</time>
      </trkpt>
      <trkpt lat="43.60798" lon="2.03689">
        <ele>286.9</ele>
        <time>2020-03-11T12:43:16.000Z</time>
      </trkpt>
      <trkpt lat="43.60798" lon="2.03703">
        <ele>287.5</ele>
        <time>2020-03-11T12:43:23.000Z</time>
      </trkpt>
      <trkpt lat="43.60797" lon="2.03716">
        <ele>288.1</ele>
        <time>2020-03-11T12:43:29.000Z</time>
      </trkpt>
      <trkpt lat="43.60794" lon="2.03729">
        <ele>288.9</ele>
        <time>2020-03-11T12:43:37.000Z</time>
      </trkpt>
      <trkpt lat="43.60791" lon="2.03741">
        <ele>289.7</ele>
        <time>2020-03-11T12:43:45.000Z</time>
      </trkpt>
      <trkpt lat="43.60789" lon="2.03755">
        <ele>290.4</ele>
        <time>2020-03-11T12:43:54.000Z</time>
      </trkpt>
      <trkpt lat="43.60786" lon="2.03768">
        <ele>291.1</ele>
        <time>2020-03-11T12:44:03.000Z</time>
      </trkpt>
      <trkpt lat="43.60784" lon="2.03781">
        <ele>291.8</ele>
        <time>2020-03-11T12:44:10.000Z</time>
      </trkpt>
      <trkpt lat="43.60782" lon="2.03793">
        <ele>292.4</ele>
        <time>2020-03-11T12:44:19.000Z</time>
      </trkpt>
      <trkpt lat="43.60779" lon="2.03806">
        <ele>292.8</ele>
        <time>2020-03-11T12:44:27.000Z</time>
      </trkpt>
      <trkpt lat="43.60776" lon="2.03818">
        <ele>293.2</ele>
        <time>2020-03-11T12:44:35.000Z</time>
      </trkpt>
      <trkpt lat="43.60774" lon="2.0383">
        <ele>293.4</ele>
        <time>2020-03-11T12:44:43.000Z</time>
      </trkpt>
      <trkpt lat="43.60772" lon="2.03842">
        <ele>293.7</ele>
        <time>2020-03-11T12:44:50.000Z</time>
      </trkpt>
      <trkpt lat="43.60771" lon="2.03856">
        <ele>294</ele>
        <time>2020-03-11T12:44:56.000Z</time>
      </trkpt>
      <trkpt lat="43.60772" lon="2.03869">
        <ele>294.3</ele>
        <time>2020-03-11T12:45:03.000Z</time>
      </trkpt>
      <trkpt lat="43.60774" lon="2.03882">
        <ele>294.5</ele>
        <time>2020-03-11T12:45:10.000Z</time>
      </trkpt>
      <trkpt lat="43.60777" lon="2.03895">
        <ele>294.8</ele>
        <time>2020-03-11T12:45:18.000Z</time>
      </trkpt>
      <trkpt lat="43.60778" lon="2.03909">
        <ele>295.2</ele>
        <time>2020-03-11T12:45:26.000Z</time>
      </trkpt>
      <trkpt lat="43.60781" lon="2.03922">
        <ele>295.6</ele>
        <time>2020-03-11T12:45:35.000Z</time>
      </trkpt>
      <trkpt lat="43.60784" lon="2.03934">
        <ele>296</ele>
        <time>2020-03-11T12:45:43.000Z</time>
      </trkpt>
      <trkpt lat="43.60788" lon="2.03947">
        <ele>296.5</ele>
        <time>2020-03-11T12:45:51.000Z</time>
      </trkpt>
      <trkpt lat="43.60791" lon="2.03958">
        <ele>296.8</ele>
        <time>2020-03-11T12:45:59.000Z</time>
      </trkpt>
      <trkpt lat="43.60794" lon="2.03971">
        <ele>297</ele>
        <time>2020-03-11T12:46:07.000Z</time>
      </trkpt>
      <trkpt lat="43.60796" lon="2.03983">
        <ele>297.3</ele>
        <time>2020-03-11T12:46:15.000Z</time>
      </trkpt>
      <trkpt lat="43.608" lon="2.03996">
        <ele>297.6</ele>
        <time>2020-03-11T12:46:24.000Z</time>
      </trkpt>
      <trkpt lat="43.60803" lon="2.04008">
        <ele>297.8</ele>
        <time>2020-03-11T12:46:33.000Z</time>
      </trkpt>
      <trkpt lat="43.60806" lon="2.04022">
        <ele>298.2</ele>
        <time>2020-03-11T12:46:42.000Z</time>
      </trkpt>
      <trkpt lat="43.60809" lon="2.04034">
        <ele>298.5</ele>
        <time>2020-03-11T12:46:49.000Z</time>
      </trkpt>
      <trkpt lat="43.60813" lon="2.04047">
        <ele>298.7</ele>
        <time>2020-03-11T12:46:57.000Z</time>
      </trkpt>
      <trkpt lat="43.60816" lon="2.0406">
        <ele>298.8</ele>
        <time>2020-03-11T12:47:04.000Z</time>
      </trkpt>
      <trkpt lat="43.6082" lon="2.04072">
        <ele>299</ele>
        <time>2020-03-11T12:47:12.000Z</time>
      </trkpt>
      <trkpt lat="43.60823" lon="2.04086">
        <ele>299.2</ele>
        <time>2020-03-11T12:47:20.000Z</time>
      </trkpt>
      <trkpt lat="43.60825" lon="2.04099">
        <ele>299.5</ele>
        <time>2020-03-11T12:47:28.000Z</time>
      </trkpt>
      <trkpt lat="43.60828" lon="2.04112">
        <ele>299.7</ele>
        <time>2020-03-11T12:47:36.000Z</time>
      </trkpt>
      <trkpt lat="43.6083" lon="2.04125">
        <ele>299.8</ele>
        <time>2020-03-11T12:47:44.000Z</time>
      </trkpt>
      <trkpt lat="43.60822" lon="2.04131">
        <ele>301.5</ele>
        <time>2020-03-11T12:49:12.000Z</time>
      </trkpt>
      <trkpt lat="43.60814" lon="2.04125">
        <ele>301.5</ele>
        <time>2020-03-11T12:49:24.000Z</time>
      </trkpt>
      <trkpt lat="43.60806" lon="2.04118">
        <ele>301.6</ele>
        <time>2020-03-11T12:49:32.000Z</time>
      </trkpt>
      <trkpt lat="43.60796" lon="2.04112">
        <ele>301.6</ele>
        <time>2020-03-11T12:49:40.000Z</time>
      </trkpt>
      <trkpt lat="43.60787" lon="2.04105">
        <ele>301.6</ele>
        <time>2020-03-11T12:49:48.000Z</time>
      </trkpt>
      <trkpt lat="43.60779" lon="2.04099">
        <ele>301.5</ele>
        <time>2020-03-11T12:49:56.000Z</time>
      </trkpt>
      <trkpt lat="43.60772" lon="2.04091">
        <ele>301.1</ele>
        <time>2020-03-11T12:50:07.000Z</time>
      </trkpt>
      <trkpt lat="43.60764" lon="2.04083">
        <ele>300.7</ele>
        <time>2020-03-11T12:50:17.000Z</time>
      </trkpt>
      <trkpt lat="43.60757" lon="2.04076">
        <ele>300.4</ele>
        <time>2020-03-11T12:50:26.000Z</time>
      </trkpt>
      <trkpt lat="43.60747" lon="2.04072">
        <ele>300.1</ele>
        <time>2020-03-11T12:50:36.000Z</time>
      </trkpt>
      <trkpt lat="43.60739" lon="2.04064">
        <ele>299.7</ele>
        <time>2020-03-11T12:50:45.000Z</time>
      </trkpt>
      <trkpt lat="43.60732" lon="2.04057">
        <ele>299.4</ele>
        <time>2020-03-11T12:50:53.000Z</time>
      </trkpt>
      <trkpt lat="43.60724" lon="2.0405">
        <ele>299.3</ele>
        <time>2020-03-11T12:51:00.000Z</time>
      </trkpt>
      <trkpt lat="43.60717" lon="2.04041">
        <ele>299.3</ele>
        <time>2020-03-11T12:51:07.000Z</time>
      </trkpt>
      <trkpt lat="43.6071" lon="2.04033">
        <ele>299.2</ele>
        <time>2020-03-11T12:51:14.000Z</time>
      </trkpt>
      <trkpt lat="43.60702" lon="2.04025">
        <ele>299.1</ele>
        <time>2020-03-11T12:51:22.000Z</time>
      </trkpt>
      <trkpt lat="43.60694" lon="2.04017">
        <ele>299.1</ele>
        <time>2020-03-11T12:51:30.000Z</time>
      </trkpt>
      <trkpt lat="43.60686" lon="2.04009">
        <ele>299</ele>
        <time>2020-03-11T12:51:39.000Z</time>
      </trkpt>
      <trkpt lat="43.60679" lon="2.04001">
        <ele>298.8</ele>
        <time>2020-03-11T12:51:46.000Z</time>
      </trkpt>
      <trkpt lat="43.60672" lon="2.03993">
        <ele>298.5</ele>
        <time>2020-03-11T12:51:54.000Z</time>
      </trkpt>
      <trkpt lat="43.60664" lon="2.03984">
        <ele>298</ele>
        <time>2020-03-11T12:52:03.000Z</time>
      </trkpt>
      <trkpt lat="43.60655" lon="2.03977">
        <ele>297.7</ele>
        <time>2020-03-11T12:52:11.000Z</time>
      </trkpt>
      <trkpt lat="43.60647" lon="2.0397">
        <ele>297.5</ele>
        <time>2020-03-11T12:52:20.000Z</time>
      </trkpt>
      <trkpt lat="43.60639" lon="2.03962">
        <ele>297.1</ele>
        <time>2020-03-11T12:52:28.000Z</time>
      </trkpt>
      <trkpt lat="43.6063" lon="2.03954">
        <ele>296.9</ele>
        <time>2020-03-11T12:52:36.000Z</time>
      </trkpt>
      <trkpt lat="43.60622" lon="2.03948">
        <ele>296.8</ele>
        <time>2020-03-11T12:52:44.000Z</time>
      </trkpt>
      <trkpt lat="43.60613" lon="2.03943">
        <ele>296.7</ele>
        <time>2020-03-11T12:52:53.000Z</time>
      </trkpt>
      <trkpt lat="43.60605" lon="2.03937">
        <ele>296.8</ele>
        <time>2020-03-11T12:53:01.000Z</time>
      </trkpt>
      <trkpt lat="43.60596" lon="2.03931">
        <ele>296.9</ele>
        <time>2020-03-11T12:53:08.000Z</time>
      </trkpt>
      <trkpt lat="43.60589" lon="2.03923">
        <ele>296.9</ele>
        <time>2020-03-11T12:53:16.000Z</time>
      </trkpt>
      <trkpt lat="43.60581" lon="2.03916">
        <ele>297</ele>
        <time>2020-03-11T12:53:24.000Z</time>
      </trkpt>
      <trkpt lat="43.60573" lon="2.03911">
        <ele>297</ele>
        <time>2020-03-11T12:53:31.000Z</time>
      </trkpt>
      <trkpt lat="43.60565" lon="2.03902">
        <ele>297.1</ele>
        <time>2020-03-11T12:53:40.000Z</time>
      </trkpt>
      <trkpt lat="43.60557" lon="2.03895">
        <ele>297.1</ele>
        <time>2020-03-11T12:53:47.000Z</time>
      </trkpt>
      <trkpt lat="43.6055" lon="2.03886">
        <ele>297.1</ele>
        <time>2020-03-11T12:53:55.000Z</time>
      </trkpt>
      <trkpt lat="43.60542" lon="2.03877">
        <ele>297</ele>
        <time>2020-03-11T12:54:04.000Z</time>
      </trkpt>
      <trkpt lat="43.60536" lon="2.03867">
        <ele>296.8</ele>
        <time>2020-03-11T12:54:12.000Z</time>
      </trkpt>
      <trkpt lat="43.60529" lon="2.03858">
        <ele>296.4</ele>
        <time>2020-03-11T12:54:21.000Z</time>
      </trkpt>
      <trkpt lat="43.60522" lon="2.03847">
        <ele>296.2</ele>
        <time>2020-03-11T12:54:29.000Z</time>
      </trkpt>
      <trkpt lat="43.60515" lon="2.03838">
        <ele>295.7</ele>
        <time>2020-03-11T12:54:37.000Z</time>
      </trkpt>
      <trkpt lat="43.60509" lon="2.03828">
        <ele>295.3</ele>
        <time>2020-03-11T12:54:46.000Z</time>
      </trkpt>
      <trkpt lat="43.60503" lon="2.03818">
        <ele>295</ele>
        <time>2020-03-11T12:54:54.000Z</time>
      </trkpt>
      <trkpt lat="43.60498" lon="2.03806">
        <ele>294.8</ele>
        <time>2020-03-11T12:55:03.000Z</time>
      </trkpt>
      <trkpt lat="43.60493" lon="2.03795">
        <ele>294.7</ele>
        <time>2020-03-11T12:55:11.000Z</time>
      </trkpt>
      <trkpt lat="43.60486" lon="2.03785">
        <ele>294.6</ele>
        <time>2020-03-11T12:55:19.000Z</time>
      </trkpt>
      <trkpt lat="43.60479" lon="2.03777">
        <ele>294.5</ele>
        <time>2020-03-11T12:55:26.000Z</time>
      </trkpt>
      <trkpt lat="43.60471" lon="2.03769">
        <ele>294.5</ele>
        <time>2020-03-11T12:55:35.000Z</time>
      </trkpt>
      <trkpt lat="43.60463" lon="2.03762">
        <ele>294.5</ele>
        <time>2020-03-11T12:55:44.000Z</time>
      </trkpt>
      <trkpt lat="43.60456" lon="2.03753">
        <ele>294.5</ele>
        <time>2020-03-11T12:55:53.000Z</time>
      </trkpt>
      <trkpt lat="43.6045" lon="2.03743">
        <ele>294.5</ele>
        <time>2020-03-11T12:56:02.000Z</time>
      </trkpt>
      <trkpt lat="43.60442" lon="2.03735">
        <ele>294.5</ele>
        <time>2020-03-11T12:56:11.000Z</time>
      </trkpt>
      <trkpt lat="43.60434" lon="2.03728">
        <ele>294.4</ele>
        <time>2020-03-11T12:56:19.000Z</time>
      </trkpt>
      <trkpt lat="43.60426" lon="2.03721">
        <ele>294.4</ele>
        <time>2020-03-11T12:56:26.000Z</time>
      </trkpt>
      <trkpt lat="43.60417" lon="2.03715">
        <ele>294.4</ele>
        <time>2020-03-11T12:56:34.000Z</time>
      </trkpt>
      <trkpt lat="43.60411" lon="2.03735">
        <ele>287.6</ele>
        <time>2020-03-11T12:56:41.000Z</time>
      </trkpt>
      <trkpt lat="43.60409" lon="2.03753">
        <ele>288.3</ele>
        <time>2020-03-11T12:56:50.000Z</time>
      </trkpt>
      <trkpt lat="43.60407" lon="2.03777">
        <ele>289</ele>
        <time>2020-03-11T12:56:58.000Z</time>
      </trkpt>
      <trkpt lat="43.60401" lon="2.03799">
        <ele>289.7</ele>
        <time>2020-03-11T12:57:05.000Z</time>
      </trkpt>
      <trkpt lat="43.60397" lon="2.03827">
        <ele>290.4</ele>
        <time>2020-03-11T12:57:13.000Z</time>
      </trkpt>
      <trkpt lat="43.60392" lon="2.03851">
        <ele>290</ele>
        <time>2020-03-11T12:57:20.000Z</time>
      </trkpt>
      <trkpt lat="43.60381" lon="2.03857">
        <ele>289.3</ele>
        <time>2020-03-11T12:57:29.000Z</time>
      </trkpt>
      <trkpt lat="43.60362" lon="2.03861">
        <ele>288.2</ele>
        <time>2020-03-11T12:57:37.000Z</time>
      </trkpt>
      <trkpt lat="43.60342" lon="2.03862">
        <ele>287</ele>
        <time>2020-03-11T12:57:44.000Z</time>
      </trkpt>
      <trkpt lat="43.60329" lon="2.03862">
        <ele>286.4</ele>
        <time>2020-03-11T12:57:51.000Z</time>
      </trkpt>
      <trkpt lat="43.60316" lon="2.03862">
        <ele>285.6</ele>
        <time>2020-03-11T12:57:59.000Z</time>
      </trkpt>
      <trkpt lat="43.60299" lon="2.03863">
        <ele>284.6</ele>
        <time>2020-03-11T12:58:07.000Z</time>
      </trkpt>
      <trkpt lat="43.60289" lon="2.03862">
        <ele>284.2</ele>
        <time>2020-03-11T12:58:17.000Z</time>
      </trkpt>
      <trkpt lat="43.60279" lon="2.03855">
        <ele>284.8</ele>
        <time>2020-03-11T12:58:31.000Z</time>
      </trkpt>
      <trkpt lat="43.60271" lon="2.03841">
        <ele>286.4</ele>
        <time>2020-03-11T12:58:42.000Z</time>
      </trkpt>
      <trkpt lat="43.60267" lon="2.03823">
        <ele>287.5</ele>
        <time>2020-03-11T12:58:54.000Z</time>
      </trkpt>
      <trkpt lat="43.60261" lon="2.03807">
        <ele>287.6</ele>
        <time>2020-03-11T12:59:03.000Z</time>
      </trkpt>
      <trkpt lat="43.60255" lon="2.03787">
        <ele>287.7</ele>
        <time>2020-03-11T12:59:16.000Z</time>
      </trkpt>
      <trkpt lat="43.60249" lon="2.03772">
        <ele>287.6</ele>
        <time>2020-03-11T12:59:26.000Z</time>
      </trkpt>
      <trkpt lat="43.60241" lon="2.03765">
        <ele>286.7</ele>
        <time>2020-03-11T12:59:54.000Z</time>
      </trkpt>
      <trkpt lat="43.60232" lon="2.03767">
        <ele>285.6</ele>
        <time>2020-03-11T13:00:10.000Z</time>
      </trkpt>
      <trkpt lat="43.60218" lon="2.03771">
        <ele>283.7</ele>
        <time>2020-03-11T13:00:30.000Z</time>
      </trkpt>
      <trkpt lat="43.6021" lon="2.03779">
        <ele>282.5</ele>
        <time>2020-03-11T13:00:40.000Z</time>
      </trkpt>
      <trkpt lat="43.60202" lon="2.03783">
        <ele>281.3</ele>
        <time>2020-03-11T13:00:51.000Z</time>
      </trkpt>
      <trkpt lat="43.60188" lon="2.03791">
        <ele>279.3</ele>
        <time>2020-03-11T13:01:08.000Z</time>
      </trkpt>
      <trkpt lat="43.60172" lon="2.03798">
        <ele>277.1</ele>
        <time>2020-03-11T13:01:28.000Z</time>
      </trkpt>
      <trkpt lat="43.60157" lon="2.038">
        <ele>274.2</ele>
        <time>2020-03-11T13:01:59.000Z</time>
      </trkpt>
      <trkpt lat="43.60144" lon="2.03803">
        <ele>271.4</ele>
        <time>2020-03-11T13:06:00.000Z</time>
      </trkpt>
      <trkpt lat="43.60131" lon="2.03805">
        <ele>268.7</ele>
        <time>2020-03-11T13:06:24.000Z</time>
      </trkpt>
      <trkpt lat="43.60116" lon="2.03809">
        <ele>265.5</ele>
        <time>2020-03-11T13:06:51.000Z</time>
      </trkpt>
      <trkpt lat="43.601" lon="2.03812">
        <ele>262.4</ele>
        <time>2020-03-11T13:07:06.000Z</time>
      </trkpt>
      <trkpt lat="43.60085" lon="2.03817">
        <ele>259.3</ele>
        <time>2020-03-11T13:07:23.000Z</time>
      </trkpt>
      <trkpt lat="43.60076" lon="2.03818">
        <ele>258.2</ele>
        <time>2020-03-11T13:07:43.000Z</time>
      </trkpt>
      <trkpt lat="43.60081" lon="2.03785">
        <ele>258.7</ele>
        <time>2020-03-11T13:07:55.000Z</time>
      </trkpt>
      <trkpt lat="43.60084" lon="2.03758">
        <ele>259.1</ele>
        <time>2020-03-11T13:08:06.000Z</time>
      </trkpt>
      <trkpt lat="43.6009" lon="2.03733">
        <ele>260.4</ele>
        <time>2020-03-11T13:08:13.000Z</time>
      </trkpt>
      <trkpt lat="43.60093" lon="2.03709">
        <ele>260.9</ele>
        <time>2020-03-11T13:08:20.000Z</time>
      </trkpt>
      <trkpt lat="43.60097" lon="2.03684">
        <ele>261.5</ele>
        <time>2020-03-11T13:08:27.000Z</time>
      </trkpt>
      <trkpt lat="43.60097" lon="2.0367">
        <ele>261.5</ele>
        <time>2020-03-11T13:08:35.000Z</time>
      </trkpt>
      <trkpt lat="43.60098" lon="2.03654">
        <ele>262.1</ele>
        <time>2020-03-11T13:08:43.000Z</time>
      </trkpt>
      <trkpt lat="43.60099" lon="2.03641">
        <ele>262.7</ele>
        <time>2020-03-11T13:09:04.000Z</time>
      </trkpt>
      <trkpt lat="43.601" lon="2.0363">
        <ele>253</ele>
        <time>2020-03-11T13:11:49.000Z</time>
      </trkpt>
      <trkpt lat="43.601" lon="2.03617">
        <ele>252.9</ele>
        <time>2020-03-11T13:11:56.000Z</time>
      </trkpt>
      <trkpt lat="43.60099" lon="2.03604">
        <ele>252.9</ele>
        <time>2020-03-11T13:12:04.000Z</time>
      </trkpt>
      <trkpt lat="43.60099" lon="2.03592">
        <ele>252.6</ele>
        <time>2020-03-11T13:12:13.000Z</time>
      </trkpt>
      <trkpt lat="43.60098" lon="2.03578">
        <ele>252.5</ele>
        <time>2020-03-11T13:12:21.000Z</time>
      </trkpt>
      <trkpt lat="43.60094" lon="2.03566">
        <ele>252.3</ele>
        <time>2020-03-11T13:12:28.000Z</time>
      </trkpt>
      <trkpt lat="43.60092" lon="2.03552">
        <ele>252.1</ele>
        <time>2020-03-11T13:12:35.000Z</time>
      </trkpt>
      <trkpt lat="43.6009" lon="2.03539">
        <ele>251.8</ele>
        <time>2020-03-11T13:12:42.000Z</time>
      </trkpt>
      <trkpt lat="43.60088" lon="2.03527">
        <ele>251.4</ele>
        <time>2020-03-11T13:12:49.000Z</time>
      </trkpt>
      <trkpt lat="43.60087" lon="2.03513">
        <ele>250.6</ele>
        <time>2020-03-11T13:12:58.000Z</time>
      </trkpt>
      <trkpt lat="43.60083" lon="2.03502">
        <ele>249.9</ele>
        <time>2020-03-11T13:13:06.000Z</time>
      </trkpt>
      <trkpt lat="43.60078" lon="2.0349">
        <ele>249.2</ele>
        <time>2020-03-11T13:13:13.000Z</time>
      </trkpt>
      <trkpt lat="43.60072" lon="2.0348">
        <ele>248.3</ele>
        <time>2020-03-11T13:13:20.000Z</time>
      </trkpt>
      <trkpt lat="43.60065" lon="2.0347">
        <ele>247.6</ele>
        <time>2020-03-11T13:13:27.000Z</time>
      </trkpt>
      <trkpt lat="43.6006" lon="2.03459">
        <ele>246.6</ele>
        <time>2020-03-11T13:13:35.000Z</time>
      </trkpt>
      <trkpt lat="43.60054" lon="2.0345">
        <ele>245.7</ele>
        <time>2020-03-11T13:13:43.000Z</time>
      </trkpt>
      <trkpt lat="43.60049" lon="2.03439">
        <ele>244.6</ele>
        <time>2020-03-11T13:13:51.000Z</time>
      </trkpt>
      <trkpt lat="43.60044" lon="2.03428">
        <ele>243.9</ele>
        <time>2020-03-11T13:13:57.000Z</time>
      </trkpt>
      <trkpt lat="43.60039" lon="2.03417">
        <ele>242.9</ele>
        <time>2020-03-11T13:14:05.000Z</time>
      </trkpt>
      <trkpt lat="43.60034" lon="2.03405">
        <ele>241.7</ele>
        <time>2020-03-11T13:14:14.000Z</time>
      </trkpt>
      <trkpt lat="43.6003" lon="2.03392">
        <ele>240.8</ele>
        <time>2020-03-11T13:14:22.000Z</time>
      </trkpt>
      <trkpt lat="43.60027" lon="2.03379">
        <ele>240</ele>
        <time>2020-03-11T13:14:29.000Z</time>
      </trkpt>
      <trkpt lat="43.60025" lon="2.03367">
        <ele>238.9</ele>
        <time>2020-03-11T13:14:37.000Z</time>
      </trkpt>
      <trkpt lat="43.60023" lon="2.03353">
        <ele>238</ele>
        <time>2020-03-11T13:14:44.000Z</time>
      </trkpt>
      <trkpt lat="43.60024" lon="2.03339">
        <ele>237.1</ele>
        <time>2020-03-11T13:14:52.000Z</time>
      </trkpt>
      <trkpt lat="43.60025" lon="2.03325">
        <ele>236.1</ele>
        <time>2020-03-11T13:15:00.000Z</time>
      </trkpt>
      <trkpt lat="43.60025" lon="2.03312">
        <ele>235.4</ele>
        <time>2020-03-11T13:15:07.000Z</time>
      </trkpt>
      <trkpt lat="43.60024" lon="2.03298">
        <ele>234.6</ele>
        <time>2020-03-11T13:15:15.000Z</time>
      </trkpt>
      <trkpt lat="43.60024" lon="2.03285">
        <ele>233.9</ele>
        <time>2020-03-11T13:15:22.000Z</time>
      </trkpt>
      <trkpt lat="43.60022" lon="2.03271">
        <ele>233.3</ele>
        <time>2020-03-11T13:15:28.000Z</time>
      </trkpt>
      <trkpt lat="43.60016" lon="2.03261">
        <ele>233</ele>
        <time>2020-03-11T13:15:33.000Z</time>
      </trkpt>
      <trkpt lat="43.60014" lon="2.03249">
        <ele>232.5</ele>
        <time>2020-03-11T13:15:41.000Z</time>
      </trkpt>
      <trkpt lat="43.60014" lon="2.03235">
        <ele>232.1</ele>
        <time>2020-03-11T13:15:49.000Z</time>
      </trkpt>
      <trkpt lat="43.60012" lon="2.03223">
        <ele>231.9</ele>
        <time>2020-03-11T13:15:57.000Z</time>
      </trkpt>
      <trkpt lat="43.60011" lon="2.0321">
        <ele>231.8</ele>
        <time>2020-03-11T13:16:05.000Z</time>
      </trkpt>
      <trkpt lat="43.60013" lon="2.03197">
        <ele>231.7</ele>
        <time>2020-03-11T13:16:12.000Z</time>
      </trkpt>
      <trkpt lat="43.60011" lon="2.03185">
        <ele>231.7</ele>
        <time>2020-03-11T13:16:19.000Z</time>
      </trkpt>
      <trkpt lat="43.60012" lon="2.03172">
        <ele>231.7</ele>
        <time>2020-03-11T13:16:26.000Z</time>
      </trkpt>
      <trkpt lat="43.60013" lon="2.03159">
        <ele>231.6</ele>
        <time>2020-03-11T13:16:33.000Z</time>
      </trkpt>
      <trkpt lat="43.60014" lon="2.03145">
        <ele>231.6</ele>
        <time>2020-03-11T13:16:41.000Z</time>
      </trkpt>
      <trkpt lat="43.60014" lon="2.03132">
        <ele>231.1</ele>
        <time>2020-03-11T13:16:50.000Z</time>
      </trkpt>
      <trkpt lat="43.60014" lon="2.03118">
        <ele>230.6</ele>
        <time>2020-03-11T13:16:59.000Z</time>
      </trkpt>
      <trkpt lat="43.60015" lon="2.03104">
        <ele>230.1</ele>
        <time>2020-03-11T13:17:06.000Z</time>
      </trkpt>
      <trkpt lat="43.60015" lon="2.0309">
        <ele>229.5</ele>
        <time>2020-03-11T13:17:13.000Z</time>
      </trkpt>
      <trkpt lat="43.60018" lon="2.03078">
        <ele>228.6</ele>
        <time>2020-03-11T13:17:20.000Z</time>
      </trkpt>
      <trkpt lat="43.60019" lon="2.03065">
        <ele>227.6</ele>
        <time>2020-03-11T13:17:28.000Z</time>
      </trkpt>
      <trkpt lat="43.60019" lon="2.03051">
        <ele>226.8</ele>
        <time>2020-03-11T13:17:36.000Z</time>
      </trkpt>
      <trkpt lat="43.6002" lon="2.03039">
        <ele>226.1</ele>
        <time>2020-03-11T13:17:43.000Z</time>
      </trkpt>
      <trkpt lat="43.6002" lon="2.03026">
        <ele>225.7</ele>
        <time>2020-03-11T13:17:49.000Z</time>
      </trkpt>
      <trkpt lat="43.60018" lon="2.03013">
        <ele>225.3</ele>
        <time>2020-03-11T13:17:57.000Z</time>
      </trkpt>
      <trkpt lat="43.60016" lon="2.02999">
        <ele>224.7</ele>
        <time>2020-03-11T13:18:04.000Z</time>
      </trkpt>
      <trkpt lat="43.60017" lon="2.02985">
        <ele>224.4</ele>
        <time>2020-03-11T13:18:11.000Z</time>
      </trkpt>
      <trkpt lat="43.60019" lon="2.02972">
        <ele>224.1</ele>
        <time>2020-03-11T13:18:17.000Z</time>
      </trkpt>
      <trkpt lat="43.6002" lon="2.0296">
        <ele>223.7</ele>
        <time>2020-03-11T13:18:23.000Z</time>
      </trkpt>
      <trkpt lat="43.60024" lon="2.02948">
        <ele>223.4</ele>
        <time>2020-03-11T13:18:29.000Z</time>
      </trkpt>
      <trkpt lat="43.60025" lon="2.02935">
        <ele>223</ele>
        <time>2020-03-11T13:18:36.000Z</time>
      </trkpt>
      <trkpt lat="43.60026" lon="2.02922">
        <ele>222.8</ele>
        <time>2020-03-11T13:18:43.000Z</time>
      </trkpt>
      <trkpt lat="43.6003" lon="2.0291">
        <ele>222.6</ele>
        <time>2020-03-11T13:18:50.000Z</time>
      </trkpt>
      <trkpt lat="43.60036" lon="2.02901">
        <ele>222.5</ele>
        <time>2020-03-11T13:18:57.000Z</time>
      </trkpt>
      <trkpt lat="43.6004" lon="2.02888">
        <ele>222.4</ele>
        <time>2020-03-11T13:19:05.000Z</time>
      </trkpt>
      <trkpt lat="43.60045" lon="2.02877">
        <ele>222.4</ele>
        <time>2020-03-11T13:19:12.000Z</time>
      </trkpt>
      <trkpt lat="43.60046" lon="2.02863">
        <ele>222.5</ele>
        <time>2020-03-11T13:19:21.000Z</time>
      </trkpt>
      <trkpt lat="43.60049" lon="2.0285">
        <ele>222.6</ele>
        <time>2020-03-11T13:19:30.000Z</time>
      </trkpt>
      <trkpt lat="43.60052" lon="2.02838">
        <ele>222.8</ele>
        <time>2020-03-11T13:19:38.000Z</time>
      </trkpt>
      <trkpt lat="43.60054" lon="2.02826">
        <ele>222.8</ele>
        <time>2020-03-11T13:19:45.000Z</time>
      </trkpt>
      <trkpt lat="43.60058" lon="2.02814">
        <ele>223.2</ele>
        <time>2020-03-11T13:19:53.000Z</time>
      </trkpt>
      <trkpt lat="43.6006" lon="2.02801">
        <ele>223.3</ele>
        <time>2020-03-11T13:19:59.000Z</time>
      </trkpt>
      <trkpt lat="43.60063" lon="2.02787">
        <ele>223.2</ele>
        <time>2020-03-11T13:20:07.000Z</time>
      </trkpt>
      <trkpt lat="43.60066" lon="2.02774">
        <ele>223</ele>
        <time>2020-03-11T13:20:14.000Z</time>
      </trkpt>
      <trkpt lat="43.60067" lon="2.02762">
        <ele>222.6</ele>
        <time>2020-03-11T13:20:21.000Z</time>
      </trkpt>
      <trkpt lat="43.60071" lon="2.02748">
        <ele>222.3</ele>
        <time>2020-03-11T13:20:28.000Z</time>
      </trkpt>
      <trkpt lat="43.60074" lon="2.02736">
        <ele>221.9</ele>
        <time>2020-03-11T13:20:35.000Z</time>
      </trkpt>
      <trkpt lat="43.60075" lon="2.02723">
        <ele>221.6</ele>
        <time>2020-03-11T13:20:41.000Z</time>
      </trkpt>
      <trkpt lat="43.6008" lon="2.02711">
        <ele>221.2</ele>
        <time>2020-03-11T13:20:49.000Z</time>
      </trkpt>
      <trkpt lat="43.60086" lon="2.027">
        <ele>220.9</ele>
        <time>2020-03-11T13:20:56.000Z</time>
      </trkpt>
      <trkpt lat="43.60093" lon="2.0269">
        <ele>220.7</ele>
        <time>2020-03-11T13:21:03.000Z</time>
      </trkpt>
      <trkpt lat="43.60099" lon="2.02681">
        <ele>220.6</ele>
        <time>2020-03-11T13:21:10.000Z</time>
      </trkpt>
      <trkpt lat="43.60106" lon="2.0267">
        <ele>220.4</ele>
        <time>2020-03-11T13:21:18.000Z</time>
      </trkpt>
      <trkpt lat="43.60111" lon="2.02659">
        <ele>220.3</ele>
        <time>2020-03-11T13:21:26.000Z</time>
      </trkpt>
      <trkpt lat="43.60118" lon="2.02648">
        <ele>220.3</ele>
        <time>2020-03-11T13:21:34.000Z</time>
      </trkpt>
      <trkpt lat="43.60123" lon="2.02638">
        <ele>220.2</ele>
        <time>2020-03-11T13:21:42.000Z</time>
      </trkpt>
      <trkpt lat="43.6013" lon="2.02628">
        <ele>220.1</ele>
        <time>2020-03-11T13:21:47.000Z</time>
      </trkpt>
      <trkpt lat="43.60136" lon="2.02618">
        <ele>220</ele>
        <time>2020-03-11T13:21:55.000Z</time>
      </trkpt>
      <trkpt lat="43.60142" lon="2.02608">
        <ele>220</ele>
        <time>2020-03-11T13:22:01.000Z</time>
      </trkpt>
      <trkpt lat="43.60148" lon="2.02599">
        <ele>219.9</ele>
        <time>2020-03-11T13:22:08.000Z</time>
      </trkpt>
      <trkpt lat="43.60154" lon="2.02589">
        <ele>219.8</ele>
        <time>2020-03-11T13:22:15.000Z</time>
      </trkpt>
      <trkpt lat="43.6016" lon="2.0258">
        <ele>219.7</ele>
        <time>2020-03-11T13:22:22.000Z</time>
      </trkpt>
      <trkpt lat="43.60166" lon="2.0257">
        <ele>219.4</ele>
        <time>2020-03-11T13:22:30.000Z</time>
      </trkpt>
      <trkpt lat="43.60172" lon="2.02559">
        <ele>219.2</ele>
        <time>2020-03-11T13:22:37.000Z</time>
      </trkpt>
      <trkpt lat="43.60179" lon="2.02549">
        <ele>219.1</ele>
        <time>2020-03-11T13:22:43.000Z</time>
      </trkpt>
      <trkpt lat="43.60184" lon="2.02539">
        <ele>219</ele>
        <time>2020-03-11T13:22:49.000Z</time>
      </trkpt>
      <trkpt lat="43.6019" lon="2.02528">
        <ele>218.9</ele>
        <time>2020-03-11T13:22:56.000Z</time>
      </trkpt>
      <trkpt lat="43.60197" lon="2.02517">
        <ele>218.7</ele>
        <time>2020-03-11T13:23:03.000Z</time>
      </trkpt>
      <trkpt lat="43.60203" lon="2.02507">
        <ele>218.6</ele>
        <time>2020-03-11T13:23:10.000Z</time>
      </trkpt>
      <trkpt lat="43.60209" lon="2.02496">
        <ele>218.5</ele>
        <time>2020-03-11T13:23:17.000Z</time>
      </trkpt>
      <trkpt lat="43.60215" lon="2.02486">
        <ele>218.4</ele>
        <time>2020-03-11T13:23:24.000Z</time>
      </trkpt>
      <trkpt lat="43.60221" lon="2.02475">
        <ele>218.4</ele>
        <time>2020-03-11T13:23:31.000Z</time>
      </trkpt>
      <trkpt lat="43.60227" lon="2.02465">
        <ele>218.4</ele>
        <time>2020-03-11T13:23:38.000Z</time>
      </trkpt>
      <trkpt lat="43.6023" lon="2.02453">
        <ele>218.4</ele>
        <time>2020-03-11T13:23:45.000Z</time>
      </trkpt>
      <trkpt lat="43.60231" lon="2.02441">
        <ele>218.3</ele>
        <time>2020-03-11T13:23:51.000Z</time>
      </trkpt>
      <trkpt lat="43.60227" lon="2.02429">
        <ele>218.3</ele>
        <time>2020-03-11T13:23:58.000Z</time>
      </trkpt>
      <trkpt lat="43.6022" lon="2.02417">
        <ele>218.2</ele>
        <time>2020-03-11T13:24:06.000Z</time>
      </trkpt>
      <trkpt lat="43.60214" lon="2.02407">
        <ele>217.9</ele>
        <time>2020-03-11T13:24:14.000Z</time>
      </trkpt>
      <trkpt lat="43.60205" lon="2.02396">
        <ele>215.6</ele>
        <time>2020-03-11T13:25:47.000Z</time>
      </trkpt>
      <trkpt lat="43.60198" lon="2.02387">
        <ele>215.5</ele>
        <time>2020-03-11T13:26:15.000Z</time>
      </trkpt>
      <trkpt lat="43.60191" lon="2.02377">
        <ele>215.4</ele>
        <time>2020-03-11T13:26:24.000Z</time>
      </trkpt>
      <trkpt lat="43.60185" lon="2.02367">
        <ele>215.2</ele>
        <time>2020-03-11T13:26:32.000Z</time>
      </trkpt>
      <trkpt lat="43.6018" lon="2.02357">
        <ele>214.8</ele>
        <time>2020-03-11T13:26:41.000Z</time>
      </trkpt>
      <trkpt lat="43.60173" lon="2.02347">
        <ele>213.9</ele>
        <time>2020-03-11T13:26:50.000Z</time>
      </trkpt>
      <trkpt lat="43.60168" lon="2.02336">
        <ele>213.2</ele>
        <time>2020-03-11T13:26:58.000Z</time>
      </trkpt>
      <trkpt lat="43.60162" lon="2.02326">
        <ele>212.8</ele>
        <time>2020-03-11T13:27:07.000Z</time>
      </trkpt>
      <trkpt lat="43.60156" lon="2.02316">
        <ele>212</ele>
        <time>2020-03-11T13:27:41.000Z</time>
      </trkpt>
      <trkpt lat="43.6015" lon="2.02307">
        <ele>211.9</ele>
        <time>2020-03-11T13:27:57.000Z</time>
      </trkpt>
      <trkpt lat="43.60141" lon="2.02302">
        <ele>212.2</ele>
        <time>2020-03-11T13:29:31.000Z</time>
      </trkpt>
      <trkpt lat="43.60132" lon="2.02295">
        <ele>212.2</ele>
        <time>2020-03-11T13:29:40.000Z</time>
      </trkpt>
      <trkpt lat="43.60123" lon="2.02289">
        <ele>212.5</ele>
        <time>2020-03-11T13:29:48.000Z</time>
      </trkpt>
      <trkpt lat="43.60114" lon="2.02285">
        <ele>212.8</ele>
        <time>2020-03-11T13:29:54.000Z</time>
      </trkpt>
      <trkpt lat="43.60106" lon="2.02279">
        <ele>213.3</ele>
        <time>2020-03-11T13:30:04.000Z</time>
      </trkpt>
      <trkpt lat="43.60097" lon="2.02274">
        <ele>213.7</ele>
        <time>2020-03-11T13:30:14.000Z</time>
      </trkpt>
      <trkpt lat="43.60088" lon="2.02272">
        <ele>214.1</ele>
        <time>2020-03-11T13:30:22.000Z</time>
      </trkpt>
      <trkpt lat="43.60079" lon="2.02269">
        <ele>214.6</ele>
        <time>2020-03-11T13:30:30.000Z</time>
      </trkpt>
      <trkpt lat="43.60069" lon="2.02268">
        <ele>216.3</ele>
        <time>2020-03-11T13:31:07.000Z</time>
      </trkpt>
      <trkpt lat="43.60061" lon="2.02264">
        <ele>216.9</ele>
        <time>2020-03-11T13:31:19.000Z</time>
      </trkpt>
      <trkpt lat="43.60052" lon="2.02261">
        <ele>217.5</ele>
        <time>2020-03-11T13:31:30.000Z</time>
      </trkpt>
      <trkpt lat="43.60043" lon="2.02256">
        <ele>218.3</ele>
        <time>2020-03-11T13:31:40.000Z</time>
      </trkpt>
      <trkpt lat="43.60034" lon="2.02252">
        <ele>219.2</ele>
        <time>2020-03-11T13:31:50.000Z</time>
      </trkpt>
      <trkpt lat="43.60025" lon="2.02245">
        <ele>219.9</ele>
        <time>2020-03-11T13:31:57.000Z</time>
      </trkpt>
      <trkpt lat="43.60016" lon="2.0224">
        <ele>220.7</ele>
        <time>2020-03-11T13:32:05.000Z</time>
      </trkpt>
      <trkpt lat="43.60008" lon="2.02234">
        <ele>222</ele>
        <time>2020-03-11T13:32:14.000Z</time>
      </trkpt>
      <trkpt lat="43.59999" lon="2.0223">
        <ele>223.1</ele>
        <time>2020-03-11T13:32:22.000Z</time>
      </trkpt>
      <trkpt lat="43.5999" lon="2.02227">
        <ele>224.3</ele>
        <time>2020-03-11T13:32:30.000Z</time>
      </trkpt>
      <trkpt lat="43.59983" lon="2.02218">
        <ele>227</ele>
        <time>2020-03-11T13:32:47.000Z</time>
      </trkpt>
      <trkpt lat="43.59976" lon="2.0221">
        <ele>228.4</ele>
        <time>2020-03-11T13:33:02.000Z</time>
      </trkpt>
      <trkpt lat="43.59968" lon="2.02202">
        <ele>229.7</ele>
        <time>2020-03-11T13:33:13.000Z</time>
      </trkpt>
      <trkpt lat="43.59959" lon="2.02198">
        <ele>231.9</ele>
        <time>2020-03-11T13:33:28.000Z</time>
      </trkpt>
      <trkpt lat="43.59951" lon="2.02193">
        <ele>233.6</ele>
        <time>2020-03-11T13:33:38.000Z</time>
      </trkpt>
      <trkpt lat="43.59941" lon="2.02191">
        <ele>235</ele>
        <time>2020-03-11T13:33:48.000Z</time>
      </trkpt>
      <trkpt lat="43.59931" lon="2.02189">
        <ele>236.4</ele>
        <time>2020-03-11T13:33:58.000Z</time>
      </trkpt>
      <trkpt lat="43.59921" lon="2.02184">
        <ele>237.9</ele>
        <time>2020-03-11T13:34:11.000Z</time>
      </trkpt>
      <trkpt lat="43.59911" lon="2.0218">
        <ele>239.3</ele>
        <time>2020-03-11T13:34:21.000Z</time>
      </trkpt>
      <trkpt lat="43.59901" lon="2.02178">
        <ele>240.1</ele>
        <time>2020-03-11T13:34:28.000Z</time>
      </trkpt>
      <trkpt lat="43.59892" lon="2.02173">
        <ele>241.5</ele>
        <time>2020-03-11T13:34:39.000Z</time>
      </trkpt>
      <trkpt lat="43.59882" lon="2.02172">
        <ele>242.6</ele>
        <time>2020-03-11T13:34:50.000Z</time>
      </trkpt>
      <trkpt lat="43.59873" lon="2.0217">
        <ele>243.2</ele>
        <time>2020-03-11T13:34:56.000Z</time>
      </trkpt>
      <trkpt lat="43.59864" lon="2.02167">
        <ele>243.9</ele>
        <time>2020-03-11T13:35:03.000Z</time>
      </trkpt>
      <trkpt lat="43.59855" lon="2.02164">
        <ele>244.5</ele>
        <time>2020-03-11T13:35:11.000Z</time>
      </trkpt>
      <trkpt lat="43.59845" lon="2.02161">
        <ele>245.1</ele>
        <time>2020-03-11T13:35:20.000Z</time>
      </trkpt>
      <trkpt lat="43.59836" lon="2.02157">
        <ele>245.9</ele>
        <time>2020-03-11T13:35:29.000Z</time>
      </trkpt>
      <trkpt lat="43.59827" lon="2.02152">
        <ele>246.3</ele>
        <time>2020-03-11T13:35:36.000Z</time>
      </trkpt>
      <trkpt lat="43.59817" lon="2.02148">
        <ele>247</ele>
        <time>2020-03-11T13:35:42.000Z</time>
      </trkpt>
      <trkpt lat="43.59808" lon="2.02143">
        <ele>247.8</ele>
        <time>2020-03-11T13:35:49.000Z</time>
      </trkpt>
      <trkpt lat="43.59799" lon="2.02138">
        <ele>248.4</ele>
        <time>2020-03-11T13:35:56.000Z</time>
      </trkpt>
      <trkpt lat="43.59791" lon="2.02131">
        <ele>249.4</ele>
        <time>2020-03-11T13:36:06.000Z</time>
      </trkpt>
      <trkpt lat="43.59772" lon="2.02129">
        <ele>249</ele>
        <time>2020-03-11T13:38:42.000Z</time>
      </trkpt>
      <trkpt lat="43.59763" lon="2.0213">
        <ele>249.6</ele>
        <time>2020-03-11T13:38:50.000Z</time>
      </trkpt>
      <trkpt lat="43.59753" lon="2.02129">
        <ele>249.4</ele>
        <time>2020-03-11T13:38:59.000Z</time>
      </trkpt>
      <trkpt lat="43.59744" lon="2.02131">
        <ele>249.2</ele>
        <time>2020-03-11T13:39:07.000Z</time>
      </trkpt>
      <trkpt lat="43.59734" lon="2.0213">
        <ele>248.8</ele>
        <time>2020-03-11T13:39:16.000Z</time>
      </trkpt>
      <trkpt lat="43.59724" lon="2.0213">
        <ele>248.4</ele>
        <time>2020-03-11T13:39:26.000Z</time>
      </trkpt>
      <trkpt lat="43.59714" lon="2.02131">
        <ele>247.9</ele>
        <time>2020-03-11T13:39:35.000Z</time>
      </trkpt>
      <trkpt lat="43.59704" lon="2.02131">
        <ele>247.4</ele>
        <time>2020-03-11T13:39:43.000Z</time>
      </trkpt>
      <trkpt lat="43.59694" lon="2.02129">
        <ele>247</ele>
        <time>2020-03-11T13:39:49.000Z</time>
      </trkpt>
      <trkpt lat="43.59684" lon="2.02127">
        <ele>246.2</ele>
        <time>2020-03-11T13:39:56.000Z</time>
      </trkpt>
      <trkpt lat="43.59675" lon="2.02127">
        <ele>245.3</ele>
        <time>2020-03-11T13:40:03.000Z</time>
      </trkpt>
      <trkpt lat="43.59665" lon="2.02124">
        <ele>244.1</ele>
        <time>2020-03-11T13:40:13.000Z</time>
      </trkpt>
      <trkpt lat="43.59657" lon="2.02118">
        <ele>243</ele>
        <time>2020-03-11T13:40:24.000Z</time>
      </trkpt>
      <trkpt lat="43.59648" lon="2.02116">
        <ele>241.6</ele>
        <time>2020-03-11T13:40:37.000Z</time>
      </trkpt>
      <trkpt lat="43.59638" lon="2.02115">
        <ele>240.5</ele>
        <time>2020-03-11T13:40:46.000Z</time>
      </trkpt>
      <trkpt lat="43.59628" lon="2.02112">
        <ele>239.2</ele>
        <time>2020-03-11T13:41:00.000Z</time>
      </trkpt>
      <trkpt lat="43.59618" lon="2.02108">
        <ele>238.6</ele>
        <time>2020-03-11T13:41:11.000Z</time>
      </trkpt>
      <trkpt lat="43.59609" lon="2.02103">
        <ele>237.8</ele>
        <time>2020-03-11T13:41:25.000Z</time>
      </trkpt>
      <trkpt lat="43.59599" lon="2.02101">
        <ele>237.3</ele>
        <time>2020-03-11T13:41:40.000Z</time>
      </trkpt>
      <trkpt lat="43.5959" lon="2.02101">
        <ele>236.9</ele>
        <time>2020-03-11T13:41:51.000Z</time>
      </trkpt>
      <trkpt lat="43.59569" lon="2.02107">
        <ele>236</ele>
        <time>2020-03-11T13:42:24.000Z</time>
      </trkpt>
      <trkpt lat="43.5956" lon="2.02111">
        <ele>236.4</ele>
        <time>2020-03-11T13:42:42.000Z</time>
      </trkpt>
      <trkpt lat="43.59551" lon="2.02115">
        <ele>237.2</ele>
        <time>2020-03-11T13:43:03.000Z</time>
      </trkpt>
      <trkpt lat="43.59542" lon="2.02118">
        <ele>237.9</ele>
        <time>2020-03-11T13:43:17.000Z</time>
      </trkpt>
      <trkpt lat="43.59533" lon="2.02122">
        <ele>238.5</ele>
        <time>2020-03-11T13:43:29.000Z</time>
      </trkpt>
      <trkpt lat="43.59524" lon="2.02126">
        <ele>239</ele>
        <time>2020-03-11T13:43:38.000Z</time>
      </trkpt>
      <trkpt lat="43.59515" lon="2.02129">
        <ele>239.5</ele>
        <time>2020-03-11T13:43:48.000Z</time>
      </trkpt>
      <trkpt lat="43.59506" lon="2.02134">
        <ele>240.4</ele>
        <time>2020-03-11T13:44:01.000Z</time>
      </trkpt>
      <trkpt lat="43.59497" lon="2.02137">
        <ele>241.6</ele>
        <time>2020-03-11T13:44:15.000Z</time>
      </trkpt>
      <trkpt lat="43.59489" lon="2.02141">
        <ele>242.8</ele>
        <time>2020-03-11T13:44:29.000Z</time>
      </trkpt>
      <trkpt lat="43.5948" lon="2.02146">
        <ele>243.3</ele>
        <time>2020-03-11T13:44:40.000Z</time>
      </trkpt>
      <trkpt lat="43.5947" lon="2.02148">
        <ele>243.5</ele>
        <time>2020-03-11T13:44:48.000Z</time>
      </trkpt>
      <trkpt lat="43.59461" lon="2.02152">
        <ele>243.9</ele>
        <time>2020-03-11T13:45:00.000Z</time>
      </trkpt>
      <trkpt lat="43.59449" lon="2.02154">
        <ele>244.6</ele>
        <time>2020-03-11T13:45:17.000Z</time>
      </trkpt>
      <trkpt lat="43.59439" lon="2.02154">
        <ele>245</ele>
        <time>2020-03-11T13:45:26.000Z</time>
      </trkpt>
      <trkpt lat="43.5943" lon="2.02156">
        <ele>245.4</ele>
        <time>2020-03-11T13:45:36.000Z</time>
      </trkpt>
      <trkpt lat="43.5942" lon="2.02156">
        <ele>246.6</ele>
        <time>2020-03-11T13:45:54.000Z</time>
      </trkpt>
      <trkpt lat="43.59411" lon="2.02158">
        <ele>247.4</ele>
        <time>2020-03-11T13:46:07.000Z</time>
      </trkpt>
      <trkpt lat="43.59401" lon="2.02159">
        <ele>248</ele>
        <time>2020-03-11T13:46:19.000Z</time>
      </trkpt>
      <trkpt lat="43.59391" lon="2.02161">
        <ele>248.6</ele>
        <time>2020-03-11T13:46:31.000Z</time>
      </trkpt>
      <trkpt lat="43.59381" lon="2.02164">
        <ele>249.1</ele>
        <time>2020-03-11T13:46:47.000Z</time>
      </trkpt>
      <trkpt lat="43.59372" lon="2.02164">
        <ele>249.5</ele>
        <time>2020-03-11T13:46:57.000Z</time>
      </trkpt>
      <trkpt lat="43.59362" lon="2.02165">
        <ele>250</ele>
        <time>2020-03-11T13:47:09.000Z</time>
      </trkpt>
      <trkpt lat="43.59352" lon="2.02169">
        <ele>249.3</ele>
        <time>2020-03-11T13:50:58.000Z</time>
      </trkpt>
      <trkpt lat="43.59344" lon="2.02175">
        <ele>249.3</ele>
        <time>2020-03-11T13:51:08.000Z</time>
      </trkpt>
      <trkpt lat="43.59334" lon="2.02179">
        <ele>249.4</ele>
        <time>2020-03-11T13:51:15.000Z</time>
      </trkpt>
      <trkpt lat="43.59327" lon="2.02187">
        <ele>249.6</ele>
        <time>2020-03-11T13:51:27.000Z</time>
      </trkpt>
      <trkpt lat="43.59319" lon="2.02194">
        <ele>249.7</ele>
        <time>2020-03-11T13:51:38.000Z</time>
      </trkpt>
      <trkpt lat="43.59311" lon="2.022">
        <ele>249.9</ele>
        <time>2020-03-11T13:51:46.000Z</time>
      </trkpt>
      <trkpt lat="43.59302" lon="2.02204">
        <ele>250.3</ele>
        <time>2020-03-11T13:51:57.000Z</time>
      </trkpt>
      <trkpt lat="43.59301" lon="2.02191">
        <ele>251.1</ele>
        <time>2020-03-11T13:52:15.000Z</time>
      </trkpt>
      <trkpt lat="43.5931" lon="2.02185">
        <ele>251.3</ele>
        <time>2020-03-11T13:52:29.000Z</time>
      </trkpt>
      <trkpt lat="43.59318" lon="2.02179">
        <ele>251.4</ele>
        <time>2020-03-11T13:52:41.000Z</time>
      </trkpt>
      <trkpt lat="43.59326" lon="2.02172">
        <ele>251.3</ele>
        <time>2020-03-11T13:52:50.000Z</time>
      </trkpt>
      <trkpt lat="43.59333" lon="2.02163">
        <ele>251.4</ele>
        <time>2020-03-11T13:53:00.000Z</time>
      </trkpt>
      <trkpt lat="43.59341" lon="2.02155">
        <ele>251.5</ele>
        <time>2020-03-11T13:53:10.000Z</time>
      </trkpt>
      <trkpt lat="43.5935" lon="2.0215">
        <ele>251.5</ele>
        <time>2020-03-11T13:53:20.000Z</time>
      </trkpt>
      <trkpt lat="43.59358" lon="2.02146">
        <ele>251.8</ele>
        <time>2020-03-11T13:53:31.000Z</time>
      </trkpt>
      <trkpt lat="43.59366" lon="2.02138">
        <ele>252.4</ele>
        <time>2020-03-11T13:53:40.000Z</time>
      </trkpt>
      <trkpt lat="43.59376" lon="2.02135">
        <ele>253</ele>
        <time>2020-03-11T13:53:49.000Z</time>
      </trkpt>
      <trkpt lat="43.59384" lon="2.02127">
        <ele>253.5</ele>
        <time>2020-03-11T13:53:59.000Z</time>
      </trkpt>
      <trkpt lat="43.59391" lon="2.02118">
        <ele>254.2</ele>
        <time>2020-03-11T13:54:09.000Z</time>
      </trkpt>
      <trkpt lat="43.59397" lon="2.02108">
        <ele>255</ele>
        <time>2020-03-11T13:54:18.000Z</time>
      </trkpt>
      <trkpt lat="43.59402" lon="2.02096">
        <ele>255.9</ele>
        <time>2020-03-11T13:54:32.000Z</time>
      </trkpt>
      <trkpt lat="43.59408" lon="2.02085">
        <ele>256.5</ele>
        <time>2020-03-11T13:54:56.000Z</time>
      </trkpt>
      <trkpt lat="43.59414" lon="2.02075">
        <ele>256.5</ele>
        <time>2020-03-11T13:55:06.000Z</time>
      </trkpt>
      <trkpt lat="43.59421" lon="2.02066">
        <ele>256.9</ele>
        <time>2020-03-11T13:55:16.000Z</time>
      </trkpt>
      <trkpt lat="43.59428" lon="2.02056">
        <ele>257.4</ele>
        <time>2020-03-11T13:55:26.000Z</time>
      </trkpt>
      <trkpt lat="43.59434" lon="2.02047">
        <ele>257.7</ele>
        <time>2020-03-11T13:55:33.000Z</time>
      </trkpt>
      <trkpt lat="43.59441" lon="2.02037">
        <ele>257.9</ele>
        <time>2020-03-11T13:55:41.000Z</time>
      </trkpt>
      <trkpt lat="43.59447" lon="2.02026">
        <ele>258.2</ele>
        <time>2020-03-11T13:55:50.000Z</time>
      </trkpt>
      <trkpt lat="43.59453" lon="2.02015">
        <ele>258.6</ele>
        <time>2020-03-11T13:55:58.000Z</time>
      </trkpt>
      <trkpt lat="43.59457" lon="2.02004">
        <ele>258.8</ele>
        <time>2020-03-11T13:56:05.000Z</time>
      </trkpt>
      <trkpt lat="43.59463" lon="2.01993">
        <ele>259.1</ele>
        <time>2020-03-11T13:56:14.000Z</time>
      </trkpt>
      <trkpt lat="43.59468" lon="2.01983">
        <ele>259.4</ele>
        <time>2020-03-11T13:56:23.000Z</time>
      </trkpt>
      <trkpt lat="43.59474" lon="2.01972">
        <ele>259.6</ele>
        <time>2020-03-11T13:56:32.000Z</time>
      </trkpt>
      <trkpt lat="43.59479" lon="2.01962">
        <ele>259.7</ele>
        <time>2020-03-11T13:56:39.000Z</time>
      </trkpt>
      <trkpt lat="43.59485" lon="2.0195">
        <ele>259.7</ele>
        <time>2020-03-11T13:56:47.000Z</time>
      </trkpt>
      <trkpt lat="43.5949" lon="2.01938">
        <ele>259.6</ele>
        <time>2020-03-11T13:56:55.000Z</time>
      </trkpt>
      <trkpt lat="43.59495" lon="2.01927">
        <ele>259.2</ele>
        <time>2020-03-11T13:57:03.000Z</time>
      </trkpt>
      <trkpt lat="43.59501" lon="2.01916">
        <ele>258.7</ele>
        <time>2020-03-11T13:57:12.000Z</time>
      </trkpt>
      <trkpt lat="43.59506" lon="2.01905">
        <ele>258.3</ele>
        <time>2020-03-11T13:57:21.000Z</time>
      </trkpt>
      <trkpt lat="43.59513" lon="2.01895">
        <ele>257.8</ele>
        <time>2020-03-11T13:57:30.000Z</time>
      </trkpt>
      <trkpt lat="43.59518" lon="2.01884">
        <ele>257.4</ele>
        <time>2020-03-11T13:57:37.000Z</time>
      </trkpt>
      <trkpt lat="43.59523" lon="2.01871">
        <ele>257</ele>
        <time>2020-03-11T13:57:44.000Z</time>
      </trkpt>
      <trkpt lat="43.59525" lon="2.01857">
        <ele>256.7</ele>
        <time>2020-03-11T13:57:51.000Z</time>
      </trkpt>
      <trkpt lat="43.5952" lon="2.01845">
        <ele>256.3</ele>
        <time>2020-03-11T13:57:58.000Z</time>
      </trkpt>
      <trkpt lat="43.59514" lon="2.01835">
        <ele>256.1</ele>
        <time>2020-03-11T13:58:05.000Z</time>
      </trkpt>
      <trkpt lat="43.59508" lon="2.01824">
        <ele>255.8</ele>
        <time>2020-03-11T13:58:15.000Z</time>
      </trkpt>
      <trkpt lat="43.595" lon="2.01818">
        <ele>255.6</ele>
        <time>2020-03-11T13:58:23.000Z</time>
      </trkpt>
      <trkpt lat="43.59492" lon="2.0181">
        <ele>255.5</ele>
        <time>2020-03-11T13:58:31.000Z</time>
      </trkpt>
      <trkpt lat="43.59486" lon="2.01801">
        <ele>255.3</ele>
        <time>2020-03-11T13:58:40.000Z</time>
      </trkpt>
      <trkpt lat="43.5948" lon="2.0179">
        <ele>255</ele>
        <time>2020-03-11T13:58:51.000Z</time>
      </trkpt>
      <trkpt lat="43.59472" lon="2.01784">
        <ele>254.8</ele>
        <time>2020-03-11T13:58:59.000Z</time>
      </trkpt>
      <trkpt lat="43.59464" lon="2.01778">
        <ele>254.7</ele>
        <time>2020-03-11T13:59:07.000Z</time>
      </trkpt>
      <trkpt lat="43.59457" lon="2.0177">
        <ele>254.5</ele>
        <time>2020-03-11T13:59:16.000Z</time>
      </trkpt>
      <trkpt lat="43.59449" lon="2.01763">
        <ele>254.5</ele>
        <time>2020-03-11T13:59:21.000Z</time>
      </trkpt>
      <trkpt lat="43.59442" lon="2.01756">
        <ele>254.3</ele>
        <time>2020-03-11T13:59:31.000Z</time>
      </trkpt>
      <trkpt lat="43.59434" lon="2.01749">
        <ele>254.2</ele>
        <time>2020-03-11T13:59:39.000Z</time>
      </trkpt>
      <trkpt lat="43.59427" lon="2.01742">
        <ele>254.1</ele>
        <time>2020-03-11T13:59:48.000Z</time>
      </trkpt>
      <trkpt lat="43.59419" lon="2.01735">
        <ele>254</ele>
        <time>2020-03-11T13:59:55.000Z</time>
      </trkpt>
      <trkpt lat="43.59411" lon="2.01726">
        <ele>253.7</ele>
        <time>2020-03-11T14:00:04.000Z</time>
      </trkpt>
      <trkpt lat="43.59403" lon="2.01719">
        <ele>253.1</ele>
        <time>2020-03-11T14:00:13.000Z</time>
      </trkpt>
      <trkpt lat="43.59395" lon="2.01713">
        <ele>252.7</ele>
        <time>2020-03-11T14:00:22.000Z</time>
      </trkpt>
      <trkpt lat="43.59386" lon="2.0171">
        <ele>252.1</ele>
        <time>2020-03-11T14:00:36.000Z</time>
      </trkpt>
      <trkpt lat="43.59376" lon="2.01711">
        <ele>249.3</ele>
        <time>2020-03-11T14:02:17.000Z</time>
      </trkpt>
      <trkpt lat="43.59367" lon="2.01709">
        <ele>249.1</ele>
        <time>2020-03-11T14:02:24.000Z</time>
      </trkpt>
      <trkpt lat="43.59358" lon="2.01713">
        <ele>248.8</ele>
        <time>2020-03-11T14:02:34.000Z</time>
      </trkpt>
      <trkpt lat="43.59348" lon="2.01712">
        <ele>247.6</ele>
        <time>2020-03-11T14:02:49.000Z</time>
      </trkpt>
      <trkpt lat="43.59339" lon="2.01709">
        <ele>246.5</ele>
        <time>2020-03-11T14:02:59.000Z</time>
      </trkpt>
      <trkpt lat="43.59334" lon="2.01699">
        <ele>245.3</ele>
        <time>2020-03-11T14:03:08.000Z</time>
      </trkpt>
      <trkpt lat="43.59329" lon="2.01687">
        <ele>243.3</ele>
        <time>2020-03-11T14:03:21.000Z</time>
      </trkpt>
      <trkpt lat="43.5932" lon="2.01688">
        <ele>240.1</ele>
        <time>2020-03-11T14:03:48.000Z</time>
      </trkpt>
      <trkpt lat="43.59312" lon="2.01695">
        <ele>239.1</ele>
        <time>2020-03-11T14:03:56.000Z</time>
      </trkpt>
      <trkpt lat="43.59304" lon="2.01702">
        <ele>238</ele>
        <time>2020-03-11T14:04:04.000Z</time>
      </trkpt>
      <trkpt lat="43.59297" lon="2.01712">
        <ele>236.5</ele>
        <time>2020-03-11T14:04:13.000Z</time>
      </trkpt>
      <trkpt lat="43.59293" lon="2.01723">
        <ele>235.2</ele>
        <time>2020-03-11T14:04:22.000Z</time>
      </trkpt>
      <trkpt lat="43.59291" lon="2.01736">
        <ele>234.4</ele>
        <time>2020-03-11T14:04:27.000Z</time>
      </trkpt>
      <trkpt lat="43.59289" lon="2.01748">
        <ele>233.7</ele>
        <time>2020-03-11T14:04:32.000Z</time>
      </trkpt>
      <trkpt lat="43.59284" lon="2.01761">
        <ele>232.6</ele>
        <time>2020-03-11T14:04:39.000Z</time>
      </trkpt>
      <trkpt lat="43.59275" lon="2.01765">
        <ele>231.1</ele>
        <time>2020-03-11T14:04:48.000Z</time>
      </trkpt>
      <trkpt lat="43.5927" lon="2.01777">
        <ele>229.3</ele>
        <time>2020-03-11T14:04:58.000Z</time>
      </trkpt>
      <trkpt lat="43.59264" lon="2.01787">
        <ele>227.7</ele>
        <time>2020-03-11T14:05:08.000Z</time>
      </trkpt>
      <trkpt lat="43.59257" lon="2.01797">
        <ele>226.4</ele>
        <time>2020-03-11T14:05:16.000Z</time>
      </trkpt>
      <trkpt lat="43.59249" lon="2.01806">
        <ele>225.3</ele>
        <time>2020-03-11T14:05:25.000Z</time>
      </trkpt>
      <trkpt lat="43.59241" lon="2.01813">
        <ele>223.9</ele>
        <time>2020-03-11T14:05:32.000Z</time>
      </trkpt>
      <trkpt lat="43.59231" lon="2.01814">
        <ele>222.6</ele>
        <time>2020-03-11T14:05:40.000Z</time>
      </trkpt>
      <trkpt lat="43.59222" lon="2.0181">
        <ele>221.2</ele>
        <time>2020-03-11T14:05:49.000Z</time>
      </trkpt>
      <trkpt lat="43.59212" lon="2.01806">
        <ele>219.7</ele>
        <time>2020-03-11T14:05:58.000Z</time>
      </trkpt>
      <trkpt lat="43.59203" lon="2.01801">
        <ele>218.2</ele>
        <time>2020-03-11T14:06:05.000Z</time>
      </trkpt>
      <trkpt lat="43.59193" lon="2.01797">
        <ele>217.1</ele>
        <time>2020-03-11T14:06:13.000Z</time>
      </trkpt>
      <trkpt lat="43.59184" lon="2.01793">
        <ele>215.9</ele>
        <time>2020-03-11T14:06:21.000Z</time>
      </trkpt>
      <trkpt lat="43.59176" lon="2.01788">
        <ele>214.4</ele>
        <time>2020-03-11T14:06:30.000Z</time>
      </trkpt>
      <trkpt lat="43.59167" lon="2.01784">
        <ele>213.2</ele>
        <time>2020-03-11T14:06:38.000Z</time>
      </trkpt>
      <trkpt lat="43.59159" lon="2.01776">
        <ele>211.9</ele>
        <time>2020-03-11T14:06:49.000Z</time>
      </trkpt>
      <trkpt lat="43.5915" lon="2.01773">
        <ele>211.1</ele>
        <time>2020-03-11T14:06:58.000Z</time>
      </trkpt>
      <trkpt lat="43.59141" lon="2.01772">
        <ele>210.4</ele>
        <time>2020-03-11T14:07:05.000Z</time>
      </trkpt>
      <trkpt lat="43.59132" lon="2.01771">
        <ele>209.9</ele>
        <time>2020-03-11T14:07:12.000Z</time>
      </trkpt>
      <trkpt lat="43.59122" lon="2.01769">
        <ele>209.5</ele>
        <time>2020-03-11T14:07:21.000Z</time>
      </trkpt>
      <trkpt lat="43.59113" lon="2.01765">
        <ele>209.1</ele>
        <time>2020-03-11T14:07:28.000Z</time>
      </trkpt>
      <trkpt lat="43.59105" lon="2.01757">
        <ele>208.6</ele>
        <time>2020-03-11T14:07:36.000Z</time>
      </trkpt>
      <trkpt lat="43.59099" lon="2.01747">
        <ele>207.9</ele>
        <time>2020-03-11T14:07:44.000Z</time>
      </trkpt>
      <trkpt lat="43.59092" lon="2.01738">
        <ele>207.4</ele>
        <time>2020-03-11T14:07:51.000Z</time>
      </trkpt>
      <trkpt lat="43.59084" lon="2.0173">
        <ele>206.8</ele>
        <time>2020-03-11T14:07:58.000Z</time>
      </trkpt>
      <trkpt lat="43.59076" lon="2.01721">
        <ele>206.5</ele>
        <time>2020-03-11T14:08:06.000Z</time>
      </trkpt>
      <trkpt lat="43.5907" lon="2.01712">
        <ele>206.2</ele>
        <time>2020-03-11T14:08:13.000Z</time>
      </trkpt>
      <trkpt lat="43.59063" lon="2.01703">
        <ele>206.1</ele>
        <time>2020-03-11T14:08:20.000Z</time>
      </trkpt>
      <trkpt lat="43.59055" lon="2.01697">
        <ele>205.8</ele>
        <time>2020-03-11T14:08:28.000Z</time>
      </trkpt>
      <trkpt lat="43.59047" lon="2.0169">
        <ele>205.7</ele>
        <time>2020-03-11T14:08:39.000Z</time>
      </trkpt>
      <trkpt lat="43.59039" lon="2.01683">
        <ele>205.7</ele>
        <time>2020-03-11T14:08:46.000Z</time>
      </trkpt>
      <trkpt lat="43.59031" lon="2.01678">
        <ele>205.9</ele>
        <time>2020-03-11T14:08:52.000Z</time>
      </trkpt>
      <trkpt lat="43.59023" lon="2.01671">
        <ele>206.1</ele>
        <time>2020-03-11T14:08:58.000Z</time>
      </trkpt>
      <trkpt lat="43.59014" lon="2.01662">
        <ele>206.3</ele>
        <time>2020-03-11T14:09:05.000Z</time>
      </trkpt>
      <trkpt lat="43.59006" lon="2.01655">
        <ele>206.5</ele>
        <time>2020-03-11T14:09:13.000Z</time>
      </trkpt>
      <trkpt lat="43.58999" lon="2.01648">
        <ele>206.6</ele>
        <time>2020-03-11T14:09:20.000Z</time>
      </trkpt>
      <trkpt lat="43.58991" lon="2.01638">
        <ele>207</ele>
        <time>2020-03-11T14:09:30.000Z</time>
      </trkpt>
      <trkpt lat="43.58985" lon="2.01629">
        <ele>207.1</ele>
        <time>2020-03-11T14:09:37.000Z</time>
      </trkpt>
      <trkpt lat="43.58977" lon="2.01619">
        <ele>209.2</ele>
        <time>2020-03-11T14:11:55.000Z</time>
      </trkpt>
      <trkpt lat="43.58971" lon="2.01611">
        <ele>209.2</ele>
        <time>2020-03-11T14:12:01.000Z</time>
      </trkpt>
      <trkpt lat="43.58964" lon="2.01602">
        <ele>209.2</ele>
        <time>2020-03-11T14:12:09.000Z</time>
      </trkpt>
      <trkpt lat="43.58957" lon="2.01592">
        <ele>209.2</ele>
        <time>2020-03-11T14:12:19.000Z</time>
      </trkpt>
      <trkpt lat="43.58948" lon="2.01584">
        <ele>209.2</ele>
        <time>2020-03-11T14:12:26.000Z</time>
      </trkpt>
      <trkpt lat="43.58939" lon="2.01576">
        <ele>209.2</ele>
        <time>2020-03-11T14:12:33.000Z</time>
      </trkpt>
      <trkpt lat="43.58932" lon="2.01568">
        <ele>209.3</ele>
        <time>2020-03-11T14:12:41.000Z</time>
      </trkpt>
      <trkpt lat="43.58924" lon="2.0156">
        <ele>209.6</ele>
        <time>2020-03-11T14:12:49.000Z</time>
      </trkpt>
      <trkpt lat="43.58919" lon="2.01548">
        <ele>209.9</ele>
        <time>2020-03-11T14:12:59.000Z</time>
      </trkpt>
      <trkpt lat="43.58913" lon="2.01538">
        <ele>210.3</ele>
        <time>2020-03-11T14:13:08.000Z</time>
      </trkpt>
      <trkpt lat="43.58906" lon="2.01529">
        <ele>210.8</ele>
        <time>2020-03-11T14:13:17.000Z</time>
      </trkpt>
      <trkpt lat="43.58901" lon="2.01519">
        <ele>211.3</ele>
        <time>2020-03-11T14:13:28.000Z</time>
      </trkpt>
      <trkpt lat="43.58895" lon="2.01508">
        <ele>212</ele>
        <time>2020-03-11T14:13:38.000Z</time>
      </trkpt>
      <trkpt lat="43.58888" lon="2.01499">
        <ele>212.9</ele>
        <time>2020-03-11T14:13:48.000Z</time>
      </trkpt>
      <trkpt lat="43.58883" lon="2.01489">
        <ele>214.2</ele>
        <time>2020-03-11T14:13:59.000Z</time>
      </trkpt>
      <trkpt lat="43.58877" lon="2.0148">
        <ele>215.4</ele>
        <time>2020-03-11T14:14:09.000Z</time>
      </trkpt>
      <trkpt lat="43.58877" lon="2.01467">
        <ele>216.9</ele>
        <time>2020-03-11T14:14:21.000Z</time>
      </trkpt>
      <trkpt lat="43.5888" lon="2.01455">
        <ele>218.6</ele>
        <time>2020-03-11T14:14:33.000Z</time>
      </trkpt>
      <trkpt lat="43.5888" lon="2.0144">
        <ele>219.9</ele>
        <time>2020-03-11T14:14:43.000Z</time>
      </trkpt>
      <trkpt lat="43.58881" lon="2.01427">
        <ele>220.7</ele>
        <time>2020-03-11T14:14:49.000Z</time>
      </trkpt>
      <trkpt lat="43.58883" lon="2.01414">
        <ele>221.7</ele>
        <time>2020-03-11T14:14:57.000Z</time>
      </trkpt>
      <trkpt lat="43.58884" lon="2.01401">
        <ele>222.9</ele>
        <time>2020-03-11T14:15:06.000Z</time>
      </trkpt>
      <trkpt lat="43.58885" lon="2.01387">
        <ele>224</ele>
        <time>2020-03-11T14:15:15.000Z</time>
      </trkpt>
      <trkpt lat="43.58884" lon="2.01373">
        <ele>225.3</ele>
        <time>2020-03-11T14:15:24.000Z</time>
      </trkpt>
      <trkpt lat="43.58875" lon="2.01369">
        <ele>227.4</ele>
        <time>2020-03-11T14:15:41.000Z</time>
      </trkpt>
      <trkpt lat="43.58869" lon="2.01379">
        <ele>228.4</ele>
        <time>2020-03-11T14:15:53.000Z</time>
      </trkpt>
      <trkpt lat="43.58864" lon="2.0139">
        <ele>228.8</ele>
        <time>2020-03-11T14:16:02.000Z</time>
      </trkpt>
      <trkpt lat="43.58856" lon="2.01398">
        <ele>229.2</ele>
        <time>2020-03-11T14:16:15.000Z</time>
      </trkpt>
      <trkpt lat="43.58847" lon="2.014">
        <ele>229.6</ele>
        <time>2020-03-11T14:16:24.000Z</time>
      </trkpt>
      <trkpt lat="43.58837" lon="2.01402">
        <ele>230</ele>
        <time>2020-03-11T14:16:31.000Z</time>
      </trkpt>
      <trkpt lat="43.58828" lon="2.01399">
        <ele>230.7</ele>
        <time>2020-03-11T14:16:39.000Z</time>
      </trkpt>
      <trkpt lat="43.58819" lon="2.01393">
        <ele>231.8</ele>
        <time>2020-03-11T14:16:50.000Z</time>
      </trkpt>
      <trkpt lat="43.58811" lon="2.01388">
        <ele>233</ele>
        <time>2020-03-11T14:17:02.000Z</time>
      </trkpt>
      <trkpt lat="43.58801" lon="2.01386">
        <ele>233.8</ele>
        <time>2020-03-11T14:17:12.000Z</time>
      </trkpt>
      <trkpt lat="43.58791" lon="2.01385">
        <ele>234.3</ele>
        <time>2020-03-11T14:17:22.000Z</time>
      </trkpt>
      <trkpt lat="43.58782" lon="2.01387">
        <ele>234.8</ele>
        <time>2020-03-11T14:17:31.000Z</time>
      </trkpt>
      <trkpt lat="43.58773" lon="2.01391">
        <ele>235</ele>
        <time>2020-03-11T14:17:40.000Z</time>
      </trkpt>
      <trkpt lat="43.58764" lon="2.01397">
        <ele>234.9</ele>
        <time>2020-03-11T14:17:50.000Z</time>
      </trkpt>
      <trkpt lat="43.58755" lon="2.01403">
        <ele>234.6</ele>
        <time>2020-03-11T14:17:59.000Z</time>
      </trkpt>
      <trkpt lat="43.58745" lon="2.01407">
        <ele>234.1</ele>
        <time>2020-03-11T14:18:08.000Z</time>
      </trkpt>
      <trkpt lat="43.58737" lon="2.01413">
        <ele>233.6</ele>
        <time>2020-03-11T14:18:17.000Z</time>
      </trkpt>
      <trkpt lat="43.58728" lon="2.01418">
        <ele>233.2</ele>
        <time>2020-03-11T14:18:24.000Z</time>
      </trkpt>
      <trkpt lat="43.58718" lon="2.0142">
        <ele>232.8</ele>
        <time>2020-03-11T14:18:32.000Z</time>
      </trkpt>
      <trkpt lat="43.58708" lon="2.01419">
        <ele>232.3</ele>
        <time>2020-03-11T14:18:41.000Z</time>
      </trkpt>
      <trkpt lat="43.58699" lon="2.01415">
        <ele>232</ele>
        <time>2020-03-11T14:18:50.000Z</time>
      </trkpt>
      <trkpt lat="43.58689" lon="2.01411">
        <ele>231.7</ele>
        <time>2020-03-11T14:19:00.000Z</time>
      </trkpt>
      <trkpt lat="43.5868" lon="2.01408">
        <ele>231.6</ele>
        <time>2020-03-11T14:19:07.000Z</time>
      </trkpt>
      <trkpt lat="43.58671" lon="2.01403">
        <ele>231.5</ele>
        <time>2020-03-11T14:19:15.000Z</time>
      </trkpt>
      <trkpt lat="43.58662" lon="2.01399">
        <ele>231.4</ele>
        <time>2020-03-11T14:19:23.000Z</time>
      </trkpt>
      <trkpt lat="43.58652" lon="2.01395">
        <ele>231.3</ele>
        <time>2020-03-11T14:19:33.000Z</time>
      </trkpt>
      <trkpt lat="43.58644" lon="2.01392">
        <ele>231.4</ele>
        <time>2020-03-11T14:19:41.000Z</time>
      </trkpt>
      <trkpt lat="43.58634" lon="2.0139">
        <ele>231.5</ele>
        <time>2020-03-11T14:19:50.000Z</time>
      </trkpt>
      <trkpt lat="43.58625" lon="2.01393">
        <ele>231.8</ele>
        <time>2020-03-11T14:19:59.000Z</time>
      </trkpt>
      <trkpt lat="43.58615" lon="2.01396">
        <ele>232.3</ele>
        <time>2020-03-11T14:20:08.000Z</time>
      </trkpt>
      <trkpt lat="43.58606" lon="2.01399">
        <ele>232.9</ele>
        <time>2020-03-11T14:20:19.000Z</time>
      </trkpt>
      <trkpt lat="43.58596" lon="2.01402">
        <ele>233.7</ele>
        <time>2020-03-11T14:20:29.000Z</time>
      </trkpt>
      <trkpt lat="43.58587" lon="2.01405">
        <ele>234.2</ele>
        <time>2020-03-11T14:20:38.000Z</time>
      </trkpt>
      <trkpt lat="43.58579" lon="2.01411">
        <ele>234.7</ele>
        <time>2020-03-11T14:20:50.000Z</time>
      </trkpt>
      <trkpt lat="43.5857" lon="2.01416">
        <ele>235</ele>
        <time>2020-03-11T14:20:59.000Z</time>
      </trkpt>
      <trkpt lat="43.58562" lon="2.01422">
        <ele>235.1</ele>
        <time>2020-03-11T14:21:10.000Z</time>
      </trkpt>
      <trkpt lat="43.58553" lon="2.01427">
        <ele>235.2</ele>
        <time>2020-03-11T14:21:20.000Z</time>
      </trkpt>
      <trkpt lat="43.58545" lon="2.01433">
        <ele>235.3</ele>
        <time>2020-03-11T14:21:28.000Z</time>
      </trkpt>
      <trkpt lat="43.58536" lon="2.01441">
        <ele>235.4</ele>
        <time>2020-03-11T14:21:38.000Z</time>
      </trkpt>
      <trkpt lat="43.58529" lon="2.01448">
        <ele>235.7</ele>
        <time>2020-03-11T14:21:47.000Z</time>
      </trkpt>
      <trkpt lat="43.58521" lon="2.01454">
        <ele>235.9</ele>
        <time>2020-03-11T14:21:55.000Z</time>
      </trkpt>
      <trkpt lat="43.5851" lon="2.01455">
        <ele>236.5</ele>
        <time>2020-03-11T14:22:04.000Z</time>
      </trkpt>
      <trkpt lat="43.58502" lon="2.0145">
        <ele>237.3</ele>
        <time>2020-03-11T14:22:15.000Z</time>
      </trkpt>
      <trkpt lat="43.58492" lon="2.01445">
        <ele>238.1</ele>
        <time>2020-03-11T14:22:26.000Z</time>
      </trkpt>
      <trkpt lat="43.58483" lon="2.01442">
        <ele>238.8</ele>
        <time>2020-03-11T14:22:33.000Z</time>
      </trkpt>
      <trkpt lat="43.58475" lon="2.01436">
        <ele>240</ele>
        <time>2020-03-11T14:22:44.000Z</time>
      </trkpt>
      <trkpt lat="43.58467" lon="2.01431">
        <ele>241.7</ele>
        <time>2020-03-11T14:22:58.000Z</time>
      </trkpt>
      <trkpt lat="43.5846" lon="2.01424">
        <ele>243.2</ele>
        <time>2020-03-11T14:23:11.000Z</time>
      </trkpt>
      <trkpt lat="43.58453" lon="2.01415">
        <ele>245.6</ele>
        <time>2020-03-11T14:23:30.000Z</time>
      </trkpt>
      <trkpt lat="43.58444" lon="2.01409">
        <ele>246.7</ele>
        <time>2020-03-11T14:23:40.000Z</time>
      </trkpt>
      <trkpt lat="43.58435" lon="2.01401">
        <ele>247.6</ele>
        <time>2020-03-11T14:23:49.000Z</time>
      </trkpt>
      <trkpt lat="43.58428" lon="2.01393">
        <ele>248.1</ele>
        <time>2020-03-11T14:23:58.000Z</time>
      </trkpt>
      <trkpt lat="43.5842" lon="2.01384">
        <ele>248.5</ele>
        <time>2020-03-11T14:24:07.000Z</time>
      </trkpt>
      <trkpt lat="43.58414" lon="2.01374">
        <ele>248.7</ele>
        <time>2020-03-11T14:24:17.000Z</time>
      </trkpt>
      <trkpt lat="43.58408" lon="2.01363">
        <ele>249</ele>
        <time>2020-03-11T14:24:31.000Z</time>
      </trkpt>
      <trkpt lat="43.58401" lon="2.01353">
        <ele>249.2</ele>
        <time>2020-03-11T14:24:41.000Z</time>
      </trkpt>
      <trkpt lat="43.58393" lon="2.01346">
        <ele>249.4</ele>
        <time>2020-03-11T14:24:49.000Z</time>
      </trkpt>
      <trkpt lat="43.58385" lon="2.01339">
        <ele>249.6</ele>
        <time>2020-03-11T14:24:58.000Z</time>
      </trkpt>
      <trkpt lat="43.58378" lon="2.0133">
        <ele>250</ele>
        <time>2020-03-11T14:25:07.000Z</time>
      </trkpt>
      <trkpt lat="43.5837" lon="2.01321">
        <ele>250.6</ele>
        <time>2020-03-11T14:25:16.000Z</time>
      </trkpt>
      <trkpt lat="43.58363" lon="2.01312">
        <ele>251.2</ele>
        <time>2020-03-11T14:25:24.000Z</time>
      </trkpt>
      <trkpt lat="43.58354" lon="2.01304">
        <ele>251.8</ele>
        <time>2020-03-11T14:25:32.000Z</time>
      </trkpt>
      <trkpt lat="43.58346" lon="2.01296">
        <ele>252.3</ele>
        <time>2020-03-11T14:25:41.000Z</time>
      </trkpt>
      <trkpt lat="43.58339" lon="2.01288">
        <ele>252.7</ele>
        <time>2020-03-11T14:25:49.000Z</time>
      </trkpt>
      <trkpt lat="43.58332" lon="2.01279">
        <ele>253.3</ele>
        <time>2020-03-11T14:25:58.000Z</time>
      </trkpt>
      <trkpt lat="43.58326" lon="2.0127">
        <ele>253.8</ele>
        <time>2020-03-11T14:26:07.000Z</time>
      </trkpt>
      <trkpt lat="43.58318" lon="2.01262">
        <ele>254</ele>
        <time>2020-03-11T14:26:15.000Z</time>
      </trkpt>
      <trkpt lat="43.58309" lon="2.01258">
        <ele>253.9</ele>
        <time>2020-03-11T14:26:25.000Z</time>
      </trkpt>
      <trkpt lat="43.583" lon="2.01256">
        <ele>253.4</ele>
        <time>2020-03-11T14:26:33.000Z</time>
      </trkpt>
      <trkpt lat="43.5829" lon="2.01256">
        <ele>253</ele>
        <time>2020-03-11T14:26:41.000Z</time>
      </trkpt>
      <trkpt lat="43.58281" lon="2.01256">
        <ele>252.6</ele>
        <time>2020-03-11T14:26:48.000Z</time>
      </trkpt>
      <trkpt lat="43.58271" lon="2.01258">
        <ele>252.2</ele>
        <time>2020-03-11T14:26:56.000Z</time>
      </trkpt>
      <trkpt lat="43.58262" lon="2.01259">
        <ele>251.9</ele>
        <time>2020-03-11T14:27:04.000Z</time>
      </trkpt>
      <trkpt lat="43.58252" lon="2.01259">
        <ele>251.6</ele>
        <time>2020-03-11T14:27:12.000Z</time>
      </trkpt>
      <trkpt lat="43.58243" lon="2.0126">
        <ele>251.4</ele>
        <time>2020-03-11T14:27:23.000Z</time>
      </trkpt>
      <trkpt lat="43.58233" lon="2.0126">
        <ele>251.3</ele>
        <time>2020-03-11T14:27:30.000Z</time>
      </trkpt>
      <trkpt lat="43.58224" lon="2.01261">
        <ele>251.3</ele>
        <time>2020-03-11T14:27:41.000Z</time>
      </trkpt>
      <trkpt lat="43.58214" lon="2.01261">
        <ele>251.4</ele>
        <time>2020-03-11T14:27:51.000Z</time>
      </trkpt>
      <trkpt lat="43.58204" lon="2.01259">
        <ele>251.4</ele>
        <time>2020-03-11T14:28:02.000Z</time>
      </trkpt>
      <trkpt lat="43.58194" lon="2.01258">
        <ele>251.5</ele>
        <time>2020-03-11T14:28:10.000Z</time>
      </trkpt>
      <trkpt lat="43.58184" lon="2.01259">
        <ele>251.7</ele>
        <time>2020-03-11T14:28:18.000Z</time>
      </trkpt>
      <trkpt lat="43.58175" lon="2.01262">
        <ele>252.1</ele>
        <time>2020-03-11T14:28:28.000Z</time>
      </trkpt>
      <trkpt lat="43.58165" lon="2.01265">
        <ele>252.5</ele>
        <time>2020-03-11T14:28:37.000Z</time>
      </trkpt>
      <trkpt lat="43.58156" lon="2.01269">
        <ele>252.7</ele>
        <time>2020-03-11T14:28:47.000Z</time>
      </trkpt>
      <trkpt lat="43.58148" lon="2.01273">
        <ele>253</ele>
        <time>2020-03-11T14:28:56.000Z</time>
      </trkpt>
      <trkpt lat="43.58139" lon="2.01279">
        <ele>253.4</ele>
        <time>2020-03-11T14:29:06.000Z</time>
      </trkpt>
      <trkpt lat="43.5813" lon="2.01284">
        <ele>254</ele>
        <time>2020-03-11T14:29:17.000Z</time>
      </trkpt>
      <trkpt lat="43.58121" lon="2.01289">
        <ele>254.5</ele>
        <time>2020-03-11T14:29:27.000Z</time>
      </trkpt>
      <trkpt lat="43.58113" lon="2.01294">
        <ele>255</ele>
        <time>2020-03-11T14:29:36.000Z</time>
      </trkpt>
      <trkpt lat="43.58104" lon="2.013">
        <ele>255.5</ele>
        <time>2020-03-11T14:29:45.000Z</time>
      </trkpt>
      <trkpt lat="43.58095" lon="2.01305">
        <ele>256</ele>
        <time>2020-03-11T14:29:53.000Z</time>
      </trkpt>
      <trkpt lat="43.58086" lon="2.01308">
        <ele>256.6</ele>
        <time>2020-03-11T14:30:02.000Z</time>
      </trkpt>
      <trkpt lat="43.58078" lon="2.01313">
        <ele>256.9</ele>
        <time>2020-03-11T14:30:10.000Z</time>
      </trkpt>
      <trkpt lat="43.58069" lon="2.01316">
        <ele>257.5</ele>
        <time>2020-03-11T14:30:19.000Z</time>
      </trkpt>
      <trkpt lat="43.5806" lon="2.01319">
        <ele>258</ele>
        <time>2020-03-11T14:30:29.000Z</time>
      </trkpt>
      <trkpt lat="43.58051" lon="2.01323">
        <ele>258.4</ele>
        <time>2020-03-11T14:30:41.000Z</time>
      </trkpt>
      <trkpt lat="43.58042" lon="2.01326">
        <ele>258.5</ele>
        <time>2020-03-11T14:30:53.000Z</time>
      </trkpt>
      <trkpt lat="43.58031" lon="2.01327">
        <ele>258.3</ele>
        <time>2020-03-11T14:31:00.000Z</time>
      </trkpt>
      <trkpt lat="43.58022" lon="2.01327">
        <ele>258.3</ele>
        <time>2020-03-11T14:31:08.000Z</time>
      </trkpt>
      <trkpt lat="43.58013" lon="2.01326">
        <ele>258.3</ele>
        <time>2020-03-11T14:31:18.000Z</time>
      </trkpt>
      <trkpt lat="43.58003" lon="2.01326">
        <ele>258.4</ele>
        <time>2020-03-11T14:31:30.000Z</time>
      </trkpt>
      <trkpt lat="43.57994" lon="2.01324">
        <ele>258.4</ele>
        <time>2020-03-11T14:31:37.000Z</time>
      </trkpt>
      <trkpt lat="43.57985" lon="2.01322">
        <ele>258.6</ele>
        <time>2020-03-11T14:31:46.000Z</time>
      </trkpt>
      <trkpt lat="43.57976" lon="2.01316">
        <ele>258.8</ele>
        <time>2020-03-11T14:31:54.000Z</time>
      </trkpt>
      <trkpt lat="43.57967" lon="2.0131">
        <ele>259.3</ele>
        <time>2020-03-11T14:32:03.000Z</time>
      </trkpt>
      <trkpt lat="43.57957" lon="2.01304">
        <ele>259.7</ele>
        <time>2020-03-11T14:32:10.000Z</time>
      </trkpt>
      <trkpt lat="43.5795" lon="2.01296">
        <ele>260.1</ele>
        <time>2020-03-11T14:32:18.000Z</time>
      </trkpt>
      <trkpt lat="43.57942" lon="2.01289">
        <ele>260.5</ele>
        <time>2020-03-11T14:32:27.000Z</time>
      </trkpt>
      <trkpt lat="43.57934" lon="2.01281">
        <ele>260.7</ele>
        <time>2020-03-11T14:32:34.000Z</time>
      </trkpt>
      <trkpt lat="43.57926" lon="2.01273">
        <ele>261</ele>
        <time>2020-03-11T14:32:42.000Z</time>
      </trkpt>
      <trkpt lat="43.57918" lon="2.01265">
        <ele>261.3</ele>
        <time>2020-03-11T14:32:51.000Z</time>
      </trkpt>
      <trkpt lat="43.57911" lon="2.01258">
        <ele>261.7</ele>
        <time>2020-03-11T14:32:59.000Z</time>
      </trkpt>
      <trkpt lat="43.57903" lon="2.0125">
        <ele>262.1</ele>
        <time>2020-03-11T14:33:07.000Z</time>
      </trkpt>
      <trkpt lat="43.57895" lon="2.01243">
        <ele>262.6</ele>
        <time>2020-03-11T14:33:15.000Z</time>
      </trkpt>
      <trkpt lat="43.57888" lon="2.01233">
        <ele>263.3</ele>
        <time>2020-03-11T14:33:25.000Z</time>
      </trkpt>
      <trkpt lat="43.57881" lon="2.01225">
        <ele>263.9</ele>
        <time>2020-03-11T14:33:34.000Z</time>
      </trkpt>
      <trkpt lat="43.57874" lon="2.01216">
        <ele>264.5</ele>
        <time>2020-03-11T14:33:43.000Z</time>
      </trkpt>
      <trkpt lat="43.57866" lon="2.01207">
        <ele>265</ele>
        <time>2020-03-11T14:33:52.000Z</time>
      </trkpt>
      <trkpt lat="43.57858" lon="2.01203">
        <ele>265.6</ele>
        <time>2020-03-11T14:33:59.000Z</time>
      </trkpt>
      <trkpt lat="43.57848" lon="2.01198">
        <ele>266.2</ele>
        <time>2020-03-11T14:34:07.000Z</time>
      </trkpt>
      <trkpt lat="43.57839" lon="2.01193">
        <ele>266.6</ele>
        <time>2020-03-11T14:34:14.000Z</time>
      </trkpt>
      <trkpt lat="43.57832" lon="2.01186">
        <ele>267.2</ele>
        <time>2020-03-11T14:34:23.000Z</time>
      </trkpt>
      <trkpt lat="43.57824" lon="2.01179">
        <ele>268</ele>
        <time>2020-03-11T14:34:32.000Z</time>
      </trkpt>
      <trkpt lat="43.57817" lon="2.0117">
        <ele>269.1</ele>
        <time>2020-03-11T14:34:43.000Z</time>
      </trkpt>
      <trkpt lat="43.57807" lon="2.01168">
        <ele>270.6</ele>
        <time>2020-03-11T14:34:55.000Z</time>
      </trkpt>
      <trkpt lat="43.57798" lon="2.01168">
        <ele>271.6</ele>
        <time>2020-03-11T14:35:04.000Z</time>
      </trkpt>
      <trkpt lat="43.57789" lon="2.01167">
        <ele>272.4</ele>
        <time>2020-03-11T14:35:14.000Z</time>
      </trkpt>
      <trkpt lat="43.5778" lon="2.01165">
        <ele>273</ele>
        <time>2020-03-11T14:35:25.000Z</time>
      </trkpt>
      <trkpt lat="43.57771" lon="2.01166">
        <ele>274</ele>
        <time>2020-03-11T14:35:38.000Z</time>
      </trkpt>
      <trkpt lat="43.57761" lon="2.01166">
        <ele>274.8</ele>
        <time>2020-03-11T14:35:48.000Z</time>
      </trkpt>
      <trkpt lat="43.57752" lon="2.01167">
        <ele>275.7</ele>
        <time>2020-03-11T14:35:58.000Z</time>
      </trkpt>
      <trkpt lat="43.57742" lon="2.01167">
        <ele>276.5</ele>
        <time>2020-03-11T14:36:08.000Z</time>
      </trkpt>
      <trkpt lat="43.57733" lon="2.01168">
        <ele>277.2</ele>
        <time>2020-03-11T14:36:17.000Z</time>
      </trkpt>
      <trkpt lat="43.57723" lon="2.01169">
        <ele>278.1</ele>
        <time>2020-03-11T14:36:27.000Z</time>
      </trkpt>
      <trkpt lat="43.57714" lon="2.0117">
        <ele>279.2</ele>
        <time>2020-03-11T14:36:39.000Z</time>
      </trkpt>
      <trkpt lat="43.57704" lon="2.01171">
        <ele>280</ele>
        <time>2020-03-11T14:36:49.000Z</time>
      </trkpt>
      <trkpt lat="43.57695" lon="2.01172">
        <ele>280.9</ele>
        <time>2020-03-11T14:36:56.000Z</time>
      </trkpt>
      <trkpt lat="43.57685" lon="2.01174">
        <ele>281.7</ele>
        <time>2020-03-11T14:37:05.000Z</time>
      </trkpt>
      <trkpt lat="43.57676" lon="2.01177">
        <ele>282.4</ele>
        <time>2020-03-11T14:37:13.000Z</time>
      </trkpt>
      <trkpt lat="43.57667" lon="2.01178">
        <ele>283.5</ele>
        <time>2020-03-11T14:37:23.000Z</time>
      </trkpt>
      <trkpt lat="43.57657" lon="2.0118">
        <ele>284.5</ele>
        <time>2020-03-11T14:37:34.000Z</time>
      </trkpt>
      <trkpt lat="43.57648" lon="2.01182">
        <ele>285.5</ele>
        <time>2020-03-11T14:37:44.000Z</time>
      </trkpt>
      <trkpt lat="43.57639" lon="2.01184">
        <ele>286.6</ele>
        <time>2020-03-11T14:37:53.000Z</time>
      </trkpt>
      <trkpt lat="43.5763" lon="2.01184">
        <ele>287.8</ele>
        <time>2020-03-11T14:38:03.000Z</time>
      </trkpt>
      <trkpt lat="43.5762" lon="2.01185">
        <ele>289</ele>
        <time>2020-03-11T14:38:13.000Z</time>
      </trkpt>
      <trkpt lat="43.5761" lon="2.01186">
        <ele>290.3</ele>
        <time>2020-03-11T14:38:23.000Z</time>
      </trkpt>
      <trkpt lat="43.57601" lon="2.01185">
        <ele>291.9</ele>
        <time>2020-03-11T14:38:33.000Z</time>
      </trkpt>
      <trkpt lat="43.57591" lon="2.01183">
        <ele>293.4</ele>
        <time>2020-03-11T14:38:42.000Z</time>
      </trkpt>
      <trkpt lat="43.57582" lon="2.01181">
        <ele>295</ele>
        <time>2020-03-11T14:38:51.000Z</time>
      </trkpt>
      <trkpt lat="43.57573" lon="2.01179">
        <ele>296.4</ele>
        <time>2020-03-11T14:38:59.000Z</time>
      </trkpt>
      <trkpt lat="43.57562" lon="2.01175">
        <ele>298</ele>
        <time>2020-03-11T14:39:07.000Z</time>
      </trkpt>
      <trkpt lat="43.57553" lon="2.01171">
        <ele>299.4</ele>
        <time>2020-03-11T14:39:14.000Z</time>
      </trkpt>
      <trkpt lat="43.57543" lon="2.01167">
        <ele>301.1</ele>
        <time>2020-03-11T14:39:21.000Z</time>
      </trkpt>
      <trkpt lat="43.57534" lon="2.01164">
        <ele>302.7</ele>
        <time>2020-03-11T14:39:28.000Z</time>
      </trkpt>
      <trkpt lat="43.57525" lon="2.01159">
        <ele>304.8</ele>
        <time>2020-03-11T14:39:37.000Z</time>
      </trkpt>
      <trkpt lat="43.57516" lon="2.01155">
        <ele>307</ele>
        <time>2020-03-11T14:39:46.000Z</time>
      </trkpt>
      <trkpt lat="43.57508" lon="2.01151">
        <ele>309.2</ele>
        <time>2020-03-11T14:39:55.000Z</time>
      </trkpt>
      <trkpt lat="43.57498" lon="2.0115">
        <ele>311.2</ele>
        <time>2020-03-11T14:40:03.000Z</time>
      </trkpt>
      <trkpt lat="43.57489" lon="2.01147">
        <ele>313.4</ele>
        <time>2020-03-11T14:40:12.000Z</time>
      </trkpt>
      <trkpt lat="43.57479" lon="2.01148">
        <ele>315</ele>
        <time>2020-03-11T14:40:19.000Z</time>
      </trkpt>
      <trkpt lat="43.57469" lon="2.01148">
        <ele>316.9</ele>
        <time>2020-03-11T14:40:27.000Z</time>
      </trkpt>
      <trkpt lat="43.5746" lon="2.01148">
        <ele>319.1</ele>
        <time>2020-03-11T14:40:37.000Z</time>
      </trkpt>
      <trkpt lat="43.5745" lon="2.01145">
        <ele>320.6</ele>
        <time>2020-03-11T14:40:44.000Z</time>
      </trkpt>
      <trkpt lat="43.5744" lon="2.01145">
        <ele>322.3</ele>
        <time>2020-03-11T14:40:51.000Z</time>
      </trkpt>
      <trkpt lat="43.57431" lon="2.01141">
        <ele>324.6</ele>
        <time>2020-03-11T14:41:00.000Z</time>
      </trkpt>
      <trkpt lat="43.57427" lon="2.01129">
        <ele>327</ele>
        <time>2020-03-11T14:41:12.000Z</time>
      </trkpt>
      <trkpt lat="43.57424" lon="2.01116">
        <ele>328.4</ele>
        <time>2020-03-11T14:41:22.000Z</time>
      </trkpt>
      <trkpt lat="43.57419" lon="2.01104">
        <ele>329.3</ele>
        <time>2020-03-11T14:41:29.000Z</time>
      </trkpt>
      <trkpt lat="43.57413" lon="2.01093">
        <ele>329.9</ele>
        <time>2020-03-11T14:41:35.000Z</time>
      </trkpt>
      <trkpt lat="43.5741" lon="2.01081">
        <ele>330.7</ele>
        <time>2020-03-11T14:41:42.000Z</time>
      </trkpt>
      <trkpt lat="43.57407" lon="2.01068">
        <ele>331.4</ele>
        <time>2020-03-11T14:41:49.000Z</time>
      </trkpt>
      <trkpt lat="43.57407" lon="2.01055">
        <ele>332</ele>
        <time>2020-03-11T14:41:56.000Z</time>
      </trkpt>
      <trkpt lat="43.57409" lon="2.01042">
        <ele>332.6</ele>
        <time>2020-03-11T14:42:03.000Z</time>
      </trkpt>
      <trkpt lat="43.57408" lon="2.01029">
        <ele>333.2</ele>
        <time>2020-03-11T14:42:10.000Z</time>
      </trkpt>
      <trkpt lat="43.57408" lon="2.01014">
        <ele>333.7</ele>
        <time>2020-03-11T14:42:16.000Z</time>
      </trkpt>
      <trkpt lat="43.57403" lon="2.01003">
        <ele>334.4</ele>
        <time>2020-03-11T14:42:23.000Z</time>
      </trkpt>
      <trkpt lat="43.57393" lon="2.01005">
        <ele>334.9</ele>
        <time>2020-03-11T14:42:29.000Z</time>
      </trkpt>
      <trkpt lat="43.57384" lon="2.01006">
        <ele>335.5</ele>
        <time>2020-03-11T14:42:37.000Z</time>
      </trkpt>
      <trkpt lat="43.57374" lon="2.01005">
        <ele>336.1</ele>
        <time>2020-03-11T14:42:45.000Z</time>
      </trkpt>
      <trkpt lat="43.57365" lon="2.01001">
        <ele>336.5</ele>
        <time>2020-03-11T14:42:52.000Z</time>
      </trkpt>
      <trkpt lat="43.57356" lon="2.00999">
        <ele>337</ele>
        <time>2020-03-11T14:43:00.000Z</time>
      </trkpt>
      <trkpt lat="43.57347" lon="2.00997">
        <ele>337.4</ele>
        <time>2020-03-11T14:43:08.000Z</time>
      </trkpt>
      <trkpt lat="43.57337" lon="2.01">
        <ele>337.5</ele>
        <time>2020-03-11T14:43:14.000Z</time>
      </trkpt>
      <trkpt lat="43.57327" lon="2.01007">
        <ele>337.7</ele>
        <time>2020-03-11T14:43:20.000Z</time>
      </trkpt>
      <trkpt lat="43.57319" lon="2.01013">
        <ele>337.7</ele>
        <time>2020-03-11T14:43:25.000Z</time>
      </trkpt>
      <trkpt lat="43.57312" lon="2.01022">
        <ele>338</ele>
        <time>2020-03-11T14:43:32.000Z</time>
      </trkpt>
      <trkpt lat="43.57306" lon="2.01032">
        <ele>338.2</ele>
        <time>2020-03-11T14:43:39.000Z</time>
      </trkpt>
      <trkpt lat="43.57299" lon="2.01043">
        <ele>338.3</ele>
        <time>2020-03-11T14:43:45.000Z</time>
      </trkpt>
      <trkpt lat="43.57292" lon="2.01054">
        <ele>338.4</ele>
        <time>2020-03-11T14:43:51.000Z</time>
      </trkpt>
      <trkpt lat="43.57287" lon="2.01064">
        <ele>338.6</ele>
        <time>2020-03-11T14:43:58.000Z</time>
      </trkpt>
      <trkpt lat="43.5728" lon="2.01075">
        <ele>338.8</ele>
        <time>2020-03-11T14:44:05.000Z</time>
      </trkpt>
      <trkpt lat="43.57274" lon="2.01086">
        <ele>339.1</ele>
        <time>2020-03-11T14:44:12.000Z</time>
      </trkpt>
      <trkpt lat="43.57268" lon="2.01097">
        <ele>339.4</ele>
        <time>2020-03-11T14:44:19.000Z</time>
      </trkpt>
      <trkpt lat="43.57261" lon="2.01105">
        <ele>339.7</ele>
        <time>2020-03-11T14:44:25.000Z</time>
      </trkpt>
      <trkpt lat="43.57255" lon="2.01117">
        <ele>340</ele>
        <time>2020-03-11T14:44:32.000Z</time>
      </trkpt>
      <trkpt lat="43.5725" lon="2.01127">
        <ele>340.2</ele>
        <time>2020-03-11T14:44:38.000Z</time>
      </trkpt>
      <trkpt lat="43.57245" lon="2.01138">
        <ele>340.6</ele>
        <time>2020-03-11T14:44:45.000Z</time>
      </trkpt>
      <trkpt lat="43.57238" lon="2.01149">
        <ele>341.1</ele>
        <time>2020-03-11T14:44:52.000Z</time>
      </trkpt>
      <trkpt lat="43.57232" lon="2.0116">
        <ele>341.5</ele>
        <time>2020-03-11T14:44:59.000Z</time>
      </trkpt>
      <trkpt lat="43.57226" lon="2.01171">
        <ele>341.9</ele>
        <time>2020-03-11T14:45:06.000Z</time>
      </trkpt>
      <trkpt lat="43.5722" lon="2.01181">
        <ele>342.3</ele>
        <time>2020-03-11T14:45:13.000Z</time>
      </trkpt>
      <trkpt lat="43.57215" lon="2.01191">
        <ele>342.6</ele>
        <time>2020-03-11T14:45:19.000Z</time>
      </trkpt>
      <trkpt lat="43.5721" lon="2.01204">
        <ele>343.1</ele>
        <time>2020-03-11T14:45:26.000Z</time>
      </trkpt>
      <trkpt lat="43.57205" lon="2.01214">
        <ele>343.7</ele>
        <time>2020-03-11T14:45:32.000Z</time>
      </trkpt>
      <trkpt lat="43.572" lon="2.01225">
        <ele>344.1</ele>
        <time>2020-03-11T14:45:38.000Z</time>
      </trkpt>
      <trkpt lat="43.57195" lon="2.01237">
        <ele>344.5</ele>
        <time>2020-03-11T14:45:44.000Z</time>
      </trkpt>
      <trkpt lat="43.5719" lon="2.01248">
        <ele>344.7</ele>
        <time>2020-03-11T14:45:50.000Z</time>
      </trkpt>
      <trkpt lat="43.57182" lon="2.01255">
        <ele>345.5</ele>
        <time>2020-03-11T14:45:59.000Z</time>
      </trkpt>
      <trkpt lat="43.57175" lon="2.01263">
        <ele>345.8</ele>
        <time>2020-03-11T14:46:05.000Z</time>
      </trkpt>
      <trkpt lat="43.5717" lon="2.01275">
        <ele>346.3</ele>
        <time>2020-03-11T14:46:12.000Z</time>
      </trkpt>
      <trkpt lat="43.57164" lon="2.01285">
        <ele>346.9</ele>
        <time>2020-03-11T14:46:20.000Z</time>
      </trkpt>
      <trkpt lat="43.57158" lon="2.01297">
        <ele>347.4</ele>
        <time>2020-03-11T14:46:27.000Z</time>
      </trkpt>
      <trkpt lat="43.57156" lon="2.01309">
        <ele>347.8</ele>
        <time>2020-03-11T14:46:33.000Z</time>
      </trkpt>
      <trkpt lat="43.5715" lon="2.01319">
        <ele>348.2</ele>
        <time>2020-03-11T14:46:40.000Z</time>
      </trkpt>
      <trkpt lat="43.57145" lon="2.01332">
        <ele>348.5</ele>
        <time>2020-03-11T14:46:47.000Z</time>
      </trkpt>
      <trkpt lat="43.5714" lon="2.01345">
        <ele>348.7</ele>
        <time>2020-03-11T14:46:53.000Z</time>
      </trkpt>
      <trkpt lat="43.57136" lon="2.01358">
        <ele>348.9</ele>
        <time>2020-03-11T14:47:00.000Z</time>
      </trkpt>
      <trkpt lat="43.57129" lon="2.01368">
        <ele>349</ele>
        <time>2020-03-11T14:47:07.000Z</time>
      </trkpt>
      <trkpt lat="43.57124" lon="2.01379">
        <ele>349.1</ele>
        <time>2020-03-11T14:47:15.000Z</time>
      </trkpt>
      <trkpt lat="43.57123" lon="2.01392">
        <ele>349.3</ele>
        <time>2020-03-11T14:47:35.000Z</time>
      </trkpt>
      <trkpt lat="43.57119" lon="2.01404">
        <ele>349.4</ele>
        <time>2020-03-11T14:47:53.000Z</time>
      </trkpt>
      <trkpt lat="43.57113" lon="2.01413">
        <ele>349.5</ele>
        <time>2020-03-11T14:48:04.000Z</time>
      </trkpt>
      <trkpt lat="43.57106" lon="2.01422">
        <ele>349.5</ele>
        <time>2020-03-11T14:48:12.000Z</time>
      </trkpt>
      <trkpt lat="43.57101" lon="2.01433">
        <ele>349.5</ele>
        <time>2020-03-11T14:48:22.000Z</time>
      </trkpt>
      <trkpt lat="43.57095" lon="2.01443">
        <ele>349.4</ele>
        <time>2020-03-11T14:48:31.000Z</time>
      </trkpt>
      <trkpt lat="43.57089" lon="2.01455">
        <ele>349.1</ele>
        <time>2020-03-11T14:48:38.000Z</time>
      </trkpt>
      <trkpt lat="43.57083" lon="2.01465">
        <ele>348.9</ele>
        <time>2020-03-11T14:48:47.000Z</time>
      </trkpt>
      <trkpt lat="43.57078" lon="2.01475">
        <ele>348.5</ele>
        <time>2020-03-11T14:48:56.000Z</time>
      </trkpt>
      <trkpt lat="43.57073" lon="2.01486">
        <ele>348.1</ele>
        <time>2020-03-11T14:49:05.000Z</time>
      </trkpt>
      <trkpt lat="43.57067" lon="2.01497">
        <ele>348</ele>
        <time>2020-03-11T14:49:12.000Z</time>
      </trkpt>
      <trkpt lat="43.57067" lon="2.01511">
        <ele>347.8</ele>
        <time>2020-03-11T14:49:20.000Z</time>
      </trkpt>
      <trkpt lat="43.57063" lon="2.01523">
        <ele>347.7</ele>
        <time>2020-03-11T14:49:29.000Z</time>
      </trkpt>
      <trkpt lat="43.57059" lon="2.01536">
        <ele>347.3</ele>
        <time>2020-03-11T14:49:37.000Z</time>
      </trkpt>
      <trkpt lat="43.57054" lon="2.01547">
        <ele>347.2</ele>
        <time>2020-03-11T14:49:43.000Z</time>
      </trkpt>
      <trkpt lat="43.57059" lon="2.01559">
        <ele>347.1</ele>
        <time>2020-03-11T14:49:52.000Z</time>
      </trkpt>
      <trkpt lat="43.57068" lon="2.01559">
        <ele>346.5</ele>
        <time>2020-03-11T14:50:22.000Z</time>
      </trkpt>
      <trkpt lat="43.5707" lon="2.0156">
        <ele>344.1</ele>
        <time>2020-03-11T14:58:56.000Z</time>
      </trkpt>
    </trkseg>
  </trk>
</gpx>